GFSWCAN_sfc_temp_000.txt.gz
Temp
52 52 52 52 53 52 52 53 53 53 53 54 54 55 55 55 54 55 60 62 57 55 61 66 69 64 66 62 50 60 67 73 73 65 66 68 68 72 69 71 70 68 66 66 68 64 60 85 84 74 74 80 80 74
52 52 52 52 52 52 52 52 52 53 53 54 54 54 54 54 54 54 57 64 64 53 59 65 68 71 70 70 66 62 58 63 70 65 69 71 66 68 61 62 74 60 67 67 66 64 75 80 77 81 81 78 78 74
51 51 52 52 52 52 52 52 52 53 53 53 53 53 54 54 53 53 55 58 57 56 62 67 69 78 80 78 80 61 65 61 57 72 69 68 60 61 57 54 59 64 64 60 65 71 66 76 79 81 82 79 78 79
51 51 51 52 51 51 52 52 52 52 52 53 53 53 53 53 53 53 54 58 56 58 54 67 80 74 81 80 77 76 72 73 72 74 69 65 62 66 62 62 64 65 66 65 61 63 61 71 80 79 79 80 79 80
51 51 51 51 51 52 52 52 52 52 53 53 53 53 53 53 52 55 59 60 58 52 50 58 69 77 80 77 74 75 72 69 70 69 67 65 69 66 68 67 67 72 66 59 64 63 61 62 76 79 76 76 77 75
50 51 51 51 51 51 52 52 52 52 52 52 52 52 52 52 52 55 51 61 65 62 51 53 73 72 74 74 72 71 72 70 71 69 67 70 72 67 61 61 69 64 60 66 64 70 67 66 64 61 74 74 74 73
51 51 51 51 51 51 52 52 52 52 52 52 52 52 51 51 55 52 47 54 57 63 51 51 59 72 74 73 72 71 73 71 71 69 66 68 68 67 63 59 69 70 71 68 67 68 66 69 63 68 72 74 71 74
50 50 50 51 51 51 51 51 51 52 52 52 51 51 51 52 51 54 61 55 58 55 52 47 55 62 74 64 65 74 69 70 69 68 69 64 67 65 59 66 70 72 69 70 69 67 67 65 72 74 74 73 69 69
50 50 50 51 51 51 51 51 51 51 51 51 52 53 56 55 52 54 57 56 61 53 46 53 51 46 71 65 66 67 71 63 72 64 65 66 63 51 63 65 67 70 69 71 71 60 63 57 61 71 73 71 69 67
50 50 50 50 51 51 51 51 51 51 51 52 55 54 49 59 56 56 57 50 51 53 54 52 64 57 66 63 59 58 66 60 57 65 71 64 61 69 70 71 71 71 72 73 72 71 73 69 67 71 69 69 69 66
50 50 50 50 51 51 51 51 51 50 52 62 59 54 62 58 61 55 46 45 49 48 54 58 59 54 65 54 56 61 56 61 53 61 61 59 59 66 72 73 73 72 71 73 77 77 78 74 72 70 69 69 68 67
50 50 50 50 50 50 51 51 51 55 58 52 50 56 64 56 51 46 47 52 51 47 56 53 55 59 59 63 55 58 53 57 50 67 60 56 65 72 74 74 74 73 73 74 77 76 77 75 73 72 71 67 67 69
50 50 50 50 50 50 50 50 51 51 52 59 53 49 54 52 38 43 41 49 48 57 58 57 52 57 55 59 52 52 50 52 65 56 56 62 67 73 74 76 75 76 76 77 78 79 79 74 75 72 68 65 67 67
50 50 50 50 50 50 50 50 51 53 53 54 46 34 43 43 47 52 51 53 58 62 58 58 55 51 54 50 54 46 55 57 50 49 53 53 58 60 71 77 75 71 76 77 78 75 72 71 71 71 69 65 65 65
50 50 50 50 50 51 51 51 51 56 56 53 55 38 49 58 58 58 58 57 61 64 58 57 55 53 52 50 52 51 49 48 52 48 52 53 57 60 65 67 69 74 69 74 73 73 71 69 65 64 61 64 61 60
50 50 52 52 52 52 51 53 56 58 60 55 53 53 60 58 54 56 55 56 61 61 61 55 48 43 46 50 46 46 49 43 44 52 55 55 55 57 63 68 70 68 70 70 70 66 63 62 59 57 58 57 58 58
48 53 52 52 52 51 51 53 61 54 54 51 55 63 62 61 55 55 55 56 63 59 48 46 38 38 46 46 49 53 46 46 50 55 55 58 59 61 63 64 65 65 64 63 61 61 59 57 56 54 51 52 53 54
52 53 51 52 52 56 59 56 58 54 47 54 54 61 63 63 58 58 60 60 58 52 53 43 45 41 41 41 44 47 50 56 61 57 56 58 58 61 61 59 59 58 58 58 56 55 54 54 52 50 50 51 51 51
54 53 51 51 53 52 56 56 59 49 53 59 62 64 64 63 62 60 60 58 56 51 45 44 42 42 44 48 48 50 51 52 51 56 57 59 59 55 55 56 56 55 53 53 53 53 52 52 51 51 51 51 51 52
51 51 51 51 51 54 49 53 61 53 51 56 62 61 59 55 55 49 47 48 46 46 42 42 44 46 46 48 49 48 50 51 50 50 52 53 54 53 52 52 51 52 51 51 51 50 51 52 53 54 54 53 53 55
49 52 51 54 56 57 55 55 55 57 57 56 59 54 48 44 43 44 46 49 46 45 44 47 47 48 50 49 50 50 51 53 51 51 51 51 52 52 51 51 52 51 50 50 50 50 52 53 54 56 54 55 60 62
54 51 58 56 54 53 52 59 55 57 54 54 49 41 39 40 42 44 47 45 44 45 47 47 47 48 48 48 49 51 52 53 54 51 50 50 50 50 50 51 52 51 52 52 53 53 52 54 55 57 57 61 59 63
51 55 57 56 48 43 42 60 47 47 40 39 39 37 39 42 43 48 42 44 45 47 47 49 48 48 48 49 50 50 52 53 51 51 52 52 52 52 51 51 52 52 51 52 56 54 54 48 52 61 61 58 59 65
50 53 48 48 48 40 51 45 47 40 39 37 36 37 39 41 46 41 37 38 43 46 46 46 48 48 49 49 49 49 50 52 51 51 51 50 49 50 51 50 50 51 53 54 58 58 54 52 49 53 54 59 62 61
41 39 44 32 46 41 38 38 37 37 35 37 37 39 41 45 39 36 35 38 43 44 46 47 47 47 47 48 49 50 52 51 50 49 51 51 51 51 50 50 51 51 54 54 55 55 55 53 52 53 56 59 62 62
34 42 38 41 39 36 37 35 35 36 37 40 42 47 47 41 36 33 36 40 42 44 46 47 46 47 48 49 50 49 50 53 55 51 51 53 53 51 50 50 49 51 55 54 53 53 52 55 61 62 61 58 49 59
34 37 44 47 42 39 37 38 38 37 42 43 46 45 42 35 34 38 43 45 45 48 50 51 54 64 63 63 64 63 62 63 59 57 57 59 61 61 62 61 60 61 62 64 63 62 60 61 63 63 64 65 64 64
38 36 34 37 37 38 37 39 42 44 48 55 52 41 40 40 38 46 50 51 51 55 58 67 70 71 71 70 71 70 70 70 70 70 70 69 69 68 68 68 67 49 63 63 68 68 67 66 65 65 65 64 65 67
36 39 38 37 42 43 47 46 47 53 57 54 49 48 48 55 58 56 59 65 69 68 67 70 71 73 72 73 73 74 73 72 67 63 62 62 63 66 70 70 69 69 68 66 43 54 60 62 64 64 65 66 67 67
47 50 47 47 45 44 51 56 55 60 62 61 61 59 58 59 64 67 69 71 70 69 71 72 73 72 70 69 68 69 73 73 72 68 64 64 66 71 71 70 70 71 70 69 67 65 49 59 56 64 63 67 66 63
51 54 51 51 48 53 59 63 64 64 64 62 64 60 60 61 64 71 72 73 73 73 71 70 70 71 70 70 68 67 66 70 70 70 71 72 72 71 71 71 71 71 71 70 69 69 68 67 68 66 66 64 63 61
55 53 52 49 51 58 63 62 62 60 60 59 60 63 62 62 57 65 72 73 71 70 62 69 69 70 73 73 72 71 58 70 70 69 69 70 71 71 74 74 73 72 71 70 70 70 69 68 67 66 64 63 63 62
59 59 57 55 53 55 61 60 58 58 58 58 58 61 62 61 56 66 74 75 72 71 71 72 72 73 72 73 72 70 65 70 60 49 51 48 44 51 65 71 70 70 69 68 69 68 67 63 61 59 58 58 58 56

GFSWCAN_sfc_temp_003.txt.gz
Temp
52 52 52 52 52 52 52 52 53 53 53 54 54 54 55 55 54 52 51 57 51 47 51 58 62 56 57 57 51 57 56 56 60 54 54 55 54 58 58 60 59 55 53 52 54 51 49 73 76 65 62 65 65 69
52 52 52 52 52 52 52 52 52 53 53 53 54 54 54 54 54 53 50 58 57 47 49 57 58 61 62 63 55 57 51 53 55 55 56 57 56 55 55 49 61 51 52 51 54 52 59 64 67 70 70 65 64 63
52 52 52 52 52 52 52 52 52 52 53 53 53 54 53 53 53 52 49 52 52 48 52 54 57 66 69 69 72 54 53 56 55 56 57 58 53 55 48 50 54 55 60 54 56 58 59 62 64 64 68 69 69 69
52 52 51 51 52 52 52 52 52 52 53 53 53 53 54 53 52 52 48 54 52 48 45 57 72 67 74 74 73 71 65 61 62 59 54 56 55 60 55 55 53 58 58 55 59 59 60 62 62 63 63 68 71 71
51 51 51 51 51 52 52 52 52 52 52 53 53 53 53 53 52 52 53 55 56 46 42 48 58 67 72 69 69 68 65 61 61 57 57 53 60 58 59 59 55 57 56 55 51 59 56 57 60 63 61 65 66 66
51 51 51 51 51 52 52 52 52 52 52 52 52 52 52 52 52 50 50 58 59 55 46 43 61 64 69 68 66 63 63 61 61 58 58 61 64 57 52 51 59 63 62 61 57 61 61 61 61 64 63 66 67 66
51 51 51 51 51 52 52 52 52 52 52 52 52 52 52 52 51 50 48 53 54 57 46 43 51 65 69 66 64 62 63 61 61 59 57 58 59 59 54 49 61 62 63 63 62 59 59 62 59 64 67 69 68 67
51 51 50 51 51 51 51 51 51 51 52 52 51 51 52 52 50 51 58 54 54 52 49 42 50 55 63 60 58 63 59 61 58 58 59 57 58 57 49 57 61 64 65 63 62 63 61 59 61 64 66 66 63 61
50 50 50 50 51 51 51 51 51 51 51 51 51 52 53 52 52 55 57 57 57 52 43 48 47 44 64 61 60 61 60 54 62 56 57 58 54 49 54 57 60 62 60 63 64 64 63 59 58 61 62 62 61 59
50 50 51 50 51 51 51 51 51 51 50 51 51 50 45 54 57 57 53 48 48 50 51 47 56 51 60 57 54 52 58 54 50 57 62 56 54 59 61 62 61 64 64 66 61 58 57 56 57 59 59 63 61 61
50 50 51 51 51 51 51 51 51 50 54 54 51 47 56 57 57 52 45 44 48 45 52 54 55 52 61 51 50 55 49 53 47 53 53 51 52 57 63 62 63 64 65 66 65 64 64 61 60 60 60 62 62 62
50 50 50 51 51 50 50 50 50 52 52 47 46 51 55 55 50 45 44 49 49 46 53 51 52 55 56 58 51 51 49 51 46 58 54 49 55 59 63 64 64 65 66 66 67 63 69 62 63 62 63 63 62 63
50 50 50 51 50 50 50 50 50 50 51 54 48 48 50 48 36 41 41 46 46 52 53 52 50 53 54 55 50 48 46 46 58 50 51 49 52 58 58 63 66 68 68 67 67 67 65 66 64 62 62 60 62 60
50 50 50 50 50 50 50 51 51 51 49 48 45 33 40 41 46 50 48 48 52 54 54 54 52 50 52 48 50 45 50 51 45 45 46 49 53 56 58 61 63 62 67 68 66 66 69 64 65 63 63 63 61 58
50 50 50 50 50 50 51 51 51 52 50 49 52 37 45 53 56 57 58 56 58 56 56 54 54 51 49 47 48 48 46 45 45 42 46 51 54 54 55 57 58 56 63 65 65 68 64 63 62 61 60 61 60 60
50 50 50 51 52 52 52 52 53 54 52 53 51 49 55 54 54 56 56 54 58 56 57 53 47 43 44 46 45 45 46 41 42 47 50 53 54 55 56 59 56 53 54 60 60 59 59 57 57 56 58 58 59 59
50 51 53 52 51 52 51 49 54 51 51 49 50 58 57 58 54 54 56 56 60 55 47 47 39 38 44 42 45 47 42 45 50 51 53 54 54 55 56 58 59 57 57 56 56 56 56 56 56 54 51 53 54 54
50 53 52 52 52 53 54 52 53 52 46 51 49 55 59 59 56 53 54 54 52 51 50 45 44 40 40 41 44 45 48 52 54 53 53 54 55 56 57 55 56 56 55 55 55 56 56 54 51 50 51 51 51 52
53 53 52 52 52 49 52 54 56 47 51 55 58 60 60 57 56 55 54 55 54 52 48 45 41 41 43 46 45 47 49 49 48 50 52 53 55 55 54 54 53 53 53 54 54 52 52 51 50 51 51 51 50 51
51 51 51 51 51 49 49 50 58 50 48 54 57 54 54 50 50 49 46 47 46 45 41 41 43 44 44 46 48 48 48 48 48 47 49 51 51 52 51 51 50 51 50 50 50 49 50 50 51 52 52 51 51 51
49 52 51 52 54 52 52 52 52 54 54 52 52 48 46 43 42 43 45 48 45 43 42 45 45 46 49 49 49 48 49 51 51 51 49 48 50 50 50 50 51 50 50 50 50 49 50 50 51 52 52 52 53 54
54 52 54 54 51 53 50 55 52 54 51 50 44 41 39 39 41 43 45 43 43 42 45 45 47 47 46 47 48 50 52 53 52 50 49 49 49 49 49 50 51 50 51 51 51 50 50 51 53 53 53 54 52 55
52 54 53 55 48 40 40 56 46 44 39 38 39 37 39 41 43 46 39 40 41 45 46 47 48 49 48 49 51 51 52 53 51 51 51 50 51 51 52 52 53 51 49 49 52 52 50 48 50 53 54 54 54 56
50 51 48 46 45 39 49 42 43 39 37 36 36 37 39 41 43 37 34 37 41 46 46 46 47 48 49 50 49 49 50 52 50 51 51 50 48 48 50 51 52 52 52 54 54 52 52 52 50 52 53 55 56 56
41 39 42 32 45 41 38 36 36 36 34 37 37 38 39 42 35 34 33 36 41 44 45 47 48 48 48 48 49 50 52 51 50 49 50 51 50 50 50 50 51 51 54 54 52 52 52 52 52 54 56 56 56 55
34 42 37 40 38 35 36 34 34 36 37 40 41 43 43 38 35 33 35 39 42 45 47 48 48 48 48 49 49 49 50 53 54 50 50 53 53 51 50 50 49 50 54 55 55 54 54 56 57 58 57 54 49 57
34 37 41 43 40 38 36 37 38 37 39 41 43 42 38 34 33 38 43 45 45 49 54 57 57 59 54 52 52 52 53 56 56 54 55 57 58 59 58 57 55 56 58 61 60 59 58 58 58 59 58 59 58 58
37 36 34 37 37 38 36 39 42 44 46 51 48 39 37 38 38 44 47 51 53 56 58 64 67 67 65 63 64 63 62 61 59 59 62 62 63 64 62 62 60 48 55 58 61 61 61 60 60 60 60 59 58 59
35 38 37 37 42 41 45 45 45 49 55 52 46 46 46 52 55 54 58 61 65 67 65 66 66 68 68 67 66 68 68 66 61 57 56 56 58 60 64 63 63 62 60 57 45 52 58 59 60 60 61 60 61 60
45 46 45 48 45 43 50 54 53 57 59 58 59 57 57 58 61 64 63 64 64 67 68 68 67 67 65 65 64 65 68 68 67 64 59 59 61 66 65 64 63 64 63 62 61 59 48 55 55 57 58 59 59 58
50 56 52 51 50 55 59 62 63 63 63 61 62 59 58 62 66 68 68 68 70 70 68 67 67 68 66 65 64 63 62 66 66 66 67 67 67 65 65 64 65 64 64 64 64 63 63 60 61 61 60 59 58 55
54 53 52 48 51 58 62 59 59 58 59 59 57 61 61 59 57 64 69 69 68 66 61 67 67 66 68 68 66 65 56 66 65 64 64 64 64 64 67 67 67 66 65 65 65 61 60 58 57 57 55 54 54 52
57 57 57 53 53 55 57 58 55 56 58 57 58 61 60 58 55 63 70 72 69 68 68 69 70 71 68 69 68 65 62 65 56 47 47 48 46 49 63 64 63 64 64 64 63 62 60 58 56 54 52 51 50 48

GFSWCAN_sfc_temp_006.txt.gz
Temp
52 52 52 52 52 52 52 52 52 53 53 53 54 54 54 54 54 46 41 44 42 35 39 48 54 48 48 47 43 48 49 49 48 45 47 47 48 51 49 50 46 48 46 46 47 45 46 62 66 59 58 61 64 62
52 52 52 52 52 52 52 52 52 53 53 53 53 54 54 54 53 51 37 47 47 38 39 47 51 54 53 54 48 48 47 47 50 44 46 46 47 47 45 44 52 47 49 47 50 48 57 59 59 61 64 60 60 60
52 51 52 52 52 52 52 52 52 53 53 53 53 53 54 54 53 52 40 40 40 36 39 39 46 56 55 56 58 47 51 54 52 50 46 46 47 47 43 46 48 53 54 49 50 54 55 58 60 63 63 63 64 63
52 52 51 51 51 52 52 52 52 52 52 53 53 53 54 53 53 52 47 41 41 37 33 42 59 53 60 57 58 58 57 56 53 52 46 45 48 53 48 50 48 52 53 51 50 54 56 58 60 60 62 63 64 65
52 51 51 51 51 52 52 52 52 52 53 53 53 53 53 52 52 50 41 43 44 39 33 36 49 54 57 58 60 60 54 53 48 47 46 42 53 50 51 50 48 51 51 48 47 55 54 55 58 62 61 61 63 63
51 51 51 51 51 51 52 52 52 52 52 52 52 52 52 52 52 41 39 46 47 51 42 33 46 51 57 58 59 56 55 53 52 48 48 52 56 52 45 48 52 56 57 56 54 59 58 60 61 63 62 62 63 63
51 51 51 51 51 51 51 51 52 52 52 52 52 51 51 51 43 39 42 45 49 49 43 37 37 51 59 56 53 52 54 53 52 53 52 54 54 52 46 43 54 55 55 58 58 58 57 60 58 61 64 64 61 61
51 51 51 51 50 51 51 51 51 51 51 51 51 51 51 52 48 41 47 52 48 47 47 36 38 45 55 51 52 51 50 52 52 54 54 53 50 48 44 51 56 58 59 58 59 60 57 57 60 61 62 62 58 57
51 50 50 50 50 51 51 51 51 51 51 51 51 51 47 43 40 45 58 54 46 44 41 41 38 38 54 54 48 48 47 43 51 47 52 51 45 43 49 52 53 58 57 58 59 58 59 57 56 58 59 59 56 55
51 50 50 50 50 50 51 51 51 50 50 51 46 44 44 46 57 54 47 44 45 44 44 36 41 40 48 46 44 44 46 44 43 49 51 47 45 50 53 56 58 59 59 58 55 52 54 53 56 56 58 58 59 58
51 50 50 50 51 51 51 51 50 50 51 46 44 45 49 56 46 46 41 40 39 41 40 40 42 41 49 42 41 44 41 42 40 46 46 43 42 50 55 55 56 57 60 61 60 59 58 56 57 56 56 60 58 59
51 50 50 50 50 51 50 50 50 43 39 40 41 43 42 43 43 40 39 40 40 40 48 47 49 46 47 48 43 43 41 42 39 48 45 40 44 48 51 54 57 55 59 61 62 61 63 58 57 56 56 56 58 59
50 50 50 50 50 50 50 50 50 50 48 43 40 37 40 39 29 37 36 40 42 47 48 48 46 45 45 46 45 43 41 39 47 43 43 43 46 52 51 53 56 58 58 62 61 62 65 58 58 59 58 56 57 58
50 50 50 50 50 50 50 50 50 48 40 39 36 26 31 29 37 43 42 41 48 50 49 49 49 43 45 42 44 44 45 45 40 43 41 47 49 51 50 54 54 53 55 59 61 62 60 59 60 59 59 59 58 57
50 50 50 49 50 50 50 50 51 43 40 38 44 28 36 44 47 48 46 45 51 50 49 44 43 43 42 41 43 45 42 41 41 38 43 48 50 51 52 54 53 52 51 54 57 59 58 57 57 56 57 56 57 57
50 50 46 50 50 51 51 48 45 43 42 41 41 41 44 42 42 46 43 43 47 48 46 43 40 41 42 42 41 41 43 40 42 46 48 48 48 50 52 52 53 52 54 54 54 55 56 58 56 54 55 54 54 55
50 42 52 52 50 51 51 41 43 42 42 43 39 44 46 44 46 42 43 43 47 44 39 39 36 38 43 40 40 45 41 43 47 47 45 46 47 49 51 53 54 54 52 52 52 52 52 53 54 53 51 53 54 55
43 46 52 51 48 47 44 42 43 44 39 40 37 41 45 45 43 43 44 48 48 46 45 40 42 39 39 39 39 43 45 49 51 50 51 51 50 51 54 53 54 53 53 52 51 50 51 51 50 50 51 52 53 53
48 47 51 51 47 41 41 44 45 38 41 42 42 45 44 43 43 43 43 44 44 44 43 42 40 40 41 44 43 45 47 47 46 48 49 51 52 53 52 52 52 52 51 51 51 50 51 51 51 51 51 52 51 52
51 51 51 51 49 40 41 38 46 40 38 41 43 41 41 39 40 45 46 47 46 44 41 40 42 43 43 45 47 47 47 48 47 46 48 49 50 51 50 50 49 50 50 50 50 49 51 50 51 52 52 51 51 51
48 46 50 45 43 42 41 39 39 42 41 38 39 38 38 43 43 43 44 46 45 41 40 43 44 45 48 48 48 48 48 51 49 49 48 47 49 50 50 50 51 50 50 50 49 49 50 50 50 52 52 51 52 52
43 52 43 45 41 44 38 42 40 41 39 38 41 40 39 39 41 42 44 39 40 41 43 44 45 46 47 47 48 50 51 51 51 50 48 49 48 49 50 51 51 50 50 50 50 50 50 51 52 52 52 52 52 53
50 48 44 46 41 32 33 43 40 40 36 38 39 38 39 40 40 43 37 38 40 44 44 46 47 48 48 49 51 52 52 51 50 50 50 50 51 51 51 50 51 50 49 49 52 51 50 49 50 52 52 53 53 53
49 43 39 41 37 29 43 39 41 38 37 36 36 36 38 39 40 36 34 37 40 44 47 47 48 48 49 50 49 49 50 51 50 50 50 50 49 50 51 50 51 50 52 53 53 52 52 51 50 52 51 53 54 53
33 32 35 25 41 38 35 36 35 35 33 36 37 37 38 40 34 33 32 37 40 43 46 49 49 48 48 48 49 50 51 51 49 48 50 51 50 51 50 51 50 51 52 53 52 52 51 51 50 52 52 50 50 50
28 38 36 37 35 34 35 33 34 36 37 38 39 41 41 38 34 32 36 39 41 43 45 47 48 48 48 49 49 49 50 52 52 50 50 51 51 51 49 49 48 49 53 54 51 50 52 54 53 52 51 50 47 51
33 34 39 41 39 38 36 37 38 36 37 39 40 39 37 33 33 38 42 44 43 46 49 51 51 50 50 50 51 52 53 55 55 53 53 54 53 54 54 53 51 52 53 54 56 57 54 52 51 51 50 50 51 52
36 36 33 37 36 37 36 38 40 41 43 46 43 37 36 37 38 43 44 46 48 49 51 52 58 57 54 50 50 50 50 50 51 50 50 52 52 52 51 50 49 46 51 53 53 54 53 52 52 53 53 51 51 53
35 38 37 37 41 39 43 43 43 47 49 47 42 41 42 46 49 47 49 52 54 52 49 54 55 58 56 55 54 53 52 50 50 48 47 45 47 48 49 50 50 50 50 50 46 50 54 53 53 53 54 53 55 55
42 43 41 45 42 41 46 49 49 52 54 53 52 51 50 50 52 54 52 52 53 54 54 54 53 55 52 53 54 55 57 53 52 51 47 47 49 50 51 52 52 51 51 52 52 51 49 51 50 51 51 50 52 50
47 47 47 47 45 49 52 54 55 55 54 52 54 50 49 51 55 57 55 55 57 57 59 57 56 55 54 52 51 50 49 52 55 55 54 52 52 52 53 53 52 52 52 53 53 52 55 52 51 51 50 48 47 47
49 48 46 44 46 53 55 52 52 50 51 50 49 51 52 50 50 56 58 58 56 54 53 55 54 52 53 53 53 52 49 52 52 53 54 52 52 54 54 53 53 55 54 54 52 52 52 50 49 47 46 46 46 46
50 50 50 48 48 48 51 51 50 50 49 49 48 50 49 48 47 52 60 58 57 56 55 55 57 61 57 56 56 54 52 53 47 43 42 42 43 47 50 51 53 55 54 53 52 51 49 48 46 45 46 45 44 43

GFSWCAN_sfc_temp_009.txt.gz
Temp
52 52 52 52 52 52 52 52 52 53 53 53 53 53 54 54 54 44 39 40 39 33 36 44 50 45 46 44 41 46 47 48 46 43 43 43 44 47 46 47 44 46 45 44 44 44 45 60 62 59 56 59 60 61
52 52 52 52 52 52 52 52 52 53 53 53 53 54 54 54 54 49 36 42 42 36 37 43 47 51 51 50 45 44 44 45 47 42 42 42 44 45 43 42 50 45 48 45 47 47 55 59 60 59 61 59 57 59
52 52 52 52 52 52 52 52 52 52 52 53 53 53 53 54 53 52 39 37 37 34 36 36 44 50 47 51 54 44 45 50 48 49 45 43 42 44 42 44 46 50 51 49 48 53 57 58 59 61 61 60 61 62
52 52 52 51 51 51 51 52 52 52 53 53 53 53 53 53 52 53 46 38 37 34 34 39 53 48 55 50 52 57 51 50 49 48 47 43 41 47 44 47 46 50 50 48 48 51 54 58 59 58 61 62 62 61
52 52 51 51 51 51 52 52 52 52 52 53 53 53 53 52 52 50 39 40 40 37 32 34 44 49 52 51 52 52 49 47 46 44 44 45 44 46 47 46 46 49 50 47 47 53 53 54 58 61 60 60 59 58
51 51 51 51 51 51 51 51 52 52 52 52 52 52 52 52 52 40 38 42 43 45 40 32 41 45 52 52 51 50 48 48 48 46 46 46 53 48 42 41 50 52 54 54 54 56 56 58 59 61 59 62 61 59
51 51 51 51 51 51 51 51 51 51 51 52 51 51 51 51 41 40 40 43 48 49 42 35 35 46 53 51 50 50 50 49 49 47 47 50 49 50 44 40 50 57 58 59 58 58 55 57 56 62 62 61 59 59
51 51 51 51 51 50 50 51 51 51 51 51 51 51 51 51 47 40 44 50 46 41 46 35 35 45 50 46 46 46 46 45 46 48 50 47 47 46 43 53 56 57 57 57 60 58 57 54 56 58 59 60 56 54
51 51 50 50 50 50 50 51 51 51 51 51 51 51 46 42 38 43 56 52 44 43 40 40 37 38 50 48 45 48 45 41 46 44 48 48 43 42 50 54 56 56 55 57 57 57 57 56 57 57 57 57 55 53
51 51 50 50 50 50 50 51 51 50 50 51 46 43 43 44 55 53 45 44 44 44 43 34 37 41 45 43 42 42 43 41 38 43 46 43 42 48 51 53 56 56 57 56 53 50 53 53 55 55 55 56 56 55
51 51 50 50 50 50 50 50 50 50 48 45 39 40 43 53 44 46 41 40 40 41 40 37 38 38 46 41 40 41 40 41 39 43 44 39 38 48 52 50 52 53 54 56 58 59 57 56 55 55 55 55 55 55
51 51 50 50 50 50 50 50 50 41 38 40 41 43 40 40 42 38 39 42 39 39 45 45 47 42 44 45 41 41 40 40 37 44 45 39 46 47 49 51 52 52 53 54 57 58 59 57 56 55 55 54 55 56
51 50 50 50 50 50 50 50 50 50 46 41 38 35 38 38 28 35 36 40 41 46 48 47 45 43 44 44 42 41 39 38 45 40 40 45 49 49 48 50 52 54 55 54 56 59 60 56 56 56 55 56 56 55
50 50 50 50 50 50 50 50 50 47 39 37 34 24 30 28 34 40 39 39 46 48 46 48 46 41 43 39 43 43 46 43 38 38 39 44 44 47 48 51 51 51 53 52 53 58 57 55 55 57 58 57 56 55
50 50 50 49 50 50 50 50 50 41 38 36 38 27 35 43 45 45 44 42 49 44 46 43 41 41 40 40 41 44 41 40 41 38 43 47 49 49 49 50 50 51 52 52 52 55 54 55 53 52 53 54 54 54
50 50 45 50 50 50 50 47 42 40 39 37 37 38 41 40 42 46 43 41 43 41 41 40 36 37 42 41 40 39 40 40 41 45 48 48 46 46 47 48 51 53 51 52 51 54 55 55 53 52 53 53 54 54
49 40 50 51 50 50 50 40 40 39 39 41 40 40 39 39 39 40 40 42 43 41 38 37 33 38 43 40 39 44 41 42 45 47 48 46 47 48 48 50 54 53 51 52 52 53 52 53 55 53 51 52 53 53
40 43 51 50 46 46 41 41 40 40 38 40 37 39 40 41 40 40 41 41 42 43 44 39 41 39 38 38 40 42 42 46 49 49 49 50 50 50 51 52 52 52 50 51 52 52 53 53 52 52 53 53 53 53
44 44 51 51 46 40 39 41 41 36 38 38 39 41 41 40 40 41 41 45 43 42 40 41 39 39 41 43 43 44 46 46 45 46 48 50 51 51 51 51 51 50 50 51 51 51 51 52 52 52 53 53 52 52
51 51 51 51 49 39 38 35 42 38 36 37 38 37 37 37 44 45 46 46 45 44 41 40 41 42 42 45 46 46 47 47 47 46 47 48 50 50 50 50 49 50 50 51 50 49 51 51 52 52 53 52 52 51
46 45 50 44 41 40 38 36 37 38 37 35 36 41 38 43 43 43 43 44 44 40 39 42 43 44 46 46 48 48 47 49 48 48 47 47 49 50 50 50 51 50 50 50 49 49 50 50 51 52 52 52 52 52
41 51 41 43 39 40 36 38 37 38 36 36 41 41 39 39 40 40 42 39 39 41 42 43 44 44 45 46 48 50 50 51 50 49 48 49 49 49 49 50 50 49 50 50 50 50 50 50 51 52 52 52 52 52
48 46 42 43 38 31 34 39 37 37 34 37 39 38 38 39 39 42 38 39 40 43 44 44 44 47 47 50 51 51 51 50 49 50 50 50 50 50 50 50 50 50 49 49 51 51 51 48 50 52 52 52 52 51
49 40 37 36 37 28 40 38 40 38 37 36 36 35 36 38 40 37 34 38 41 44 46 48 49 49 49 50 49 49 50 51 50 50 51 51 49 49 50 50 50 50 52 51 52 51 51 50 47 49 51 52 52 51
31 31 34 24 38 37 34 35 35 35 33 37 36 35 37 40 34 33 32 38 41 43 46 49 49 49 48 48 49 49 51 51 49 48 50 50 50 51 50 51 51 51 52 53 52 52 50 50 49 50 52 48 47 47
27 37 36 36 34 34 35 33 33 35 37 38 38 39 40 37 34 32 37 40 42 43 45 47 48 48 48 49 49 49 50 51 52 50 50 51 51 51 49 49 49 50 53 53 52 51 49 50 49 48 47 46 45 48
33 34 39 41 39 38 36 37 37 36 38 38 39 38 37 33 33 38 42 44 43 46 48 48 49 50 49 50 51 51 52 53 53 50 52 53 54 54 54 52 51 51 54 56 55 53 50 48 48 49 48 48 49 50
36 36 34 37 36 37 36 38 38 39 42 42 42 37 35 37 38 43 44 47 48 50 49 49 50 50 49 48 49 50 49 49 49 49 51 51 46 47 49 48 49 46 49 50 51 51 50 50 50 50 50 48 47 49
35 38 37 36 39 39 42 42 41 42 44 43 40 37 40 44 47 46 49 50 51 52 54 52 50 52 51 49 49 48 47 49 49 47 45 43 44 47 46 48 48 47 48 49 46 47 51 50 50 49 49 47 48 49
42 42 42 43 41 40 46 48 46 48 50 48 48 47 46 47 49 50 50 50 51 49 49 50 50 51 48 48 46 47 47 48 49 48 45 44 46 48 47 48 48 47 47 48 49 49 46 48 46 49 47 48 48 47
46 47 47 46 43 47 51 54 54 54 53 52 52 48 46 48 51 51 52 49 51 51 51 49 48 48 49 48 50 50 47 48 48 50 49 48 48 49 49 49 49 48 49 50 50 48 49 49 47 47 46 43 42 41
47 46 45 43 46 50 52 49 49 47 48 49 48 50 49 49 47 51 55 52 51 50 49 50 51 50 48 48 48 49 46 48 48 50 51 50 49 49 50 50 50 51 50 50 48 48 47 45 44 43 42 41 41 40
46 47 47 47 46 45 48 49 48 48 47 46 46 47 46 46 46 52 57 53 53 52 52 51 51 51 52 53 51 49 47 47 41 39 40 42 43 45 48 48 50 50 49 48 47 46 44 44 42 42 41 40 40 39

GFSWCAN_sfc_temp_012.txt.gz
Temp
52 52 52 52 52 52 52 52 52 53 53 53 53 53 54 54 54 42 38 38 37 32 34 42 46 43 44 42 39 43 45 46 44 42 42 41 41 45 43 45 43 46 44 43 43 43 45 58 61 57 58 57 61 60
52 52 52 52 52 52 52 52 52 52 53 53 53 53 54 53 53 47 35 40 39 34 36 40 44 47 49 47 44 40 43 43 45 41 41 41 42 43 42 42 48 45 47 45 46 47 54 60 59 60 59 58 59 59
52 52 52 52 52 51 52 52 52 52 53 53 53 53 53 53 53 51 39 36 36 32 34 35 41 47 43 48 50 42 41 47 46 46 43 42 41 42 40 43 45 49 50 47 48 52 56 59 59 60 60 60 61 61
52 52 52 52 51 51 51 51 52 52 52 53 53 53 53 53 52 51 46 37 36 33 33 39 50 45 50 45 48 49 48 47 47 46 43 41 41 44 42 44 44 49 50 48 48 53 54 57 58 58 60 60 59 60
51 51 52 51 51 51 51 51 52 52 52 53 52 53 52 52 52 50 40 39 39 36 32 33 42 46 47 47 48 48 45 43 43 41 42 44 44 45 45 43 43 49 48 47 47 53 53 54 58 60 59 59 58 57
51 51 51 51 51 51 51 51 51 52 52 52 52 52 52 51 51 41 37 39 40 43 35 31 40 43 48 47 46 44 44 44 44 43 41 43 47 47 45 40 48 51 53 52 52 56 55 57 59 61 59 59 59 57
51 51 51 51 51 51 51 51 51 51 51 51 51 51 51 51 43 39 39 42 44 41 36 35 34 45 48 47 45 44 45 45 46 43 42 45 46 47 43 40 49 52 54 58 56 56 57 60 57 61 60 59 58 57
51 51 51 51 51 51 51 50 51 51 51 51 51 51 51 50 47 40 43 49 45 40 44 34 34 40 48 44 44 44 43 43 43 45 44 43 44 45 40 48 54 55 55 55 60 60 58 58 59 59 58 57 55 54
51 51 51 50 50 50 50 50 51 51 51 51 51 51 45 42 38 44 54 52 43 42 39 41 37 35 47 43 42 44 42 40 44 42 43 45 41 39 45 47 49 55 55 57 58 59 59 56 56 56 57 56 54 53
51 51 51 50 50 50 50 50 51 50 50 50 45 42 42 44 54 53 48 44 43 44 42 34 35 35 42 41 41 40 41 39 38 41 44 41 41 45 48 50 48 50 52 55 52 51 53 54 55 55 56 56 56 55
51 51 51 50 50 50 50 50 50 49 48 42 38 40 40 50 44 45 40 40 41 40 40 36 36 37 44 40 39 40 38 39 36 42 41 36 38 45 49 51 51 50 51 52 54 56 56 56 56 56 55 56 56 55
51 51 51 50 50 50 50 50 50 41 39 42 41 45 40 39 42 39 38 42 38 38 43 43 46 39 42 44 40 40 38 38 36 45 41 36 45 51 48 50 51 51 52 53 54 53 56 57 56 56 56 55 56 56
51 50 50 50 50 50 50 50 50 50 45 43 38 35 37 34 28 34 35 38 39 43 47 46 44 41 42 43 41 38 37 37 43 39 39 44 48 51 47 48 50 52 53 53 53 54 55 57 57 56 55 56 56 56
50 50 50 50 50 50 50 50 50 47 39 36 33 24 29 27 33 37 38 38 46 47 47 47 45 40 40 38 40 41 43 42 38 38 39 44 48 50 47 48 48 49 51 51 51 53 54 56 55 56 56 56 56 55
50 50 50 49 50 50 50 50 50 40 37 35 36 25 34 42 41 46 46 43 44 44 43 42 40 39 39 38 40 43 42 38 41 38 43 46 48 50 48 48 47 48 50 53 53 51 53 54 54 54 54 55 55 55
50 50 45 49 50 50 50 46 41 39 38 36 35 36 39 37 39 45 39 44 42 40 40 39 35 36 42 41 39 40 39 39 40 44 47 48 47 47 47 48 48 51 53 53 52 51 52 52 52 51 52 52 53 54
49 39 49 50 50 50 49 39 39 38 37 39 37 37 36 36 36 38 38 40 44 45 37 36 32 38 41 39 39 43 40 41 44 45 46 48 48 48 50 50 52 52 52 53 53 51 51 51 52 52 51 52 53 53
39 42 51 50 46 45 40 39 39 38 35 37 40 41 39 40 42 39 40 40 40 39 41 38 42 35 38 38 40 42 43 45 44 47 48 50 49 50 50 51 51 51 51 52 53 52 52 52 52 52 52 52 52 53
43 44 50 50 45 39 38 39 39 35 38 41 42 42 41 39 39 39 39 43 46 43 39 37 36 37 39 41 42 43 45 46 44 46 48 50 50 50 50 50 50 50 50 51 51 51 52 53 52 53 53 53 52 52
50 50 51 51 48 38 37 33 39 36 39 36 36 35 35 36 42 45 45 45 43 44 41 40 40 42 42 44 45 45 46 47 46 45 47 48 50 50 50 50 50 50 50 51 51 49 52 52 52 53 53 52 52 51
45 44 49 43 40 39 37 35 35 36 35 34 37 41 39 43 43 42 42 43 42 40 39 42 43 44 46 45 46 47 47 48 48 48 47 47 50 50 50 50 51 51 50 50 50 49 50 50 51 53 53 52 52 52
39 50 40 42 39 38 34 36 35 35 34 34 38 40 39 39 39 40 41 39 39 41 43 43 44 44 44 45 47 50 50 50 50 49 48 48 48 48 49 50 50 49 49 50 50 50 50 51 52 52 52 52 51 52
48 44 40 41 37 30 33 38 35 36 33 38 39 38 38 38 40 42 38 39 40 43 44 44 44 46 46 50 50 50 51 50 49 49 49 49 49 50 50 50 50 50 49 50 53 52 51 48 50 52 52 52 52 52
47 39 36 32 32 29 38 37 38 38 37 37 36 35 36 38 41 37 34 37 41 44 47 48 49 48 49 49 48 49 50 51 50 50 50 50 49 49 50 50 50 51 52 52 52 50 50 49 48 50 50 51 51 50
31 31 32 24 38 36 34 34 34 35 34 37 35 35 37 40 34 33 32 38 42 44 47 49 49 49 47 48 49 49 50 51 49 48 49 52 52 51 50 50 50 50 52 53 52 51 50 49 49 49 50 50 50 49
25 35 35 35 34 34 34 33 33 35 37 37 37 39 40 38 34 32 37 41 42 43 45 48 48 48 48 49 49 49 49 51 53 50 50 51 52 51 50 50 49 49 54 54 52 51 49 50 50 49 49 48 44 51
33 34 38 41 39 38 36 37 38 36 38 37 38 38 37 33 32 38 43 44 43 45 47 48 50 50 49 50 50 51 51 51 52 51 52 53 54 54 55 53 50 52 55 55 53 52 51 50 50 50 50 50 50 51
36 36 34 36 36 38 36 37 38 39 41 43 42 37 37 38 37 43 45 48 49 50 49 50 51 52 51 50 51 51 48 50 52 54 54 52 48 48 49 49 48 43 49 51 52 52 52 51 51 51 50 48 47 49
35 38 38 36 39 38 39 40 41 43 46 44 41 40 43 45 49 48 50 50 49 50 50 49 48 49 48 48 48 47 48 50 50 47 46 45 47 49 48 50 50 50 50 50 42 47 52 51 51 50 49 47 48 48
41 41 40 42 41 40 43 45 45 47 46 47 48 47 47 48 48 49 50 51 52 52 51 51 50 50 49 49 48 49 47 48 51 49 47 47 49 50 50 51 51 51 51 52 51 49 44 49 47 50 49 48 46 46
47 48 45 44 43 45 47 50 51 52 51 49 50 48 46 47 50 50 49 48 49 50 50 48 47 47 48 48 48 49 49 50 50 52 51 51 51 52 52 52 52 51 52 51 51 50 49 48 47 46 45 43 43 43
46 45 44 42 44 49 51 49 48 47 46 47 45 48 48 48 46 50 52 50 50 50 48 49 50 50 50 49 50 50 45 50 50 50 52 52 52 52 52 51 52 52 51 50 49 48 47 46 45 44 43 43 42 42
47 48 48 47 46 46 47 48 46 46 46 46 47 47 46 46 46 50 54 54 53 52 51 51 51 51 51 52 51 49 46 47 42 39 40 41 41 44 49 50 51 51 50 48 48 48 46 45 44 43 43 43 42 43

GFSWCAN_sfc_temp_015.txt.gz
Temp
53 53 52 52 52 52 52 52 52 53 53 54 54 53 53 54 53 51 49 48 48 46 49 50 53 53 55 55 54 55 56 57 59 56 57 59 57 59 58 58 59 60 59 59 60 58 56 66 69 66 65 68 69 70
53 52 52 52 52 52 52 52 52 52 53 53 54 53 53 53 54 50 47 50 49 46 49 48 53 55 56 57 56 54 53 53 56 56 56 56 56 58 53 55 59 57 61 63 61 65 62 66 66 67 65 63 69 69
52 52 52 53 52 52 51 52 52 52 52 53 54 53 54 53 52 52 49 48 48 44 48 48 52 56 55 55 62 54 54 55 56 57 58 57 51 57 53 57 56 59 60 59 59 63 63 65 67 67 67 67 70 71
52 52 52 52 52 52 51 52 52 52 52 53 53 53 53 53 52 52 49 49 48 43 42 53 58 55 58 56 56 58 57 58 57 58 55 57 56 57 58 56 56 63 60 58 60 64 64 67 66 66 66 66 67 69
51 51 51 52 52 52 51 51 51 52 52 52 52 53 53 52 52 51 50 51 51 46 41 47 54 57 58 56 55 56 55 55 59 57 54 54 57 57 60 59 59 62 60 59 61 63 63 65 65 66 66 65 66 66
51 51 51 51 51 51 51 51 51 51 52 52 52 52 52 51 51 49 48 49 50 50 43 44 54 53 57 56 54 53 54 55 58 58 58 60 57 56 53 55 58 61 64 64 61 64 65 66 66 67 66 66 66 66
51 51 51 51 51 51 51 51 51 51 51 51 51 51 51 51 48 47 48 50 48 51 46 45 50 58 57 57 57 56 56 59 59 60 57 60 60 60 55 51 58 60 63 64 65 64 64 66 64 67 68 66 64 66
51 51 51 51 51 51 51 51 51 51 51 51 51 51 51 50 49 50 55 50 50 49 49 41 48 54 59 58 56 58 56 57 57 60 59 58 59 58 52 58 59 59 62 66 67 67 66 67 67 66 65 66 66 64
51 51 51 51 51 50 50 51 51 51 51 51 51 51 50 48 48 49 54 53 53 49 43 46 46 46 59 57 54 54 55 53 57 55 57 59 56 51 56 55 56 57 56 59 65 67 67 66 62 64 65 61 64 63
51 51 51 51 51 50 50 50 51 50 50 50 51 50 45 49 54 53 50 44 46 49 47 41 49 49 55 56 55 53 52 51 48 56 58 54 54 56 57 57 58 58 59 60 62 63 66 66 66 64 65 67 67 66
51 51 51 51 51 50 50 50 50 49 50 50 47 46 50 51 52 48 42 42 44 42 46 49 49 50 56 52 53 53 51 51 46 50 50 50 48 53 57 58 59 60 60 61 62 63 64 65 67 67 67 67 68 67
51 51 51 51 50 50 50 50 50 48 46 45 45 48 48 49 45 41 40 43 43 43 50 50 51 51 56 55 53 51 49 49 44 54 48 45 50 55 56 57 58 59 59 59 62 62 64 65 66 68 68 68 67 67
51 51 50 51 50 50 50 50 50 50 47 48 44 44 46 44 35 37 36 41 40 46 50 51 47 52 52 54 50 49 44 46 55 47 47 47 51 56 56 56 58 59 58 59 60 63 64 64 66 68 67 68 67 65
51 50 50 50 50 50 50 50 50 49 46 44 41 33 40 37 42 45 44 46 49 48 50 50 50 50 50 49 50 44 50 50 44 43 41 45 49 53 54 54 56 56 56 57 59 60 61 62 66 68 67 68 66 64
50 50 50 50 50 50 50 50 50 49 46 42 43 34 41 49 50 48 50 48 51 51 52 52 52 49 50 47 49 47 43 42 43 37 41 46 48 50 51 54 55 55 55 56 58 57 59 63 64 63 64 65 65 64
51 50 49 50 50 50 49 49 49 48 45 42 41 43 48 46 49 49 50 47 50 53 53 51 48 45 46 44 42 43 43 41 40 44 49 52 51 50 51 53 53 54 54 55 56 57 60 62 57 57 59 61 61 62
49 47 49 50 50 50 49 48 47 42 44 42 46 49 48 48 47 49 50 51 51 53 48 47 41 42 49 41 42 46 44 44 46 50 52 51 49 49 50 52 51 53 54 55 55 57 56 56 58 57 54 56 58 59
47 49 50 50 50 48 48 47 44 44 41 47 45 45 48 49 48 50 51 52 51 49 49 46 47 43 42 39 44 47 48 51 52 53 52 51 50 50 51 50 52 53 53 53 54 55 57 56 54 53 54 55 55 55
48 51 50 50 50 48 44 44 45 42 46 47 47 45 45 47 50 50 51 52 52 48 46 47 41 43 45 49 48 48 48 50 46 46 49 50 50 51 51 51 52 52 52 53 54 53 54 55 54 54 54 53 52 52
50 51 51 51 50 46 42 44 47 44 44 46 48 47 46 48 50 50 48 47 45 45 42 41 43 48 47 49 48 46 47 46 46 45 47 49 50 51 50 51 50 52 52 53 53 50 52 52 53 53 53 53 52 51
49 50 50 49 48 48 46 45 45 45 46 44 46 47 47 49 44 43 44 45 44 41 41 44 46 47 50 49 49 46 46 47 48 48 48 48 50 50 50 51 52 52 51 51 51 50 51 51 52 53 53 54 55 54
49 50 50 49 46 45 45 46 45 46 45 45 46 44 40 40 39 40 42 40 41 43 45 46 47 46 45 45 46 50 51 51 50 49 48 48 49 49 49 50 50 50 51 51 51 51 52 53 53 53 53 52 52 53
50 49 49 47 44 40 40 47 42 42 39 39 41 39 38 38 41 43 39 40 41 44 44 44 45 46 45 49 51 51 51 50 49 49 49 50 50 50 50 51 52 53 53 53 57 56 53 49 51 54 53 53 54 53
49 46 43 42 42 38 46 41 42 39 38 38 37 36 37 38 41 37 34 37 41 44 47 48 49 48 49 49 48 49 50 51 50 50 51 51 49 50 51 51 52 54 54 54 53 53 53 52 49 52 53 56 56 56
39 38 40 33 42 39 35 36 35 36 34 38 36 36 37 40 35 34 33 38 43 44 48 49 49 49 48 48 49 49 51 51 50 49 50 54 53 51 50 50 51 56 62 60 59 60 59 61 61 61 61 60 60 60
32 39 36 38 36 35 36 33 34 36 38 37 38 40 41 38 35 32 37 41 42 44 47 49 48 48 49 50 49 50 51 54 58 51 50 53 55 56 55 58 58 56 59 57 59 60 60 61 61 60 59 56 49 60
33 35 39 42 40 39 36 38 39 38 39 38 39 39 39 35 33 38 43 45 44 46 50 51 51 50 50 51 53 52 51 55 58 57 58 59 58 58 60 59 58 59 64 65 64 63 61 61 61 61 60 61 61 61
37 37 34 37 37 38 37 39 40 40 41 46 45 39 39 37 37 43 45 47 48 50 50 50 52 56 56 53 53 53 56 57 56 60 62 62 62 62 61 62 61 44 62 64 64 64 64 63 62 61 59 58 57 58
36 39 39 39 40 40 43 44 44 49 51 51 47 46 48 52 55 55 55 55 55 56 57 57 57 59 59 59 60 61 63 64 61 57 56 57 59 60 63 64 64 64 64 61 40 52 61 62 61 60 58 57 55 55
41 43 43 45 43 43 48 53 53 55 55 54 54 53 54 55 56 57 59 60 60 59 59 60 60 62 61 61 60 60 62 64 65 62 59 59 61 64 65 64 64 64 64 63 60 56 44 55 52 56 55 55 55 53
46 48 49 48 47 51 54 56 57 57 57 56 58 55 53 56 59 59 59 59 61 60 60 60 61 62 63 62 62 62 61 62 63 63 65 66 66 64 65 64 64 64 63 62 61 60 59 58 57 55 53 52 51 50
52 51 51 49 51 56 59 56 56 55 55 56 56 59 59 57 54 59 60 61 62 61 53 59 61 61 63 63 63 62 49 63 62 63 62 64 63 62 63 63 63 62 61 60 59 58 57 55 54 53 52 50 50 49
54 55 54 54 53 52 54 55 54 54 56 55 55 57 57 57 54 60 63 64 63 65 64 64 64 63 62 63 63 60 55 59 47 39 40 41 42 51 61 63 61 60 59 58 57 56 54 53 52 51 50 50 49 48

GFSWCAN_sfc_temp_021.txt.gz
Temp
54 54 54 54 53 53 53 53 53 53 53 54 54 54 55 55 54 57 69 67 64 66 72 70 71 69 72 71 68 72 72 72 73 65 67 70 70 74 72 74 72 68 65 66 68 65 61 85 84 76 75 81 82 85
54 54 54 54 53 53 53 53 53 53 53 54 54 54 54 54 54 55 67 73 71 62 69 71 72 74 72 72 69 74 70 70 78 71 72 74 71 74 68 64 77 67 75 72 73 73 78 82 79 79 81 80 80 82
54 53 53 53 53 53 53 53 53 53 53 54 54 54 54 54 53 54 62 67 67 64 70 71 70 76 79 77 80 66 75 71 71 73 72 74 67 76 67 69 72 76 81 73 74 80 78 79 82 80 80 80 83 85
53 53 53 53 53 53 53 53 53 52 53 53 53 54 54 53 53 53 62 67 66 65 62 67 77 71 76 78 76 75 72 73 73 75 71 71 69 77 71 73 72 76 74 74 74 76 79 79 78 78 78 80 82 85
53 53 53 53 53 53 53 53 53 52 52 53 53 53 53 53 52 56 64 69 71 61 60 67 73 75 76 74 72 74 71 68 71 70 69 68 76 72 74 76 73 78 72 64 67 73 72 72 77 79 78 78 80 78
52 53 53 52 52 52 53 52 52 52 52 52 52 52 52 52 52 59 62 70 75 69 60 63 74 70 73 72 71 70 72 70 71 71 71 75 75 71 66 67 75 77 77 78 72 76 76 77 78 80 78 79 80 77
52 52 53 52 52 52 52 52 52 52 52 52 52 52 52 51 58 56 54 58 56 67 61 63 65 72 74 73 73 72 72 72 72 71 69 71 73 70 66 64 70 69 75 76 76 76 74 78 77 81 81 79 76 77
52 52 52 52 52 52 52 52 52 52 51 52 52 51 51 51 53 57 64 54 57 62 65 59 60 67 74 69 67 75 70 71 71 69 72 70 72 70 61 69 74 73 74 74 76 78 78 81 80 80 80 79 78 72
51 52 52 52 52 52 52 52 51 51 51 51 51 51 58 57 55 59 55 55 65 60 58 63 59 53 74 66 67 68 73 65 74 67 68 70 67 61 67 69 71 74 71 71 74 76 78 77 71 76 78 78 76 74
51 51 52 52 52 52 52 51 51 51 51 51 54 56 50 58 53 56 58 55 57 60 63 60 73 58 71 69 65 62 66 62 57 62 73 64 65 72 74 74 73 72 72 74 70 70 74 72 72 74 74 74 78 77
51 51 52 52 52 52 52 51 51 51 50 58 57 52 61 54 62 55 51 53 54 54 63 66 69 60 74 58 59 67 57 62 54 60 62 60 62 69 74 71 73 73 73 74 74 74 76 76 69 72 70 74 72 77
51 51 52 52 52 52 51 51 51 54 61 53 54 60 68 59 51 48 51 58 54 51 64 60 64 69 62 71 58 60 59 63 55 68 61 58 55 65 68 66 65 71 73 73 74 73 75 76 78 78 74 76 76 78
51 51 51 52 52 52 51 51 51 51 51 62 57 56 53 50 38 44 46 53 50 60 62 62 57 68 68 70 61 61 55 57 70 56 57 55 60 63 63 65 64 65 69 73 73 74 75 76 77 78 77 79 78 71
51 51 51 51 52 51 51 51 51 53 54 55 52 35 48 48 53 60 60 55 65 65 65 62 58 62 66 57 60 53 62 63 52 51 50 60 60 62 64 66 65 63 64 66 69 73 73 74 76 77 79 81 79 72
51 51 51 51 51 51 51 51 51 57 57 54 57 40 52 60 64 58 61 61 63 65 61 61 62 60 58 55 59 59 53 50 51 48 56 61 61 60 61 64 63 62 62 63 67 69 70 71 73 74 77 80 81 80
51 51 54 51 51 51 51 52 56 62 61 57 56 53 60 56 56 62 64 57 69 65 63 61 55 52 52 56 52 51 51 51 52 61 63 63 60 60 60 61 58 56 57 57 61 65 66 68 70 71 78 79 79 78
51 58 51 51 51 51 50 55 60 55 57 53 56 62 60 60 58 60 62 60 68 60 56 55 47 50 57 53 51 60 53 55 56 59 61 59 57 57 57 54 54 56 55 57 58 61 62 66 70 69 66 69 72 71
54 55 51 51 53 54 58 56 57 56 50 55 54 56 62 63 60 58 62 66 65 57 57 54 58 52 49 48 53 58 59 60 62 60 60 57 50 52 52 52 53 53 54 56 59 60 60 60 60 58 58 58 57 56
59 57 51 51 54 55 57 58 59 51 55 58 63 62 60 60 63 65 67 63 64 66 62 61 51 51 52 58 55 59 61 60 57 53 49 50 51 52 52 54 55 56 56 56 56 56 57 59 58 59 59 58 55 55
51 51 51 51 52 53 54 58 63 54 54 60 59 61 59 56 60 66 61 62 61 58 53 53 56 57 58 59 61 61 59 55 47 46 47 51 52 52 52 53 53 54 54 56 56 54 59 56 58 59 59 56 55 55
54 54 52 55 60 60 60 61 59 58 56 55 57 59 56 62 59 58 54 57 53 51 53 58 58 57 61 61 59 51 48 49 48 48 48 49 51 51 52 53 53 54 53 53 53 53 53 53 55 57 57 57 54 53
59 52 62 59 58 58 58 65 56 59 58 56 58 57 55 54 49 45 46 44 47 53 54 54 54 54 55 49 48 49 51 52 52 51 49 50 51 51 51 51 52 51 51 52 52 52 52 53 53 54 54 55 55 56
51 57 61 60 53 49 48 64 52 56 51 51 55 47 45 43 43 46 41 43 43 47 47 47 47 48 47 48 51 52 53 52 50 51 51 51 53 54 53 53 55 56 55 55 57 54 53 49 51 55 54 54 54 59
45 57 53 54 53 45 57 48 56 48 44 42 40 39 40 42 43 39 36 40 44 46 47 47 49 49 50 51 50 50 51 52 51 51 52 53 54 54 57 57 58 60 60 60 62 57 56 58 54 65 65 66 68 68
45 43 46 34 54 47 42 42 39 38 37 40 39 39 40 41 37 35 35 41 44 46 49 50 51 51 49 49 50 51 54 53 53 52 54 60 64 58 57 61 63 64 64 60 60 63 60 67 70 71 71 70 69 68
35 47 40 45 47 41 41 36 35 38 40 39 40 42 43 40 36 33 39 43 44 47 50 50 50 50 50 52 51 53 55 64 69 65 60 62 66 70 66 64 65 67 71 70 68 66 66 69 69 68 68 65 55 68
37 40 44 49 44 40 38 40 42 40 40 39 41 41 41 35 34 40 45 47 48 51 53 53 53 52 54 60 59 57 59 63 67 67 69 70 74 74 71 69 68 72 76 75 74 72 70 70 70 70 70 71 71 70
39 39 36 39 39 42 40 42 42 43 47 52 48 43 39 37 39 45 47 49 52 53 54 59 57 64 66 66 70 68 68 71 72 74 75 75 75 74 73 73 72 49 67 67 73 74 73 72 71 71 70 69 69 70
39 41 41 40 43 44 46 45 47 51 57 54 49 44 43 48 49 49 50 52 57 55 57 58 60 70 73 72 74 78 78 76 71 66 66 67 69 71 75 75 75 74 74 72 42 54 63 68 70 71 70 69 70 71
43 46 43 45 47 46 55 58 56 59 60 59 57 53 52 54 55 58 61 65 65 64 67 69 69 69 71 72 71 73 77 78 76 73 68 68 70 74 75 75 75 75 75 73 72 69 45 63 59 70 69 71 70 70
55 55 52 52 52 59 61 64 65 65 63 61 63 59 58 61 66 71 72 72 73 73 72 71 72 74 73 72 71 71 70 74 74 74 75 76 76 75 74 75 77 77 77 76 76 75 72 71 73 70 68 65 63 61
57 54 54 50 51 61 66 63 61 60 61 62 63 66 65 64 60 67 72 74 72 71 59 71 73 72 75 75 75 75 60 75 74 74 74 74 74 74 78 78 77 75 76 75 75 74 70 68 71 69 67 63 62 62
58 59 60 59 58 57 61 62 60 60 63 61 63 66 66 64 59 67 76 79 75 74 74 75 76 76 74 75 74 72 67 69 51 39 42 40 39 51 70 75 73 73 72 73 73 71 67 65 67 64 63 62 62 61

GFSWCAN_sfc_temp_024.txt.gz
Temp
55 55 55 54 54 54 54 54 54 53 54 54 55 55 55 55 54 56 65 71 66 64 71 73 74 69 72 73 68 70 74 72 71 62 64 67 68 73 71 73 72 69 65 65 67 62 59 87 85 72 73 81 82 83
55 55 54 54 54 54 54 54 53 53 53 54 55 55 55 54 54 54 64 75 73 64 68 75 76 77 75 74 69 72 71 70 74 70 71 71 67 72 70 65 78 67 73 70 71 70 79 82 77 79 80 80 81 82
54 54 54 54 54 54 54 54 53 53 53 54 54 55 54 54 54 54 60 67 69 65 69 72 72 79 82 80 82 66 73 71 72 73 70 71 66 74 65 69 72 77 81 73 73 77 77 79 79 80 80 78 83 86
54 54 54 54 54 54 54 53 53 53 53 53 54 54 54 54 53 53 59 68 68 66 61 69 80 73 80 81 79 78 73 73 72 74 70 69 67 77 71 71 70 70 74 72 73 75 66 73 78 78 80 81 84 82
54 54 54 54 54 54 53 53 53 53 53 53 53 53 53 53 52 55 64 69 73 62 58 65 77 79 79 77 75 76 72 68 71 69 68 66 74 73 75 75 72 73 68 59 60 70 70 71 76 79 80 80 81 79
53 53 53 53 53 53 53 53 53 53 53 53 53 53 52 52 52 59 63 71 70 70 60 62 75 73 75 74 72 72 72 70 71 69 70 74 78 71 66 66 75 78 79 77 64 72 65 77 80 81 80 80 79 78
53 53 53 53 53 53 53 53 53 52 52 52 52 52 52 52 55 59 54 60 56 65 61 61 66 73 75 73 73 72 73 72 71 70 68 70 73 72 68 62 68 73 73 75 77 77 74 77 75 80 81 81 75 77
52 52 52 53 53 53 53 52 52 52 52 52 52 52 52 52 52 57 64 56 57 62 65 59 60 66 75 68 66 75 70 71 70 69 71 69 72 70 62 70 74 75 75 74 76 78 78 80 79 67 70 81 72 75
52 52 52 52 53 53 53 53 52 52 52 52 52 52 56 57 59 63 57 57 66 61 57 63 55 51 74 70 70 71 73 64 73 66 67 70 66 61 68 69 72 73 72 72 75 76 76 75 77 77 79 78 76 73
51 52 52 52 52 52 53 52 52 52 51 51 54 54 52 61 57 58 59 59 59 63 63 58 68 53 66 69 66 65 66 64 57 67 73 66 64 72 75 76 74 74 73 74 70 69 72 73 73 72 76 78 76 70
51 51 52 52 52 52 52 52 52 51 51 58 54 52 64 57 61 62 52 54 57 57 64 66 67 66 74 61 57 58 58 62 54 61 61 58 61 66 75 72 73 74 74 74 74 74 75 75 70 69 76 77 78 71
50 51 52 52 52 52 52 52 52 53 57 53 52 59 62 58 54 48 49 57 58 54 64 63 66 70 69 71 58 54 56 55 50 68 58 57 60 65 70 69 70 71 71 71 73 73 75 75 76 76 71 75 77 77
50 50 51 52 52 52 52 52 52 52 53 62 56 54 53 54 38 46 46 54 55 60 64 64 62 66 67 69 59 57 52 55 69 56 57 55 60 65 66 69 69 70 70 69 69 69 71 75 77 75 75 75 79 75
50 51 51 52 52 52 52 52 51 53 54 52 50 36 47 48 55 58 57 57 63 61 59 61 59 61 59 58 60 53 61 63 53 51 50 54 59 62 66 69 68 65 68 68 68 69 69 68 73 75 76 77 73 74
50 51 51 52 52 52 51 51 51 57 54 51 57 40 52 61 65 64 65 65 66 64 61 61 62 62 60 56 58 57 54 51 54 50 54 59 61 62 63 64 63 63 64 64 65 66 66 66 69 72 72 77 76 75
51 51 52 52 52 51 51 52 56 59 59 56 57 55 60 59 62 63 64 58 64 64 66 66 57 55 54 55 53 52 53 49 48 53 59 61 60 61 61 62 62 62 61 61 61 62 64 64 65 69 73 75 74 72
51 54 52 51 51 51 51 55 59 55 55 53 55 62 61 60 62 60 59 63 64 64 56 57 50 50 61 54 52 59 51 55 60 62 61 59 57 56 56 57 58 58 56 59 58 57 61 65 67 65 63 58 65 62
53 55 51 51 53 54 57 55 57 55 51 57 54 61 62 64 57 57 61 62 59 60 61 55 59 52 52 49 54 59 58 58 60 60 60 58 53 51 52 53 55 54 55 58 58 60 61 61 61 56 56 57 56 57
57 56 51 52 55 57 56 57 59 52 57 59 63 62 61 62 61 62 63 64 67 66 62 58 53 52 53 58 59 59 58 59 57 57 57 54 52 52 52 53 56 55 55 56 56 57 57 58 58 57 57 57 55 55
52 51 52 52 51 54 55 58 63 54 54 57 62 55 55 57 63 62 60 63 63 61 56 55 57 54 56 54 55 57 59 57 51 48 48 50 52 52 53 53 53 54 54 56 55 52 55 55 55 56 56 56 54 53
54 55 53 54 59 58 56 60 58 60 59 57 63 62 59 62 62 57 57 60 57 54 51 57 54 57 60 60 60 58 53 50 50 49 48 49 52 52 52 53 53 53 53 53 52 52 52 54 56 59 59 57 57 54
59 52 61 59 56 60 58 64 59 63 61 59 58 59 58 52 52 52 56 53 52 56 54 55 56 56 56 56 53 51 51 52 52 51 49 50 50 51 51 51 52 52 53 53 53 51 52 53 54 56 56 55 55 56
54 59 61 62 55 49 47 65 54 55 50 52 58 51 51 49 46 49 43 45 45 48 48 48 49 49 48 49 51 53 53 52 51 51 53 52 52 53 53 56 56 53 52 51 53 52 51 48 51 55 55 55 55 54
50 57 53 54 53 44 59 52 56 52 50 49 47 44 43 43 45 41 37 40 44 46 46 47 48 49 50 51 50 50 52 52 51 52 53 53 53 53 58 60 60 59 58 55 54 54 54 54 51 55 58 63 64 66
46 46 47 33 53 49 46 46 43 40 38 42 41 40 41 42 37 35 35 41 44 46 49 51 51 50 49 50 50 51 54 54 53 54 56 61 59 60 58 57 57 59 59 58 61 63 65 66 65 69 70 69 68 68
36 47 40 45 46 45 45 38 37 38 40 40 40 43 42 40 36 34 40 43 45 47 50 50 50 50 50 52 51 52 53 55 59 58 57 59 62 64 59 58 62 61 66 66 68 68 70 70 69 69 69 66 57 68
38 41 46 53 48 45 41 40 42 40 40 39 41 41 41 35 34 41 45 48 48 51 53 53 53 52 52 57 61 62 59 62 65 70 71 69 74 74 72 70 68 70 71 73 73 72 70 70 70 70 70 71 71 71
39 41 38 40 39 41 40 42 41 42 43 49 45 41 39 38 40 45 47 50 52 53 55 55 54 57 57 59 63 69 68 73 74 75 75 75 75 74 73 73 72 52 66 67 73 74 73 72 72 71 70 69 69 70
38 41 43 40 43 43 45 49 48 55 57 53 46 43 43 47 49 50 51 52 54 58 63 65 64 69 71 72 73 74 75 76 71 67 66 66 68 70 74 74 74 74 74 71 43 56 64 66 68 71 71 70 70 70
44 48 44 48 48 47 52 56 53 58 60 59 54 52 52 55 57 59 58 59 61 63 64 68 71 73 72 73 74 75 78 78 77 73 69 68 70 75 75 75 75 75 75 73 72 70 50 64 60 70 68 70 70 69
55 52 52 54 52 56 58 60 59 59 57 53 55 56 57 61 64 67 68 71 73 72 70 72 74 75 73 73 72 72 70 75 75 74 76 77 77 75 75 75 76 76 75 75 74 73 71 69 71 70 69 67 65 62
55 54 52 51 55 62 63 60 60 58 58 57 57 62 65 64 61 68 74 75 74 72 62 72 74 73 76 76 76 75 63 75 73 71 70 74 74 74 76 77 77 75 75 75 74 74 71 69 70 69 68 65 64 64
54 57 58 58 56 55 60 61 59 59 61 61 63 66 66 65 60 68 76 78 76 75 75 76 77 76 75 75 74 71 65 67 50 40 42 41 40 51 70 74 73 73 73 72 72 71 69 66 67 65 64 64 63 63

GFSWCAN_sfc_temp_027.txt.gz
Temp
55 55 55 55 55 55 54 54 54 54 54 54 54 55 55 55 54 52 54 60 58 54 59 66 68 61 62 61 53 59 62 63 60 53 54 55 55 59 59 61 58 56 52 52 52 49 49 74 73 61 60 62 67 66
55 55 55 55 55 54 54 54 54 54 54 54 54 54 55 54 54 54 55 63 66 57 57 66 68 70 69 67 59 60 59 58 61 57 57 57 56 58 56 52 65 57 60 56 58 55 65 69 66 67 68 66 70 68
54 54 54 55 54 54 54 54 54 54 54 54 54 54 54 54 54 53 51 57 59 57 61 62 64 72 74 71 74 56 60 61 59 61 57 58 56 60 54 56 59 63 67 61 62 58 58 61 63 67 72 71 70 76
54 54 54 54 54 54 54 54 54 53 54 53 54 54 54 53 53 53 51 57 59 58 53 61 75 69 76 73 72 68 65 64 62 61 57 56 54 62 57 60 59 63 63 59 59 59 63 60 61 63 69 74 74 71
54 54 54 54 54 54 54 54 53 53 54 53 53 53 53 53 52 52 55 58 63 56 50 55 66 73 74 69 69 67 63 60 58 57 56 54 60 60 61 62 57 63 60 54 51 58 60 60 62 68 68 70 71 70
53 53 53 53 54 54 54 54 53 53 53 53 53 53 52 52 52 53 54 62 61 61 53 52 67 67 70 69 65 62 62 59 59 57 57 61 65 60 54 54 62 66 67 65 59 64 66 66 66 67 71 74 73 69
53 53 53 53 53 53 53 53 53 53 53 52 52 52 52 52 51 50 49 54 54 55 53 53 58 67 70 66 64 62 63 61 60 58 56 58 61 61 56 52 62 67 67 67 68 67 67 70 67 70 68 72 70 69
52 52 53 53 53 53 53 53 53 52 52 52 52 51 51 51 51 49 59 56 55 54 58 51 55 61 68 60 57 65 60 61 59 58 59 58 60 59 52 59 63 66 67 69 68 69 67 67 68 67 68 66 66 65
52 52 52 52 53 53 53 53 53 52 52 52 52 52 52 53 54 57 59 58 58 55 49 56 52 48 65 63 63 61 62 55 62 57 59 59 55 51 58 59 61 64 62 63 67 68 69 67 66 68 70 68 65 64
51 52 52 52 52 53 53 53 53 52 51 51 51 53 49 58 59 58 56 54 53 57 55 52 61 49 53 59 58 58 59 55 52 58 64 57 54 61 65 66 64 65 66 67 61 60 63 63 64 64 64 66 65 64
51 51 52 52 52 52 52 53 52 52 51 52 51 50 59 58 58 55 50 50 53 52 57 58 59 54 61 54 51 55 51 54 48 54 55 52 52 57 63 62 64 65 66 66 65 65 65 64 64 63 64 65 63 65
51 51 51 52 52 52 52 52 52 50 53 48 49 53 59 56 51 47 47 53 54 51 60 58 60 62 61 63 52 52 49 52 46 58 54 48 52 60 62 63 63 64 65 65 65 65 65 65 65 68 64 63 65 65
51 51 51 52 52 52 52 52 52 52 52 56 49 51 52 48 38 42 41 49 51 58 59 59 56 60 60 61 55 50 45 47 58 52 48 49 54 58 60 63 63 65 65 65 65 66 66 66 68 65 65 67 66 65
51 50 50 51 52 52 52 52 52 52 50 49 48 34 43 43 48 51 52 54 57 58 59 57 58 55 56 52 54 48 53 54 49 47 47 50 54 57 60 63 62 60 61 62 62 63 63 63 64 65 66 67 66 64
50 50 51 51 52 52 52 52 52 53 51 47 50 39 47 54 57 61 59 52 61 63 60 57 57 58 53 51 53 52 48 46 48 44 48 53 56 57 57 58 59 58 58 59 61 60 60 60 61 61 63 65 62 64
50 50 51 52 52 52 51 51 52 55 54 52 53 51 57 54 51 58 60 57 63 62 61 59 54 51 52 53 51 49 50 44 43 47 55 57 54 54 54 55 55 56 56 56 57 57 58 58 58 58 61 59 59 58
51 50 52 52 52 51 51 51 54 52 52 52 52 59 56 51 54 54 54 49 61 59 52 55 48 49 55 50 51 52 46 48 52 53 55 55 52 52 52 53 54 55 54 55 56 57 56 57 57 58 56 55 56 56
50 51 52 51 51 51 53 51 54 54 49 53 50 52 58 59 54 53 51 60 59 57 56 52 55 50 48 48 48 51 53 57 57 54 54 54 53 53 52 51 53 53 54 55 56 56 56 56 56 55 56 56 55 55
52 52 51 51 54 53 52 54 56 48 53 57 58 60 60 57 58 57 61 61 60 61 58 56 52 50 51 51 52 53 54 54 52 52 53 53 53 52 52 52 53 54 54 55 55 55 55 56 56 55 55 55 53 53
52 51 52 52 50 51 52 54 59 51 49 54 58 56 57 55 56 57 59 59 58 57 54 52 52 52 51 53 55 54 54 52 50 48 49 50 51 52 52 52 52 53 54 54 54 51 54 53 54 55 54 53 52 52
54 53 53 54 54 51 52 55 55 55 54 54 57 54 54 59 55 54 55 58 55 52 51 56 54 54 56 56 56 54 52 51 49 48 48 48 51 51 52 52 52 53 52 52 52 52 52 53 54 56 56 55 54 53
57 53 56 52 52 56 55 59 53 57 57 57 57 58 53 51 51 49 53 52 51 53 52 52 52 52 52 52 52 52 52 51 51 50 48 49 50 50 51 52 53 51 52 51 51 51 52 53 54 55 55 54 54 54
54 57 57 59 54 45 45 61 53 55 48 49 54 50 49 48 46 51 44 45 47 49 48 49 49 50 50 50 51 52 51 51 50 51 51 51 53 53 53 53 54 52 51 51 52 52 51 49 51 54 54 55 56 54
52 55 51 52 51 43 56 52 54 50 49 48 46 45 44 43 46 41 38 40 43 46 46 47 47 48 49 50 49 49 50 52 51 52 53 55 54 54 55 55 55 54 53 52 53 54 54 54 51 55 55 56 56 55
45 45 45 33 52 50 47 47 44 43 39 44 42 41 40 42 38 35 34 40 44 46 47 50 49 49 48 48 50 50 52 52 51 51 53 56 58 57 56 56 58 59 61 58 56 57 56 56 57 58 58 60 59 59
34 47 40 47 46 44 44 40 39 39 39 40 41 42 42 39 36 34 40 43 45 46 49 49 49 49 49 50 50 50 52 54 56 57 59 60 61 59 57 57 57 57 61 61 61 61 61 62 62 63 62 61 56 63
36 41 46 53 49 48 44 41 41 39 39 40 41 40 39 36 34 41 45 48 48 50 52 52 51 50 50 51 55 57 59 61 59 63 65 66 65 65 63 60 60 61 63 64 66 65 64 64 63 64 63 64 64 64
40 41 39 43 41 42 40 42 40 40 42 46 45 40 39 39 40 45 47 50 52 53 53 54 54 56 56 60 63 63 64 66 67 67 69 69 68 68 66 65 63 51 60 61 64 65 65 66 65 65 64 62 61 63
37 42 42 39 41 42 42 43 46 51 51 49 44 42 43 47 49 49 50 51 53 53 53 54 58 61 62 65 66 66 70 70 66 62 61 60 62 63 67 67 67 67 64 61 46 54 60 61 62 64 65 63 63 63
43 49 45 46 43 43 48 53 52 55 54 51 51 51 50 50 51 54 55 56 56 57 61 65 65 67 66 65 66 68 70 71 70 66 63 63 65 69 69 69 68 69 67 66 66 63 51 59 58 64 62 62 61 62
54 51 47 50 47 50 50 52 55 55 55 53 57 54 53 55 59 61 61 62 64 67 67 67 69 71 70 70 68 66 65 69 67 67 68 72 72 69 69 69 69 69 68 68 68 66 65 63 63 62 64 62 61 60
52 52 51 49 48 53 55 52 50 50 52 54 56 59 60 58 56 61 66 66 64 65 65 65 69 69 71 70 69 66 57 65 64 65 65 65 66 67 70 70 71 69 69 70 69 68 67 66 64 64 63 63 62 61
52 54 57 55 54 53 57 56 54 54 56 56 59 63 63 62 58 66 73 73 70 71 70 72 73 72 68 68 65 63 58 58 47 41 43 42 42 51 65 66 66 68 69 68 68 67 66 65 64 63 62 62 61 61

GFSWCAN_sfc_temp_030.txt.gz
Temp
54 54 54 55 55 54 54 54 54 54 54 54 54 55 55 55 54 48 44 47 47 41 45 55 58 50 53 52 49 55 56 55 55 50 48 48 48 52 50 53 52 52 48 46 45 44 45 67 66 58 58 59 62 64
54 54 54 54 54 54 54 54 54 53 54 54 54 54 54 54 54 52 41 50 53 45 47 54 60 61 60 60 54 51 50 49 53 52 51 50 51 52 48 47 55 50 55 52 52 50 57 58 58 59 62 61 63 63
54 54 54 54 54 54 54 54 54 54 54 54 54 54 54 54 53 51 40 43 45 43 47 48 53 61 58 61 62 52 51 55 53 56 50 52 52 54 46 48 51 56 58 52 53 55 55 58 62 63 64 64 65 66
54 54 54 54 54 54 54 54 54 53 53 54 54 54 54 53 53 52 40 43 42 42 39 48 63 59 65 63 62 59 59 57 56 54 51 49 50 54 50 53 52 56 57 53 51 55 57 60 61 62 66 67 66 67
53 53 53 53 53 53 54 53 53 53 53 53 53 53 53 53 52 49 42 45 47 44 39 43 54 59 61 62 60 57 56 52 51 50 49 50 52 52 51 50 50 53 54 50 49 56 56 58 60 64 64 67 67 66
53 53 53 53 53 53 54 53 53 53 53 53 53 52 52 52 51 42 43 48 48 45 43 39 52 56 57 59 56 52 52 51 50 48 49 51 56 54 47 46 56 56 58 58 57 59 60 61 64 65 64 66 66 65
52 52 53 53 53 53 53 53 53 53 52 52 52 52 51 51 43 39 43 48 50 45 43 40 44 55 60 55 53 52 52 51 50 47 47 49 51 53 46 47 57 58 62 62 62 63 61 64 60 65 67 66 66 65
52 52 52 53 53 53 53 52 52 52 52 52 52 51 51 51 48 43 46 51 49 43 44 39 44 54 55 50 48 51 50 48 49 50 48 48 49 49 45 53 57 61 62 62 63 64 64 61 63 63 64 64 62 61
52 52 52 52 52 52 52 52 52 52 52 52 52 51 45 43 42 47 58 55 48 46 40 42 41 41 53 50 50 50 50 45 50 48 47 49 45 45 50 56 59 61 60 59 61 62 63 62 61 62 63 63 59 60
52 52 52 52 52 52 52 52 52 52 51 51 45 44 42 47 58 55 48 45 44 44 42 39 45 43 48 47 49 48 46 45 42 48 51 47 44 50 53 55 56 58 60 61 58 56 58 57 59 61 59 61 62 61
52 52 52 52 52 52 52 52 52 51 50 40 44 44 47 56 48 45 42 41 42 41 42 43 46 44 50 45 43 47 43 44 41 46 50 43 42 49 54 55 56 57 58 57 58 57 57 56 56 57 59 62 62 63
52 51 51 52 52 52 52 52 52 42 43 44 43 45 44 45 42 39 39 44 43 42 47 46 50 49 50 50 45 46 43 44 40 48 45 41 44 49 53 56 57 57 59 60 61 59 60 60 59 58 58 59 59 63
51 51 51 52 52 52 52 52 51 50 48 47 41 40 41 39 32 37 36 40 41 46 50 48 46 52 51 49 45 43 41 40 49 43 43 42 46 50 51 53 55 57 58 58 59 59 59 59 60 59 58 59 60 60
51 51 51 51 52 52 52 52 51 49 41 41 43 30 35 33 38 41 41 43 48 48 47 47 47 46 46 45 45 43 46 47 42 39 40 44 49 50 53 54 53 52 54 55 56 57 57 57 56 57 58 58 57 57
51 51 51 51 52 52 52 51 52 45 42 42 43 30 38 44 45 47 47 46 49 48 48 48 48 47 44 44 45 45 45 43 42 39 46 46 48 48 49 50 50 50 50 50 52 53 54 55 54 54 56 56 56 56
51 50 49 51 52 52 51 50 47 45 47 45 42 40 45 43 42 46 48 47 47 48 50 51 49 43 43 44 44 44 44 41 43 44 46 47 47 47 47 47 48 49 49 49 50 51 52 51 52 51 53 54 54 54
50 47 51 52 51 51 51 45 44 45 47 45 42 49 44 43 46 45 45 45 48 47 43 44 42 42 45 43 42 43 40 42 48 50 50 47 46 46 47 47 48 49 50 53 54 52 54 56 56 52 50 52 52 52
47 50 52 51 50 48 46 44 44 45 43 43 40 45 47 47 45 45 47 49 49 45 48 44 45 41 40 42 42 43 49 50 49 47 46 47 47 48 49 49 50 50 52 53 54 52 50 51 50 51 53 54 54 52
50 50 51 51 50 45 43 44 45 40 43 43 45 48 47 46 47 48 48 49 49 49 47 45 43 40 40 42 43 47 47 46 44 45 46 48 48 49 50 51 52 53 53 53 53 51 54 55 54 54 54 53 52 52
51 51 51 52 50 42 44 43 48 42 41 44 48 45 44 44 46 47 47 47 46 45 44 42 41 42 42 43 45 45 45 45 45 45 45 48 50 51 52 52 51 53 53 53 53 50 53 53 53 53 53 52 52 51
50 48 51 47 45 44 43 43 43 46 44 42 46 45 44 46 49 45 42 45 43 40 40 42 42 43 47 47 47 47 47 47 47 48 47 47 50 51 51 52 52 52 51 52 52 51 51 52 52 53 52 52 52 52
45 52 48 48 43 47 43 46 43 48 47 48 46 48 44 42 40 39 41 39 39 40 41 41 41 43 44 45 46 48 50 50 50 50 48 49 50 50 50 51 51 50 51 51 51 51 51 52 53 54 53 52 51 52
51 49 45 49 44 40 42 51 44 45 42 41 43 41 39 38 40 41 38 40 39 43 43 42 43 45 47 46 48 50 51 50 50 51 51 51 52 52 51 51 51 50 50 50 51 51 50 48 50 52 52 53 53 52
53 47 44 43 41 35 47 43 44 41 39 39 38 35 38 41 40 37 36 38 43 45 45 47 47 47 48 48 48 49 50 51 51 51 52 52 50 51 51 51 52 51 51 51 52 52 52 51 49 52 53 54 53 53
39 38 40 29 41 42 41 39 37 36 34 37 34 34 37 40 36 35 34 39 43 45 46 48 48 48 47 47 48 49 52 51 50 50 51 50 50 49 48 48 48 48 49 49 49 51 50 49 50 51 51 51 50 50
30 40 36 39 37 40 40 36 35 36 37 38 39 40 41 38 36 34 39 43 44 45 48 48 48 48 48 49 48 49 50 50 50 49 50 52 52 50 48 47 47 49 52 52 51 52 52 51 51 53 52 55 50 55
33 38 41 43 42 40 37 37 40 39 38 38 39 39 39 35 34 39 45 47 47 49 50 51 50 50 49 49 50 51 51 51 51 52 52 53 56 59 57 55 54 54 56 57 56 55 55 55 56 59 57 57 59 57
39 39 35 36 38 40 39 40 39 39 41 45 43 39 39 38 39 44 46 49 51 52 52 52 52 51 51 51 51 52 52 52 53 54 54 54 53 55 54 53 53 48 53 54 56 57 60 61 61 60 59 55 54 55
37 40 40 38 40 41 41 41 43 46 48 47 43 41 42 46 48 48 49 50 50 51 49 49 51 52 53 53 54 55 55 53 51 52 51 49 49 52 53 53 53 53 54 55 47 52 57 57 57 57 57 55 55 55
41 44 41 43 41 41 45 47 48 50 50 49 50 48 48 48 50 52 51 50 50 51 52 53 55 54 54 54 56 58 57 56 57 55 52 52 53 56 55 56 57 56 55 56 55 54 50 54 53 56 55 55 57 57
48 46 44 45 43 46 48 50 51 52 52 50 52 51 49 49 52 54 54 55 54 54 54 55 57 58 57 56 56 53 52 55 57 58 58 56 56 56 56 58 60 59 57 58 59 61 59 56 60 59 59 56 53 51
49 47 47 45 44 48 50 48 48 48 50 50 50 52 52 51 49 52 55 57 54 55 56 57 56 56 59 59 57 54 50 53 54 54 55 54 55 56 57 56 56 59 59 59 58 61 61 57 56 56 54 54 54 53
51 51 51 49 47 47 50 48 47 47 48 49 50 52 52 50 50 56 59 61 59 58 57 58 59 56 56 57 55 52 49 49 45 42 43 43 45 49 53 54 56 58 57 56 57 57 56 56 55 55 54 54 53 53

GFSWCAN_sfc_temp_033.txt.gz
Temp
54 54 54 54 54 54 54 54 54 54 54 54 54 54 55 54 54 47 42 43 43 39 43 51 57 52 52 48 44 51 54 55 53 49 49 47 47 50 47 50 48 50 45 44 42 42 45 62 63 58 57 57 60 61
54 54 54 54 54 54 54 54 53 53 53 54 54 54 54 54 54 50 38 45 46 41 45 51 57 60 59 58 51 48 50 48 52 50 47 46 48 47 44 45 52 49 52 48 49 48 54 57 57 58 58 61 62 61
54 54 54 54 54 54 54 54 54 53 53 53 54 54 54 53 53 50 39 39 41 39 43 47 52 57 54 56 58 50 49 52 52 52 48 47 48 48 43 46 48 52 54 49 50 53 54 57 61 62 63 61 65 64
54 54 54 54 53 53 53 53 53 53 53 53 54 54 53 53 52 52 39 39 40 39 36 46 59 55 61 58 59 56 56 53 54 53 50 48 48 52 47 49 48 52 54 50 51 53 55 58 59 61 64 65 65 66
53 53 53 53 53 53 53 53 53 53 53 53 53 53 53 52 52 48 40 41 43 41 37 40 49 54 55 59 59 54 52 49 50 50 48 47 48 50 49 48 48 51 52 49 48 54 54 56 60 63 64 64 65 64
53 53 53 53 53 53 53 53 53 53 53 53 53 52 52 52 51 40 42 44 45 43 39 37 47 51 55 56 56 50 49 47 46 47 47 47 50 50 45 45 54 55 55 55 55 56 57 61 62 63 64 65 66 65
52 52 53 53 53 53 53 53 53 53 52 52 52 51 51 51 42 38 42 46 48 43 41 39 41 51 54 52 50 50 48 47 48 44 45 46 49 49 43 44 55 57 56 57 60 61 58 59 58 63 65 66 64 64
52 52 52 52 53 53 52 52 52 52 52 52 51 51 51 51 47 43 44 50 47 42 42 37 41 47 52 48 47 46 46 45 47 46 45 45 46 45 43 49 52 59 59 59 59 60 60 58 61 61 62 64 62 61
52 52 52 52 52 52 52 52 52 52 52 52 51 51 44 41 40 45 57 53 45 44 39 39 38 39 51 46 46 47 45 43 46 44 44 47 41 41 47 51 52 56 58 58 58 59 60 59 58 60 62 61 58 59
52 52 52 52 52 52 52 52 52 51 51 51 43 41 40 44 55 54 47 43 42 41 40 37 41 41 47 44 44 44 43 41 41 45 47 43 42 45 48 50 51 53 57 57 56 54 54 54 56 55 56 59 59 58
51 51 52 52 52 52 52 52 52 51 48 39 39 43 46 52 46 42 39 38 39 39 39 41 42 43 48 44 42 44 41 41 39 44 45 40 39 46 50 51 52 54 55 55 55 54 54 53 54 54 55 56 57 58
51 51 52 52 52 52 52 51 51 42 39 42 42 43 41 43 39 37 36 40 39 40 44 43 45 46 46 48 43 43 41 42 39 45 43 38 43 47 49 51 52 53 55 56 57 56 56 57 56 55 54 55 56 56
51 51 51 52 52 52 52 51 51 48 47 42 40 38 39 38 29 35 34 36 37 44 46 46 45 46 46 48 44 42 41 39 45 41 40 42 45 48 48 51 52 52 54 54 55 56 56 55 56 55 55 56 56 56
51 51 51 51 52 52 51 51 51 48 40 40 41 30 34 30 35 37 38 39 45 45 45 45 44 44 43 43 43 42 43 44 39 37 39 46 47 48 50 50 51 50 51 51 52 53 54 54 54 55 55 55 54 55
51 51 51 51 52 52 51 51 51 43 40 40 43 35 36 41 42 43 43 43 46 47 45 44 44 44 42 43 42 42 41 39 41 40 45 48 49 47 47 48 48 48 48 48 49 49 50 52 51 51 53 53 53 54
51 50 49 51 52 51 51 50 45 42 43 41 39 37 44 42 42 41 43 44 47 46 45 45 47 41 41 41 41 41 41 39 39 42 43 44 45 46 45 46 46 47 47 47 48 48 49 49 49 49 50 50 52 53
50 46 51 51 51 51 50 44 42 41 41 42 40 42 41 40 41 43 44 45 47 47 42 45 41 40 42 40 39 41 40 42 43 45 45 45 44 44 45 45 47 47 47 47 49 51 53 54 55 52 49 50 50 50
46 49 51 51 48 48 45 43 42 43 40 41 40 41 42 43 44 44 44 46 45 43 43 42 43 40 38 39 39 41 42 44 46 47 44 44 45 45 46 46 47 48 49 52 53 52 49 49 48 48 51 53 53 51
49 49 51 51 48 44 41 42 43 38 40 42 41 42 45 45 46 45 45 45 44 44 44 42 41 37 38 40 41 44 47 47 45 43 44 46 47 47 49 51 52 52 53 53 52 50 53 54 54 54 53 52 50 51
51 51 51 52 50 43 42 40 43 39 38 40 43 43 44 44 45 44 43 43 42 42 41 39 39 40 41 42 43 43 44 44 43 45 44 47 50 51 51 51 51 52 52 53 53 50 53 52 52 52 52 52 51 50
48 49 51 47 43 42 41 39 39 40 41 40 44 43 45 45 46 41 39 40 41 37 38 40 41 43 45 44 45 45 45 45 47 47 47 47 50 50 51 51 52 52 51 51 51 50 50 51 51 52 52 51 51 51
43 52 42 45 42 43 42 42 41 44 41 41 41 44 41 42 39 38 38 38 38 39 39 39 40 41 42 43 45 45 47 48 50 50 47 48 49 50 50 50 50 50 50 50 51 50 50 51 52 52 51 51 50 51
50 49 45 46 40 38 41 48 44 44 40 42 39 38 36 36 38 39 35 36 37 39 40 40 41 43 45 47 46 47 50 50 50 50 50 50 51 51 50 50 51 50 50 50 51 50 48 47 48 51 51 52 52 52
51 43 41 39 38 34 44 40 40 37 38 37 36 34 36 38 38 36 35 36 41 44 45 46 47 46 47 47 48 48 50 51 50 51 50 50 49 49 50 50 50 50 50 48 51 50 50 50 48 50 51 52 54 52
36 36 37 28 39 40 39 36 34 34 32 34 34 34 37 36 36 35 34 39 42 45 46 47 47 47 47 47 48 49 51 51 49 47 48 49 47 46 46 46 46 46 50 52 49 48 47 48 48 49 49 49 49 49
27 37 34 36 34 36 34 33 31 33 35 34 35 37 40 38 35 34 38 42 44 45 48 48 47 47 47 48 48 48 50 51 49 48 48 49 48 47 46 46 46 48 49 49 50 50 50 49 49 52 52 53 46 50
29 35 40 39 38 37 34 35 39 38 38 37 39 38 38 34 34 38 43 46 46 48 50 50 50 49 49 48 49 50 50 50 50 52 54 55 56 56 55 53 49 51 52 53 52 52 51 52 54 56 56 55 52 52
38 38 37 39 35 38 38 39 38 38 40 43 42 38 38 38 39 43 44 49 51 51 52 52 52 51 50 49 49 49 50 50 50 50 48 49 49 50 51 51 51 46 50 52 54 57 58 57 54 54 56 52 53 53
37 40 39 38 39 39 40 41 42 44 47 45 42 40 42 45 47 48 49 50 51 50 49 50 51 50 50 50 50 50 50 49 49 47 46 47 47 50 49 49 50 50 51 52 46 50 57 57 57 57 55 52 52 51
40 42 40 41 40 40 44 45 46 49 49 48 48 47 47 47 49 50 49 49 49 50 50 50 51 50 50 50 51 53 51 49 53 54 49 49 50 52 51 52 52 51 51 52 53 53 49 52 50 53 52 51 50 50
45 43 42 43 43 46 48 50 50 51 51 49 51 49 48 47 50 51 51 52 51 51 51 52 54 55 54 56 54 51 50 50 51 54 55 53 53 53 54 54 54 53 53 54 55 56 57 57 55 57 57 54 49 48
45 44 45 43 44 48 50 48 48 48 50 50 49 50 50 49 48 52 54 52 50 50 50 51 51 52 53 52 55 54 47 50 52 53 54 52 52 52 53 53 54 55 55 55 54 55 56 57 52 52 52 52 51 50
49 49 49 47 46 45 48 46 46 46 47 47 48 49 49 48 46 53 54 57 56 57 54 54 55 54 54 53 54 51 47 49 45 42 43 45 46 47 51 52 54 55 56 54 54 54 53 53 52 51 51 51 50 49

GFSWCAN_sfc_temp_036.txt.gz
Temp
54 54 54 54 54 54 54 54 54 53 54 54 54 54 54 54 54 44 40 41 41 36 41 49 55 52 51 46 45 51 52 53 52 47 46 45 47 49 48 47 46 49 48 47 45 43 45 58 61 57 58 57 60 61
54 54 54 54 54 54 54 54 53 53 53 54 54 54 54 54 53 48 38 42 43 39 43 47 54 59 58 56 50 48 50 50 51 48 45 45 46 45 42 44 50 48 50 48 50 49 53 56 56 59 58 60 61 61
54 54 54 54 54 54 54 54 54 53 53 53 54 54 54 53 53 49 38 37 39 38 41 44 50 55 53 54 57 50 50 52 53 53 47 45 45 45 43 44 46 51 51 49 49 52 54 56 58 61 62 62 65 65
54 54 54 53 53 53 53 53 53 53 53 53 53 53 53 53 52 51 39 38 39 37 35 45 56 52 58 54 56 56 56 52 50 51 47 45 46 48 44 47 47 51 51 50 52 53 55 58 59 60 62 65 65 66
53 53 53 53 53 53 53 53 53 53 53 53 53 53 53 52 52 45 39 39 41 40 36 39 47 52 54 55 57 52 52 49 49 49 49 49 46 48 45 46 48 51 51 48 48 53 53 55 59 62 63 64 65 64
53 53 53 53 53 53 54 53 53 53 53 53 52 52 52 52 50 40 41 42 43 42 37 36 45 48 52 54 54 51 49 47 45 46 46 45 47 49 45 44 53 54 54 54 54 56 56 61 62 64 64 66 67 65
53 53 53 53 53 53 53 53 53 52 52 52 52 51 51 51 40 39 41 44 45 42 39 37 40 48 51 48 49 49 46 46 47 43 43 43 46 46 43 44 54 57 57 58 58 59 58 61 60 64 66 66 64 64
52 52 52 52 53 53 53 52 52 52 52 52 51 51 51 51 47 41 44 49 46 40 40 36 39 45 48 46 45 44 45 45 46 44 43 43 43 42 42 49 51 56 58 59 60 60 59 59 61 62 63 63 62 61
52 52 52 52 52 52 52 52 52 52 51 51 51 51 43 41 40 44 55 51 43 43 38 37 36 39 49 43 43 44 43 42 44 43 43 46 39 40 44 46 50 54 56 57 57 58 59 58 58 61 62 62 60 59
52 52 52 52 52 52 52 52 52 51 51 50 43 41 39 43 54 53 44 41 41 40 38 35 38 39 44 42 42 43 41 40 40 43 45 42 40 43 46 47 47 50 53 56 54 53 54 54 57 58 58 59 59 58
52 52 52 52 52 52 52 52 51 50 48 40 38 40 46 50 44 41 38 37 37 36 37 38 38 40 46 42 41 42 40 40 38 42 43 38 39 44 48 49 50 51 53 53 54 53 54 54 54 54 55 56 57 58
51 51 51 52 52 52 52 51 50 42 39 41 40 41 40 41 38 36 34 37 37 37 41 40 41 43 43 45 42 41 41 41 38 43 42 37 42 46 47 50 50 51 54 54 55 55 56 56 56 55 55 56 56 56
51 51 51 52 52 52 52 51 50 49 46 41 39 37 38 36 28 32 33 34 35 40 43 43 43 44 45 46 42 41 41 39 44 40 40 43 45 47 47 49 51 52 52 53 54 55 56 56 57 56 55 56 56 56
51 51 51 51 51 52 51 51 51 47 40 39 37 27 33 30 33 35 36 37 42 43 43 43 42 43 44 44 44 41 42 43 39 36 38 46 49 50 48 49 49 49 50 50 50 52 52 52 53 55 55 55 54 54
50 51 51 51 52 51 51 51 50 41 41 38 43 35 34 39 38 39 40 40 44 46 45 45 44 43 42 43 41 42 40 38 39 38 46 48 50 49 47 47 47 47 47 47 49 49 50 51 51 51 53 53 53 54
51 51 49 51 51 51 51 50 45 41 41 39 39 35 40 38 38 39 39 40 44 46 45 45 43 42 40 40 41 40 40 38 39 41 44 45 46 46 45 46 46 47 47 47 47 48 49 49 51 51 51 51 52 52
50 46 51 51 51 50 50 44 43 41 40 41 36 39 38 37 37 40 41 42 46 44 42 43 41 40 42 39 38 40 39 40 43 44 45 45 44 44 45 45 46 47 47 47 48 51 50 53 55 53 51 51 51 51
45 49 51 50 47 48 44 43 42 40 37 39 36 38 39 41 40 42 43 45 44 42 44 43 42 39 38 38 38 40 41 43 43 44 44 44 44 45 45 46 49 50 51 52 53 53 53 51 52 51 52 53 52 52
49 50 51 51 48 44 40 40 42 36 39 40 39 38 41 42 44 46 44 43 42 43 43 41 40 37 38 39 40 41 43 44 43 43 43 45 45 46 50 51 52 52 52 53 53 52 53 53 53 53 52 52 51 51
51 51 52 52 50 41 41 40 41 38 37 39 39 40 40 41 45 43 41 40 40 41 41 39 39 40 40 41 42 43 43 43 43 44 44 45 48 50 51 51 51 52 52 53 52 49 52 52 52 52 52 51 51 50
48 49 51 47 45 42 40 38 39 40 39 38 41 40 42 43 41 39 38 38 40 37 38 40 40 41 42 42 43 44 44 44 46 47 47 47 50 50 51 51 52 52 51 51 51 50 50 50 51 52 52 51 51 51
45 51 44 46 41 43 41 42 40 40 39 41 42 42 42 41 39 39 37 37 37 38 39 39 40 41 42 43 43 44 45 46 48 49 47 48 49 50 50 50 50 50 50 50 50 50 50 50 51 52 52 51 50 50
49 48 45 45 39 35 39 42 40 40 38 38 38 37 35 35 36 37 35 35 37 38 39 40 41 42 42 46 47 46 47 49 49 50 50 51 51 50 50 50 51 50 50 50 50 49 49 47 49 51 52 52 52 51
50 42 39 37 37 35 44 39 40 36 36 35 35 33 34 35 36 35 33 36 36 40 41 44 47 46 47 47 47 48 50 51 50 49 50 50 49 49 50 49 50 50 49 49 50 50 50 50 47 51 51 52 52 51
34 34 35 26 36 38 36 34 34 33 32 34 34 34 38 35 34 35 34 39 42 44 46 47 47 47 46 47 48 49 51 51 49 48 47 49 48 48 48 47 48 49 53 51 49 50 50 50 51 52 53 53 52 51
26 35 33 35 32 35 32 32 30 33 33 33 34 35 36 36 35 34 38 42 44 45 47 48 47 47 47 48 48 49 50 50 50 48 48 49 49 49 48 48 49 50 52 52 52 52 53 53 54 54 55 54 46 54
27 33 38 37 36 35 33 34 36 35 38 33 37 37 38 34 34 39 43 46 46 48 50 50 50 49 49 49 50 50 51 52 53 53 54 54 53 53 52 52 51 52 54 54 53 54 53 53 54 55 55 56 55 55
37 38 34 36 34 34 38 38 38 37 39 42 41 38 38 38 38 43 45 49 50 51 52 52 52 52 51 51 51 51 51 50 51 51 51 52 51 53 53 53 52 44 51 53 55 56 56 56 57 58 57 56 54 55
36 40 39 38 39 39 39 40 42 44 46 44 41 40 42 45 47 47 49 51 51 51 50 50 51 52 51 51 51 51 50 51 53 51 50 49 51 54 52 52 53 53 53 54 44 49 56 56 58 58 59 56 56 55
40 42 38 41 40 39 44 45 44 48 49 47 48 47 47 48 50 51 50 50 51 51 52 52 51 51 51 51 52 53 52 52 52 54 51 51 53 55 54 55 55 56 54 56 56 57 48 55 52 57 56 56 55 55
44 42 41 42 42 45 48 49 50 50 49 48 49 48 47 48 52 52 52 53 52 51 50 51 52 52 52 53 52 52 52 52 52 54 55 55 55 55 55 55 55 55 55 56 57 59 59 58 58 58 58 56 54 52
44 43 44 43 43 48 49 48 47 48 49 49 48 50 50 50 50 52 54 52 51 51 51 51 52 52 54 53 52 53 47 52 53 53 55 55 55 56 56 56 56 56 57 58 57 57 59 58 56 56 56 55 54 54
46 48 49 48 46 45 48 48 47 47 48 48 49 50 51 50 48 52 54 55 56 57 55 54 54 54 54 53 53 52 48 50 45 43 45 45 45 48 54 56 56 58 59 58 57 58 57 57 56 55 55 55 55 55

GFSWCAN_sfc_temp_039.txt.gz
Temp
54 54 54 54 55 54 54 54 54 53 53 54 54 55 55 54 54 50 52 50 52 52 56 56 60 59 59 56 52 58 60 61 61 59 62 61 61 61 62 59 60 62 61 62 60 60 58 66 70 69 67 70 70 72
54 54 54 54 54 54 54 54 53 53 53 53 54 54 54 54 53 50 52 52 51 52 56 55 61 63 62 62 57 57 56 56 58 60 59 60 61 61 55 58 62 60 62 64 63 65 62 64 64 67 67 68 70 73
54 54 54 54 54 54 54 54 53 53 53 53 54 54 54 53 53 51 48 48 51 52 57 57 63 63 62 61 67 56 58 58 59 59 61 61 56 61 61 60 60 62 62 64 60 62 63 64 66 67 70 70 73 75
54 54 54 54 53 53 53 54 53 53 53 53 53 53 53 53 52 52 48 50 50 50 51 59 64 63 65 63 63 64 62 59 60 60 60 61 61 60 61 61 63 65 63 59 60 63 64 66 67 68 70 72 72 74
54 54 53 53 53 53 53 53 53 53 53 53 53 53 53 52 52 50 49 51 51 50 51 55 60 64 66 64 64 63 61 60 60 61 60 59 62 61 61 62 64 66 63 63 63 64 64 65 66 68 70 72 73 72
53 53 53 53 53 53 53 53 53 53 53 53 52 52 52 52 50 52 52 53 54 53 51 52 59 59 64 65 63 61 60 58 59 59 59 60 58 60 61 60 64 65 66 68 66 66 65 68 68 69 72 73 73 73
53 53 53 53 53 53 53 53 53 53 52 52 52 51 51 51 50 52 52 52 50 53 52 51 55 62 61 63 62 62 59 59 60 57 58 58 60 61 62 60 66 68 68 68 68 68 67 68 68 70 72 71 70 70
52 53 53 53 53 53 53 52 52 52 52 52 52 51 51 50 50 52 57 53 52 51 53 49 53 58 61 62 61 58 60 60 58 58 57 59 59 60 58 61 62 65 68 68 68 68 68 71 71 71 72 72 70 70
52 52 52 52 52 52 52 52 52 52 51 51 51 50 50 50 52 54 54 52 54 53 50 50 49 50 61 59 59 59 58 56 57 57 58 57 55 55 56 55 59 63 64 64 68 66 67 68 69 70 71 71 71 70
51 51 52 52 52 52 52 52 52 51 51 50 50 50 48 52 54 56 52 52 52 52 51 49 52 50 57 57 57 57 58 56 52 56 58 55 56 55 58 58 58 59 61 66 65 64 65 66 66 66 67 69 70 70
52 52 52 52 52 52 52 52 51 50 49 49 47 47 51 51 54 52 47 47 48 47 50 52 52 54 58 53 52 55 54 55 50 53 54 52 53 55 57 59 60 62 64 64 65 66 67 66 65 65 66 66 68 67
52 52 52 52 52 52 52 51 50 49 48 48 48 48 49 51 48 44 44 47 45 47 52 52 54 55 56 55 53 52 51 52 48 55 51 48 51 54 56 58 59 62 63 63 64 64 65 65 65 66 66 66 66 67
52 51 51 52 52 52 52 51 50 50 48 49 47 46 47 45 35 39 39 44 45 51 52 54 51 56 53 54 51 51 48 50 55 50 50 50 53 55 56 58 59 61 62 62 62 63 64 64 65 65 64 66 66 66
51 51 51 51 52 52 51 51 50 50 49 46 43 33 40 39 43 45 47 49 54 51 52 52 52 51 52 51 50 48 53 53 47 45 46 49 52 54 56 58 59 58 59 60 60 61 61 61 62 63 64 65 64 63
50 51 51 51 51 51 51 51 50 51 48 44 44 37 41 49 50 50 50 48 52 53 52 50 50 50 49 49 49 50 47 46 48 47 49 51 52 52 52 56 57 57 58 58 59 59 59 60 59 60 63 63 63 63
51 50 49 51 51 51 51 50 50 49 47 46 45 44 48 46 48 51 50 49 53 53 51 50 49 48 48 48 47 46 46 46 48 52 56 56 55 55 55 57 56 56 56 57 58 58 58 59 59 60 62 62 63 62
51 46 51 51 51 50 50 49 48 45 46 44 46 50 49 47 47 49 50 52 53 51 49 50 46 47 50 48 47 50 48 50 54 56 58 55 54 54 55 55 55 55 55 56 56 57 58 59 60 58 54 56 58 58
47 50 51 50 51 50 49 48 47 45 41 47 46 50 50 50 50 51 52 52 50 51 50 52 54 48 47 45 48 52 54 56 58 57 57 56 54 54 54 54 54 53 54 55 55 55 56 55 55 55 55 55 55 55
49 49 51 51 51 49 45 45 47 42 45 49 50 50 49 50 52 52 52 52 53 54 55 53 49 49 51 52 53 54 56 57 57 56 55 54 54 54 54 52 53 53 54 54 55 54 54 54 54 54 54 55 54 54
50 51 52 52 52 48 44 44 48 43 44 48 48 47 48 50 51 52 54 53 54 55 52 51 53 53 53 54 55 56 56 55 53 51 53 54 55 55 52 52 52 53 53 53 54 50 54 54 54 53 53 52 52 52
51 51 52 52 50 48 45 45 45 47 48 47 49 49 50 52 52 52 52 51 55 51 52 53 53 54 53 54 55 55 54 52 51 49 49 49 53 50 51 54 53 52 52 52 52 52 50 52 52 53 53 54 54 53
50 51 51 50 45 46 44 48 46 48 48 49 48 49 49 48 49 49 46 51 52 52 52 53 53 54 54 52 53 52 52 52 52 51 47 48 48 51 51 52 52 51 51 51 52 51 51 52 54 55 56 53 51 54
50 50 46 46 42 40 43 51 46 47 45 46 48 47 46 47 47 49 47 47 48 50 51 52 51 51 50 52 52 52 52 52 50 50 51 51 54 54 53 52 52 51 50 49 54 56 54 48 51 52 53 53 55 60
50 45 42 41 40 40 49 46 47 46 46 45 45 42 43 44 46 45 41 45 47 48 48 49 51 50 50 50 49 51 51 51 51 52 52 50 50 50 51 50 56 60 61 61 61 61 61 61 51 57 56 56 58 61
39 39 41 34 43 41 41 41 41 43 39 41 41 41 41 43 41 39 38 44 47 49 50 49 50 48 48 49 49 50 52 51 53 51 51 53 52 52 56 60 61 62 64 63 62 63 63 64 65 65 64 63 62 61
33 41 38 42 42 42 41 38 38 40 41 40 41 44 43 43 37 36 43 47 47 48 50 51 48 50 48 49 49 50 52 55 58 57 56 60 63 64 61 61 61 61 65 66 65 64 63 64 64 62 63 62 48 62
34 39 44 46 46 44 42 43 44 43 40 39 43 41 41 36 35 42 47 49 48 51 52 53 51 49 49 50 52 55 58 59 61 61 63 64 66 66 66 64 62 65 67 65 64 63 61 60 61 61 61 65 66 65
41 42 39 43 43 44 41 42 41 40 43 46 45 40 38 39 41 47 49 50 50 51 53 52 52 52 54 56 58 59 59 59 58 60 63 64 65 66 65 67 66 44 62 65 65 65 65 63 63 63 63 66 66 66
39 42 44 41 43 44 43 43 45 46 49 48 42 42 44 48 50 50 50 51 52 52 51 51 53 56 58 60 61 63 64 65 63 60 60 61 64 66 66 67 67 67 68 68 44 52 64 66 68 68 65 69 68 68
40 44 41 42 41 41 46 48 47 48 49 48 48 47 48 49 50 52 51 51 51 51 55 60 61 62 63 63 64 64 65 64 66 66 63 63 66 69 68 68 69 70 69 69 70 68 46 61 56 64 63 67 68 66
44 42 41 42 42 45 48 50 51 50 49 48 49 47 47 48 50 52 52 55 58 60 60 61 63 63 63 63 64 65 67 67 66 65 66 70 71 70 70 69 70 70 69 69 69 69 69 67 67 67 66 65 64 61
43 42 42 42 44 48 49 47 47 47 48 47 47 50 51 53 52 58 63 61 60 59 57 60 62 64 65 66 66 64 48 65 64 65 64 66 68 69 70 70 70 68 67 68 68 67 67 66 67 67 66 63 62 62
46 47 48 47 46 47 49 49 50 49 52 53 54 56 57 56 54 62 64 64 65 65 65 64 65 65 63 63 64 63 54 61 48 40 44 45 45 52 66 70 69 69 68 69 69 68 66 64 65 63 63 63 62 62

GFSWCAN_sfc_temp_042.txt.gz
Temp
54 55 55 55 55 55 54 54 54 53 53 54 54 55 55 54 54 59 64 62 62 65 69 67 69 67 70 71 65 68 67 68 74 68 69 72 70 72 71 68 69 71 70 71 73 68 63 77 79 75 73 78 81 82
54 54 54 54 55 54 54 54 54 53 53 54 54 54 54 54 54 55 67 67 65 60 68 68 71 72 70 71 67 69 64 61 65 68 71 70 70 70 68 65 71 67 70 72 70 70 71 76 74 75 76 75 78 81
54 54 54 54 54 54 54 54 54 53 53 53 54 54 54 53 53 53 62 62 64 63 69 70 71 72 75 73 77 66 69 63 65 66 68 68 63 71 68 70 70 71 73 76 71 73 74 73 76 76 77 77 80 82
54 54 54 54 54 54 54 54 54 53 53 53 53 54 53 53 52 52 63 64 62 64 62 67 76 72 74 76 72 73 67 65 64 67 68 68 67 71 72 70 72 75 73 70 71 73 73 74 75 76 77 79 80 82
54 53 53 53 53 54 54 54 53 53 53 53 53 53 53 52 52 58 66 67 66 59 61 69 73 73 77 73 72 72 68 62 64 64 66 65 69 70 76 75 75 79 72 72 72 71 73 73 74 76 78 78 80 79
53 53 53 53 53 54 54 53 53 53 53 53 53 52 52 52 52 63 61 65 69 64 61 64 72 70 73 73 72 70 71 67 67 63 65 68 66 66 68 69 72 75 75 77 73 75 73 75 75 76 78 79 80 80
53 53 53 53 53 53 53 53 53 53 53 53 52 52 52 51 57 60 59 60 54 64 61 63 67 71 71 72 76 76 71 71 69 65 66 68 70 66 70 66 73 75 76 75 76 76 73 75 74 77 79 78 76 80
53 53 53 53 53 53 53 53 53 53 52 52 52 52 51 51 52 59 65 55 57 61 63 59 65 66 71 70 68 75 72 72 68 68 68 67 70 71 64 69 70 72 73 74 75 77 77 79 79 77 78 79 76 76
52 52 53 53 53 53 53 53 53 52 52 52 52 52 57 57 61 62 53 54 65 61 59 63 61 60 72 72 73 70 71 64 70 66 67 67 66 61 64 64 67 69 68 70 74 75 76 76 76 77 77 75 68 71
51 51 52 52 52 52 52 52 52 52 51 51 55 57 56 61 52 55 57 59 61 63 62 60 69 62 69 68 66 68 69 66 60 66 70 63 64 66 67 67 67 68 70 72 70 71 73 73 73 74 74 76 77 77
51 51 52 52 52 52 52 52 52 50 48 58 57 58 62 53 61 61 55 55 59 55 62 65 64 64 70 61 63 69 63 67 57 61 61 61 61 63 64 66 69 71 72 73 72 73 74 74 74 74 73 74 75 74
51 51 52 52 52 52 52 52 51 54 60 55 57 57 62 59 57 51 52 57 54 56 62 61 65 66 68 69 59 63 58 63 52 65 60 57 58 62 65 66 67 70 70 70 71 71 72 72 73 73 74 74 74 74
51 52 52 52 52 52 52 51 51 51 52 59 56 53 55 52 39 45 45 52 54 59 63 63 60 66 65 63 61 59 53 55 67 56 57 57 58 62 64 67 66 69 69 70 70 71 72 71 73 72 72 74 74 73
51 51 51 52 52 52 51 51 51 52 55 54 49 36 46 45 51 56 59 60 61 64 65 62 64 61 63 56 61 52 62 62 52 50 51 58 60 61 64 66 67 66 67 68 68 69 69 70 70 71 72 72 71 70
51 51 51 52 52 52 51 51 51 58 56 50 51 40 48 59 61 64 65 62 64 66 64 60 61 62 60 57 59 58 52 50 55 54 58 61 60 59 57 58 62 65 66 66 67 68 68 68 67 68 70 71 70 70
51 51 50 51 51 51 51 51 55 60 57 53 52 51 57 56 58 60 62 62 68 67 66 63 58 56 55 59 53 52 51 50 53 60 62 58 56 58 60 63 65 64 64 64 66 66 66 67 66 66 69 69 68 67
50 48 51 51 50 50 51 57 57 52 55 50 53 59 60 60 61 63 64 64 66 63 54 59 52 52 62 54 52 58 54 57 60 60 61 61 61 61 62 63 63 61 59 59 59 60 62 64 65 65 62 61 62 60
48 51 51 51 53 52 53 54 55 53 48 55 53 57 61 63 61 60 64 66 62 64 59 57 65 54 52 50 56 59 61 64 65 65 65 63 63 62 63 59 57 58 59 57 58 59 60 60 59 58 61 60 60 61
51 51 51 52 56 57 52 50 53 49 54 60 60 62 63 64 64 64 66 66 65 66 63 63 57 58 59 61 61 60 62 62 61 64 66 63 62 61 59 60 54 55 55 55 57 56 55 57 57 57 58 59 59 59
50 51 52 53 53 55 49 51 57 52 52 57 61 59 59 57 61 66 66 66 66 64 60 59 62 61 60 63 65 65 64 65 65 63 65 67 63 61 57 54 56 56 55 56 57 50 59 57 57 58 58 57 57 58
54 54 54 57 59 58 54 54 53 56 59 54 58 58 56 58 59 61 64 65 62 62 60 65 64 64 62 64 66 66 65 64 62 61 59 58 58 54 52 53 56 56 54 52 56 52 52 53 56 61 62 58 59 57
54 52 59 58 55 52 49 57 54 58 54 56 55 59 55 53 58 60 61 59 61 65 65 65 65 66 63 61 63 61 60 59 59 57 50 51 50 51 52 53 54 53 52 54 56 54 53 54 57 59 55 61 64 66
54 55 53 53 48 45 46 59 50 55 50 53 58 53 55 58 59 62 57 61 62 63 64 64 61 60 59 59 58 57 58 58 56 55 53 52 53 54 55 53 53 52 51 56 63 65 62 50 55 62 61 66 71 70
51 51 46 45 48 45 56 51 57 56 56 54 53 49 52 56 58 57 50 59 62 63 61 58 60 58 55 54 53 55 56 55 53 52 53 51 50 51 54 60 65 68 69 70 69 68 67 64 56 66 71 70 70 69
42 42 45 34 52 48 46 48 48 51 46 49 48 49 52 54 51 45 41 57 61 61 61 60 58 53 49 53 53 51 53 53 54 51 53 55 54 54 57 69 69 70 72 70 68 69 69 72 72 71 70 69 68 67
35 46 39 48 49 47 49 43 44 46 49 47 49 53 53 52 43 37 53 58 57 57 58 55 51 50 54 50 50 51 53 59 61 59 64 69 67 66 66 66 66 68 75 75 71 71 71 73 71 69 71 65 49 66
37 44 53 58 56 54 51 53 55 52 46 45 51 48 45 41 39 52 59 59 59 59 59 57 56 52 50 51 52 60 64 67 68 67 70 74 75 75 73 66 66 71 76 76 75 71 69 70 68 68 70 72 71 72
47 49 44 50 51 55 47 50 47 46 50 56 52 45 44 44 47 55 54 59 54 53 57 53 53 53 53 56 65 66 67 68 68 70 74 74 75 77 74 77 75 44 71 75 74 74 72 71 72 70 70 71 73 74
45 51 53 46 49 51 50 48 51 55 59 56 48 47 48 54 54 54 53 53 54 55 52 52 54 58 62 65 67 68 71 72 68 64 63 62 69 71 75 76 75 75 77 75 43 53 68 72 73 73 72 75 76 75
42 48 47 46 44 46 55 58 51 50 50 49 51 49 49 50 51 53 52 52 51 52 56 61 65 63 67 70 70 71 74 74 73 73 70 68 73 76 75 75 75 77 78 78 78 74 46 63 60 72 71 73 73 72
45 47 43 43 43 52 54 54 54 54 50 48 49 47 47 49 51 53 53 55 61 64 64 66 68 70 71 72 71 70 70 76 76 74 76 79 77 76 76 77 78 78 77 76 76 75 73 72 73 72 72 70 68 66
44 42 42 41 44 48 50 48 48 47 48 47 47 49 49 52 53 59 64 64 65 65 62 65 70 72 73 74 76 76 47 76 76 76 73 75 77 78 79 78 78 77 75 75 75 75 73 72 72 71 71 68 67 67
46 46 46 46 45 45 48 48 47 47 52 55 56 59 61 61 57 65 72 72 69 70 71 73 73 74 71 70 72 71 61 70 53 40 44 43 43 56 72 80 78 77 76 75 74 74 71 69 70 67 67 66 66 66

GFSWCAN_sfc_temp_045.txt.gz
Temp
54 54 55 55 55 55 55 55 55 55 55 55 55 55 55 55 55 59 72 72 70 72 76 75 76 71 75 75 70 73 75 76 78 71 73 73 72 76 75 71 72 73 71 72 75 68 60 85 84 77 78 84 88 87
54 54 54 55 55 55 55 55 55 54 55 54 55 55 55 55 54 55 73 77 75 69 73 77 78 79 76 75 72 75 71 70 73 73 74 75 70 76 71 68 77 71 73 68 70 66 75 81 78 81 83 83 86 85
54 54 54 55 55 55 55 55 55 54 54 54 54 55 55 54 54 54 70 71 73 71 76 77 76 79 84 82 85 70 76 71 73 74 74 72 58 75 67 72 75 76 79 79 73 77 77 81 82 84 84 84 87 88
54 54 54 54 54 54 54 55 54 54 54 54 54 54 54 54 53 53 70 72 72 71 67 72 83 77 82 84 80 80 75 76 74 77 75 71 65 77 69 72 76 78 79 76 75 78 80 80 81 82 83 84 86 87
54 54 54 54 54 54 54 54 54 54 54 54 54 54 54 53 53 59 72 74 74 66 66 73 79 81 84 80 78 79 77 72 76 73 71 68 68 71 77 79 76 83 75 75 66 77 78 76 79 82 82 83 85 85
54 54 54 54 54 54 54 54 54 54 54 54 54 54 53 53 53 66 64 73 76 72 66 68 78 75 79 79 77 76 79 77 77 73 70 72 74 67 66 66 75 82 82 83 77 80 79 80 80 83 82 85 85 85
54 53 53 53 54 54 54 54 54 54 54 54 53 53 52 52 60 63 60 63 57 70 67 68 70 77 78 78 79 79 77 80 77 76 68 66 64 69 66 62 69 77 81 79 81 81 77 80 77 81 81 82 80 85
53 53 53 53 54 54 53 53 53 53 53 53 53 52 52 52 54 62 67 57 58 68 71 64 70 71 78 73 72 80 75 76 74 74 69 66 65 64 59 65 72 60 76 78 79 82 81 80 77 79 80 77 67 66
53 53 53 53 53 53 53 53 53 53 53 53 53 52 60 61 67 66 56 55 69 67 64 69 65 61 78 74 79 77 76 68 76 69 67 68 61 56 67 68 70 72 71 73 75 77 79 79 74 76 78 73 66 68
53 52 52 52 52 53 53 53 53 52 52 53 57 63 62 68 53 57 62 64 64 68 68 64 76 68 76 72 70 71 74 68 64 70 74 63 64 73 74 72 72 73 74 75 73 73 76 77 78 79 77 80 68 73
51 51 52 52 52 53 53 53 52 51 49 60 62 66 67 55 66 66 60 59 64 60 68 69 71 68 77 65 64 68 65 64 60 66 65 63 63 68 71 70 73 75 77 78 76 78 79 78 77 78 78 79 80 78
50 51 51 51 52 52 52 52 52 55 65 58 62 63 70 65 63 55 55 62 60 60 68 66 69 72 73 75 69 67 63 63 56 64 64 59 59 68 71 71 71 74 75 74 76 75 76 76 77 77 78 78 79 79
51 51 51 52 52 52 52 52 52 52 54 65 62 60 63 59 43 48 48 56 59 65 67 67 65 70 71 72 67 63 55 57 69 58 59 58 63 68 68 71 71 73 73 73 74 75 76 75 77 74 75 77 77 77
51 51 51 51 52 52 52 51 52 54 59 60 54 37 51 50 56 60 62 66 67 72 68 70 70 66 71 62 64 54 64 64 52 54 56 61 61 62 65 68 68 69 71 72 72 73 73 73 74 75 77 77 75 74
51 51 52 51 52 52 52 51 52 59 62 56 58 42 53 63 68 72 71 69 69 74 70 68 68 70 64 61 64 61 53 52 55 54 57 59 61 62 65 67 68 69 70 70 72 72 72 73 72 72 74 75 75 74
50 51 51 52 52 52 51 52 57 64 63 58 57 56 64 60 63 66 67 67 72 72 71 69 63 61 59 61 56 55 54 52 54 57 60 63 63 64 65 68 68 68 68 68 69 69 69 71 71 70 72 73 70 67
50 48 51 52 51 51 52 60 62 57 59 55 57 64 65 65 64 68 71 71 73 66 57 64 54 55 64 58 55 64 57 57 59 58 61 63 64 65 66 67 67 65 64 63 63 63 65 68 71 69 66 65 68 68
50 50 51 50 52 53 60 61 61 59 53 60 58 62 65 64 65 69 71 72 69 65 63 59 66 57 55 53 55 65 65 66 67 64 65 66 66 66 67 64 62 63 62 63 65 64 66 64 63 62 65 65 67 64
51 52 51 51 55 56 56 58 61 54 59 64 66 68 67 67 69 69 71 71 71 73 69 66 60 56 55 65 63 61 62 62 61 64 68 67 67 65 63 61 64 63 59 59 61 63 66 63 65 66 66 65 65 64
51 51 52 53 54 55 51 58 64 55 56 62 66 64 66 63 66 69 70 70 69 68 63 60 60 57 66 68 68 66 67 70 69 68 68 66 68 65 63 63 60 59 60 57 59 54 60 62 62 66 64 61 61 63
54 55 54 56 59 56 55 59 58 60 60 63 67 66 61 60 59 65 63 73 66 61 59 63 66 66 67 68 71 70 69 68 66 66 65 65 66 63 60 57 57 58 57 54 58 54 59 60 60 61 63 66 69 61
59 54 62 61 57 56 55 63 57 64 61 59 58 61 56 54 57 59 70 64 65 64 70 68 68 67 67 65 67 66 65 64 65 64 52 56 58 55 54 53 55 55 56 57 59 59 61 64 63 59 59 67 62 71
52 58 59 58 51 49 48 62 53 57 51 55 60 55 58 59 62 69 62 67 66 68 70 70 66 65 64 65 63 63 63 61 63 65 58 56 54 54 54 54 54 53 53 60 63 64 61 53 61 63 70 67 66 70
49 54 50 49 53 47 58 52 59 57 57 54 54 52 57 59 66 62 56 66 68 69 67 63 66 66 66 60 60 60 56 59 57 58 57 53 53 52 58 60 62 62 62 66 66 69 68 68 61 70 73 74 74 73
45 45 48 35 56 52 49 52 53 57 50 54 53 54 58 63 59 49 48 61 67 68 68 66 65 64 63 61 57 53 55 54 54 52 54 59 53 57 61 60 66 71 74 73 71 71 70 70 68 70 72 72 71 71
36 50 41 52 53 51 53 48 49 51 55 52 55 61 62 59 49 40 59 57 60 62 61 60 58 62 56 59 51 52 54 54 58 62 65 68 62 63 64 64 69 72 77 75 72 70 71 72 68 70 69 67 54 69
39 47 54 62 61 60 59 61 61 59 51 51 57 55 55 47 43 57 62 65 62 59 59 58 58 59 59 54 53 56 56 64 66 68 66 66 68 70 70 66 63 72 76 74 72 71 70 69 71 72 72 75 74 75
52 52 47 55 56 61 52 55 52 51 56 63 60 50 49 51 50 57 59 60 62 63 58 62 59 55 54 57 57 67 68 72 71 72 74 77 77 76 75 76 77 51 72 76 74 74 71 72 73 70 73 74 74 77
50 56 57 52 54 57 55 54 50 53 57 55 51 52 54 58 63 62 62 59 57 57 55 53 55 60 66 61 68 71 73 73 69 64 60 58 68 70 78 77 77 77 77 77 48 57 70 72 72 72 74 75 76 76
50 61 48 50 49 48 53 58 58 60 59 51 54 52 53 53 53 54 53 56 56 53 62 66 68 67 68 68 70 71 75 75 75 72 69 69 69 74 79 79 78 79 80 78 77 75 51 67 65 73 71 74 73 73
51 53 48 48 45 50 54 60 60 56 52 49 49 47 47 50 52 55 55 57 63 66 66 67 65 66 65 70 68 59 63 75 76 77 77 80 80 79 79 79 80 80 79 80 77 76 76 74 73 74 72 71 70 69
45 43 43 42 44 49 51 49 49 48 49 48 48 49 50 51 54 60 66 63 64 65 60 58 57 62 77 78 78 77 56 78 81 80 77 79 79 79 81 80 80 78 77 76 77 76 74 74 74 73 73 71 71 70
45 46 46 47 46 46 50 51 52 51 54 55 56 60 62 62 59 67 73 73 70 71 71 72 77 78 75 75 76 76 66 75 57 43 45 42 39 53 73 79 80 79 77 75 76 76 75 72 72 71 70 70 69 69

GFSWCAN_sfc_temp_048.txt.gz
Temp
54 54 54 54 55 56 55 55 55 56 56 55 55 56 56 56 55 58 71 75 70 70 77 77 79 73 75 75 68 73 74 76 76 69 70 71 69 71 71 75 72 71 69 69 71 67 63 74 77 62 59 62 82 84
54 54 54 54 55 55 55 55 55 55 55 55 55 55 56 55 55 55 69 80 78 69 74 81 81 82 79 78 73 74 72 72 73 69 69 73 70 70 67 63 78 67 65 51 70 68 72 80 73 80 80 81 83 85
54 54 54 54 54 55 55 55 55 55 55 55 55 55 55 55 54 55 65 74 74 70 74 77 76 81 87 84 87 71 75 73 74 74 71 73 64 68 59 62 67 73 63 52 58 69 74 76 79 79 83 84 87 88
54 54 54 54 54 55 55 55 55 55 55 55 55 55 55 54 54 54 65 74 73 71 66 73 85 79 85 85 82 82 77 77 76 77 73 73 69 71 60 62 62 71 70 69 72 71 77 74 80 81 82 85 87 89
54 54 54 54 54 54 55 55 55 55 55 55 55 55 55 54 53 58 68 76 76 67 63 72 80 83 84 81 80 80 77 73 76 73 72 70 76 70 72 64 56 62 63 65 70 77 75 74 78 85 83 84 86 86
54 54 53 53 54 54 55 54 54 55 55 55 55 54 54 53 53 62 66 75 72 73 65 67 79 77 80 80 78 77 78 76 77 73 73 76 75 70 65 62 63 63 65 60 60 80 78 80 82 85 84 85 86 85
54 54 54 53 54 54 54 54 54 54 54 54 54 54 53 53 58 62 60 64 56 66 66 66 70 78 80 79 78 78 79 76 77 75 72 73 71 70 66 60 69 68 63 60 61 80 77 81 78 83 75 76 73 71
53 54 53 54 54 54 54 54 54 54 54 54 54 53 53 52 53 61 70 58 57 67 71 63 67 72 79 73 71 80 75 77 75 72 75 71 69 67 58 66 68 65 66 64 61 74 80 82 68 68 69 70 69 69
53 53 53 53 53 53 53 53 53 53 53 53 53 53 58 60 67 66 58 57 70 66 61 68 65 59 78 74 76 76 76 67 77 69 70 71 66 58 60 62 65 64 67 61 65 75 80 80 69 63 61 61 62 66
53 53 53 53 53 53 53 53 53 53 53 53 56 60 61 67 57 59 64 65 65 68 67 63 75 68 75 73 71 71 73 67 63 70 76 67 65 71 69 69 72 72 74 75 69 69 76 77 63 62 63 62 69 71
53 53 52 52 52 52 53 53 52 52 49 59 61 62 68 56 68 66 61 60 64 60 68 69 71 69 78 68 60 63 61 56 59 66 65 63 63 69 71 70 74 75 77 78 78 77 80 77 71 68 63 66 72 74
53 52 52 52 51 52 52 52 52 55 64 58 59 68 70 65 63 57 56 62 62 59 69 67 70 72 72 74 65 59 55 64 53 52 62 59 59 69 70 71 73 75 76 75 76 76 77 77 76 70 64 76 78 78
51 51 51 51 51 52 52 51 51 55 55 66 62 62 62 60 42 50 49 57 58 67 69 69 66 72 72 73 67 62 54 54 69 61 58 53 62 69 70 72 72 74 75 75 75 75 77 76 78 76 74 76 77 76
50 49 49 50 51 51 51 52 52 53 55 59 55 37 52 51 56 60 63 65 70 70 70 70 69 67 70 64 66 57 63 63 52 41 46 57 62 64 68 70 70 66 71 73 73 73 74 74 74 75 76 76 75 73
50 50 50 50 51 51 51 52 52 57 57 57 60 42 54 64 68 71 71 67 72 76 70 70 67 69 66 62 62 53 54 52 54 50 54 56 60 64 65 66 69 66 66 67 69 70 72 72 71 72 74 74 74 71
50 49 49 51 52 52 51 51 54 58 62 60 59 58 65 63 65 69 69 68 73 72 72 71 62 61 55 57 58 55 55 49 51 52 54 58 61 62 64 64 65 67 67 68 68 68 69 69 69 70 72 69 70 68
51 48 51 51 51 51 52 56 57 57 59 57 58 66 67 66 64 69 70 69 75 67 63 61 55 56 66 53 57 63 55 56 60 57 53 55 60 62 66 67 66 66 65 64 64 65 66 68 66 66 63 66 67 63
48 51 51 51 52 53 57 56 60 59 54 60 59 63 67 66 61 64 70 67 69 67 65 60 63 58 56 56 55 47 49 60 61 61 58 63 66 67 68 65 64 65 65 64 63 64 65 66 66 66 65 66 64 64
51 53 51 52 55 59 58 58 61 55 58 63 66 68 67 68 70 71 72 72 71 71 66 64 59 58 56 57 55 58 63 64 61 64 66 67 67 66 65 65 62 62 63 62 63 63 62 64 65 66 67 66 64 65
51 52 52 53 55 58 56 60 65 58 59 63 67 65 66 64 67 70 70 69 69 67 62 61 62 57 49 47 61 67 68 69 68 67 59 68 67 67 65 64 62 62 61 64 63 55 63 65 65 64 66 64 65 64
53 54 54 56 61 59 59 60 60 63 63 62 67 65 62 67 64 61 63 70 66 60 62 66 67 51 62 68 70 68 67 68 67 65 65 66 66 67 65 64 62 62 63 62 61 62 59 61 62 67 66 66 67 67
59 54 59 55 53 57 58 64 61 64 61 62 63 65 60 58 57 54 68 64 64 67 68 65 67 68 65 64 65 66 65 65 66 65 53 55 63 61 58 58 57 56 60 59 60 61 62 63 66 64 64 69 63 71
53 58 58 57 50 48 48 64 54 58 52 56 60 57 55 56 63 66 60 66 64 67 66 68 66 66 65 66 66 65 65 63 63 65 62 61 58 57 56 57 55 55 57 56 63 66 66 54 59 62 69 71 71 71
49 55 50 50 53 47 59 54 58 57 56 55 54 52 51 58 65 62 57 60 67 70 69 64 67 66 67 63 64 59 60 60 58 58 59 56 53 53 56 55 61 62 64 71 70 67 67 69 60 69 71 73 73 73
45 45 48 36 56 53 49 53 53 55 50 54 52 55 58 63 57 51 53 61 68 68 68 67 67 67 64 60 60 60 59 57 57 55 54 54 54 54 55 60 64 69 73 71 70 70 70 72 73 72 70 71 71 72
36 51 42 53 53 50 52 50 52 53 53 54 56 61 63 59 53 43 60 64 65 66 65 63 60 58 60 63 59 53 56 55 58 62 60 60 61 64 65 66 65 69 73 70 73 70 67 68 72 72 70 69 55 69
38 48 57 62 61 60 58 62 62 59 54 54 58 58 57 50 48 59 63 62 60 64 64 66 65 57 61 60 60 56 58 64 59 63 69 72 71 73 73 71 69 68 73 76 74 73 72 71 72 73 73 72 74 74
54 55 50 55 57 61 55 57 56 54 58 65 63 54 53 54 53 59 58 64 66 66 66 67 66 65 64 58 57 60 64 65 66 69 67 70 74 72 73 75 76 53 73 75 76 76 73 73 71 73 73 72 73 76
50 58 60 53 57 58 58 57 58 62 63 62 56 54 54 61 62 61 63 66 69 62 59 60 55 58 58 60 60 63 68 68 67 61 64 67 70 67 71 75 77 77 77 76 51 60 69 73 74 74 74 74 75 76
51 57 54 53 51 51 58 61 58 60 63 61 62 62 60 61 63 64 64 65 63 61 64 65 66 62 61 66 67 70 74 75 76 71 68 68 71 75 77 77 78 79 79 76 76 76 51 65 67 72 71 72 71 69
54 51 49 50 49 56 55 56 59 60 58 55 51 50 49 50 53 57 62 64 65 67 64 64 68 70 70 67 65 66 67 75 77 78 78 77 76 77 76 79 80 80 79 79 77 75 74 72 73 73 73 70 70 68
46 44 44 42 47 52 53 49 49 48 49 48 48 49 49 49 52 61 66 66 66 66 57 58 63 68 71 68 71 74 60 76 70 77 77 77 78 78 80 81 80 80 78 78 77 77 76 74 74 74 73 71 70 70
46 46 46 47 46 47 51 51 51 49 50 54 56 59 61 61 57 64 70 70 68 66 63 62 60 63 70 76 75 72 61 72 55 42 44 42 40 51 71 78 75 76 78 77 76 76 73 72 72 71 71 71 71 71

GFSWCAN_sfc_temp_051.txt.gz
Temp
55 55 55 54 54 54 54 55 56 56 56 56 56 56 56 56 55 53 57 63 60 58 65 72 74 65 65 63 56 61 63 65 62 56 57 58 58 62 61 61 60 56 53 55 55 52 52 68 71 59 57 61 64 64
55 54 54 54 54 54 54 55 55 55 55 56 56 56 56 55 55 55 57 68 70 59 62 71 73 76 73 71 63 63 60 61 61 56 56 59 58 57 56 52 61 52 54 53 55 53 61 64 63 65 63 63 62 59
54 54 54 54 54 54 54 55 55 55 55 55 56 56 55 55 54 54 54 60 64 60 63 66 68 75 78 76 78 60 63 65 62 64 57 57 52 55 51 53 55 60 60 54 53 59 63 66 69 70 73 73 68 69
54 54 54 54 54 54 54 55 55 55 55 55 55 55 55 54 54 54 54 61 64 62 56 64 79 72 80 77 75 73 69 67 66 64 59 58 57 59 56 56 55 57 58 54 56 57 61 64 69 73 76 78 79 81
54 54 54 54 54 54 54 55 55 55 55 55 55 55 55 54 53 53 57 63 67 59 55 60 73 76 77 74 73 73 68 63 61 60 58 57 61 60 62 58 56 56 53 51 51 56 55 56 56 73 74 77 77 76
54 54 54 54 54 54 54 54 54 55 55 55 55 55 54 53 53 54 56 64 63 62 56 55 69 70 73 72 70 68 66 63 63 60 60 63 64 60 54 53 57 59 58 59 55 57 58 56 57 67 65 65 67 66
53 53 54 54 54 54 54 54 54 54 54 54 54 54 53 52 52 53 52 57 54 57 56 56 59 70 73 70 68 66 67 64 62 61 60 60 59 60 55 51 58 60 60 58 59 58 56 55 54 62 65 66 65 66
53 53 53 54 53 54 54 54 54 54 54 54 54 53 53 52 51 52 61 57 54 58 61 54 58 63 71 63 60 67 62 63 61 61 61 59 58 57 50 58 61 62 63 63 60 59 57 57 55 60 64 65 63 62
53 53 53 53 53 53 53 54 54 54 54 54 53 53 53 53 56 60 60 59 61 58 53 58 56 54 70 64 64 64 65 57 64 58 59 60 56 50 56 58 58 62 61 63 64 61 61 60 60 62 63 63 61 60
53 53 53 53 53 53 53 53 53 53 53 53 52 53 52 62 59 59 58 58 58 60 59 56 64 57 66 63 58 59 62 57 53 60 64 57 56 61 63 62 62 64 65 68 63 64 58 60 62 62 62 64 64 64
53 53 53 53 53 53 53 53 53 52 50 52 53 55 61 57 61 59 55 55 57 55 60 60 61 58 67 57 56 58 54 53 49 55 55 54 52 59 64 63 65 66 66 67 66 65 65 62 62 60 62 63 65 65
53 53 53 52 52 52 53 52 52 51 56 53 52 56 62 58 56 54 51 57 58 55 62 59 60 64 63 64 57 56 54 54 49 54 53 52 52 61 63 65 66 67 69 69 68 66 68 65 64 62 61 61 62 63
52 52 52 52 52 52 52 52 52 53 53 59 54 56 55 53 44 48 47 52 53 61 62 62 58 62 62 63 59 57 52 51 59 50 47 50 52 54 56 64 66 68 70 70 69 69 70 70 70 68 66 67 68 67
52 52 51 51 51 51 51 51 52 53 51 52 52 37 46 47 52 55 57 58 62 64 63 62 60 58 61 57 59 55 58 56 47 45 47 50 52 52 55 64 63 62 64 64 65 67 68 68 68 68 68 68 65 63
50 51 51 51 51 51 51 51 52 53 52 51 56 41 49 59 63 65 66 63 65 67 65 61 61 61 58 57 56 52 50 50 51 46 49 51 54 54 57 60 61 61 62 63 64 65 65 65 64 64 66 65 64 63
50 49 48 51 51 51 50 51 51 54 54 55 56 54 59 58 61 64 63 61 67 66 66 64 59 56 54 54 54 51 52 48 47 51 52 52 53 54 55 58 60 61 61 60 60 61 62 62 61 60 63 62 61 60
50 46 50 50 50 50 51 52 52 50 56 55 55 61 61 63 59 62 64 64 67 64 58 58 53 54 55 52 51 52 47 49 52 54 54 55 56 56 58 59 60 60 60 60 60 61 60 61 62 60 58 58 59 59
47 49 51 51 51 51 52 51 53 56 52 56 54 60 62 63 61 61 63 65 64 62 61 57 60 55 51 48 48 47 49 51 54 55 53 54 58 60 60 58 59 59 60 60 60 60 59 58 57 56 58 58 58 58
49 49 51 51 52 49 51 53 55 51 54 59 60 63 63 63 64 60 56 63 65 66 62 60 57 52 47 50 46 49 52 52 53 54 56 59 59 60 60 60 59 59 59 58 59 57 57 58 58 60 60 58 57 57
52 52 52 52 52 49 52 54 58 52 54 58 62 62 62 60 64 64 65 66 64 62 58 56 51 50 49 50 51 50 55 59 59 53 55 57 60 59 59 58 57 57 57 58 58 51 57 56 58 59 59 57 57 56
52 52 52 52 53 54 55 56 54 57 58 58 62 62 60 62 60 59 60 63 61 59 58 56 53 54 55 54 53 57 58 59 58 58 57 57 59 59 58 58 58 59 56 59 55 55 55 56 57 60 60 59 60 59
54 53 55 55 53 56 55 60 57 60 58 59 57 59 57 56 53 54 59 60 61 60 58 53 55 54 57 58 58 61 61 61 60 60 56 52 57 56 55 56 56 55 56 56 56 56 56 59 59 59 58 60 57 61
53 54 52 54 48 45 44 62 54 58 51 54 57 55 54 54 59 62 57 61 61 60 57 58 61 63 61 63 62 61 61 60 59 57 57 56 56 56 56 56 55 54 53 54 58 58 58 52 56 56 60 61 62 63
53 50 47 48 49 44 57 53 57 54 54 53 52 50 51 55 62 58 54 59 60 58 60 60 62 61 60 61 58 59 59 59 57 56 58 57 54 53 55 54 58 58 59 61 61 59 60 60 58 62 63 63 63 63
43 44 45 35 52 52 51 52 52 53 50 53 52 47 49 57 54 50 51 58 60 61 61 63 62 60 59 58 59 57 57 57 56 55 56 56 54 56 56 57 59 62 65 63 61 62 63 63 64 65 65 64 64 64
35 50 42 52 53 51 52 49 51 51 53 54 53 57 59 57 52 41 56 56 55 59 60 60 59 57 56 59 57 55 57 56 57 58 57 59 59 60 58 56 58 60 67 66 63 62 64 64 65 67 66 63 55 63
38 47 54 62 59 58 56 59 59 56 55 54 56 56 55 50 49 54 59 61 61 62 63 63 61 58 58 61 60 58 60 61 60 60 63 63 65 66 65 62 59 63 67 69 68 67 65 65 66 66 66 67 66 67
52 52 50 56 58 60 56 57 56 55 57 61 61 54 53 53 50 56 60 63 64 64 64 64 64 64 63 62 60 61 61 63 63 63 63 66 69 69 68 69 68 52 66 66 67 68 66 67 66 66 65 66 66 67
52 56 58 54 56 58 58 56 57 59 61 60 55 53 55 59 61 61 62 65 66 62 58 60 58 58 57 61 61 64 64 65 61 58 59 58 61 64 69 70 70 68 69 69 52 58 64 65 66 67 67 65 66 66
53 59 54 54 53 52 54 57 56 60 62 61 61 60 60 61 61 63 62 63 60 58 56 55 61 61 61 61 61 60 65 67 66 62 61 62 61 60 67 70 71 72 70 70 70 69 53 61 62 64 64 66 64 65
55 54 51 51 51 55 53 54 58 58 58 56 55 53 53 53 55 61 61 63 65 64 63 62 62 63 56 57 63 63 60 65 68 69 70 72 72 69 69 71 72 70 69 69 70 70 69 66 66 67 67 65 63 61
50 48 48 46 49 52 53 50 48 48 48 48 48 50 50 50 51 58 63 64 61 58 55 57 61 61 61 63 67 68 56 69 66 66 68 70 70 69 71 73 73 71 70 70 69 70 66 65 64 67 65 65 65 65
45 45 45 45 45 45 47 48 48 48 50 50 52 55 55 57 54 60 66 67 61 56 59 62 63 65 64 65 68 68 59 66 54 45 44 44 43 51 67 70 70 70 69 67 66 70 69 68 66 65 65 65 65 65

GFSWCAN_sfc_temp_054.txt.gz
Temp
55 55 55 55 55 54 54 54 55 55 56 56 56 56 56 56 55 47 48 50 52 45 50 60 63 56 58 55 51 56 56 57 56 51 49 51 52 57 51 54 50 49 46 45 47 45 46 66 66 59 59 57 62 61
55 55 55 55 55 54 54 54 55 55 55 55 55 55 55 55 55 53 45 55 56 50 51 59 64 66 65 62 57 55 56 54 54 51 49 49 52 49 49 46 55 48 51 46 50 48 54 59 56 57 60 59 63 62
55 55 55 55 55 54 54 54 54 55 55 55 55 55 55 55 54 51 42 46 50 47 51 53 58 66 63 65 65 55 54 59 55 57 51 50 50 49 46 50 51 54 55 49 50 52 55 57 57 57 59 58 62 66
55 55 54 54 54 54 54 54 54 55 55 55 55 55 55 54 53 53 42 46 47 47 43 52 67 63 69 67 66 62 61 59 57 55 52 50 51 53 50 52 50 51 53 50 50 52 57 59 55 57 58 62 64 66
54 54 54 54 54 54 54 54 54 55 55 55 55 55 55 54 53 48 43 47 51 49 43 47 57 64 65 66 63 60 59 55 52 52 50 50 53 53 51 51 48 51 50 47 46 52 52 53 55 58 59 59 60 62
54 54 53 53 54 54 54 54 54 54 55 55 54 54 54 53 52 44 47 50 51 48 46 43 56 58 60 62 59 55 57 54 54 52 51 52 55 53 47 45 53 54 55 53 51 56 55 56 58 59 58 60 61 59
53 54 53 53 53 53 54 54 54 54 54 54 54 53 53 52 43 45 48 51 50 46 47 44 48 58 64 59 58 57 56 55 54 50 50 51 53 52 47 44 54 54 55 56 56 55 53 55 54 60 62 60 59 60
53 53 53 53 53 53 53 53 54 54 54 54 53 53 52 52 49 45 50 53 49 47 48 43 48 54 61 55 54 56 55 53 54 54 51 50 51 48 45 50 52 57 58 56 57 57 56 56 56 59 61 60 58 58
53 53 53 53 53 53 53 53 53 53 53 53 53 53 46 44 44 51 59 55 49 50 44 44 44 46 59 55 53 55 54 50 53 52 50 52 46 46 50 52 55 57 56 56 57 57 56 56 58 59 60 61 58 58
53 53 53 53 53 53 53 53 53 53 53 53 48 46 44 51 58 58 51 47 47 47 45 43 47 48 54 52 50 51 50 46 46 50 51 50 47 52 55 56 58 59 59 60 55 54 56 58 59 59 60 62 62 62
53 53 53 53 53 53 53 53 53 52 51 45 43 46 53 57 52 50 46 44 44 44 45 47 49 48 55 49 48 49 46 45 43 47 48 44 42 48 53 55 57 59 59 59 59 58 59 59 60 60 60 63 64 63
52 53 53 53 53 53 53 52 52 49 47 49 47 50 51 50 48 46 44 46 46 46 49 48 51 52 53 54 49 49 46 46 42 48 46 41 44 48 52 55 57 57 60 61 61 59 59 61 60 60 61 60 61 63
51 52 52 52 52 53 53 52 52 52 51 51 48 48 49 47 39 43 41 42 43 50 51 50 50 52 54 52 48 48 46 44 49 44 42 42 46 49 52 55 60 59 61 62 62 64 66 63 63 63 62 62 62 61
52 52 52 52 52 52 52 52 52 51 46 45 46 37 42 41 44 45 45 46 51 52 51 50 50 50 49 50 48 46 48 51 43 39 41 43 45 48 50 53 55 58 59 60 62 61 60 63 62 63 62 62 60 57
52 52 51 51 51 51 51 51 52 48 44 44 48 39 44 49 48 51 52 52 53 53 52 51 50 50 48 50 47 46 45 44 43 41 42 46 49 48 50 54 54 56 55 54 57 59 59 58 58 57 59 60 57 56
52 51 50 51 51 51 51 51 50 48 48 47 48 46 49 47 47 49 51 52 57 54 53 52 48 48 47 46 46 44 45 41 42 44 46 48 49 51 53 54 55 56 53 53 54 55 55 55 55 54 55 54 54 54
49 45 51 51 50 50 52 49 47 46 47 51 48 51 49 49 48 48 50 51 55 53 47 47 46 46 47 44 44 43 44 44 46 47 48 49 50 50 52 53 54 54 53 53 54 54 54 55 55 54 52 53 53 53
45 48 50 49 48 48 48 47 46 49 48 48 44 47 50 51 50 49 50 53 53 50 49 49 50 45 41 43 42 42 45 45 47 48 47 49 51 52 54 51 52 53 55 55 57 56 54 53 52 51 52 54 53 51
47 48 50 51 50 45 42 46 47 45 48 48 48 49 50 50 50 51 51 52 52 53 51 48 45 42 41 44 46 45 46 46 47 48 50 51 52 53 53 53 53 52 53 55 53 51 51 53 52 52 54 52 51 50
50 51 51 50 50 44 46 47 52 48 45 48 50 49 49 48 50 51 52 52 51 50 48 45 44 45 44 45 47 47 49 50 49 48 48 50 51 52 51 51 50 51 51 53 52 49 52 53 52 53 52 51 50 50
49 48 49 48 47 46 47 49 48 47 47 47 48 49 47 49 48 48 48 50 50 46 45 46 46 47 48 48 50 49 50 50 49 49 48 48 54 53 50 50 51 53 54 54 51 50 48 50 52 53 53 51 52 51
47 50 48 48 46 50 48 50 48 48 48 50 49 49 47 45 44 45 47 48 50 46 48 47 49 48 49 49 51 52 52 52 51 49 48 48 48 48 48 49 50 49 52 50 51 51 51 53 54 54 52 52 51 53
52 51 48 51 46 42 45 51 48 50 46 46 47 46 44 44 46 49 45 46 47 49 49 50 51 51 51 53 53 52 53 51 49 49 49 48 49 49 50 49 53 51 51 53 54 53 52 52 53 53 54 55 52 55
52 47 44 44 44 40 51 48 51 48 48 46 45 42 42 44 48 46 43 50 49 48 49 51 50 49 50 50 49 50 50 50 49 49 50 49 48 51 51 51 52 53 53 53 51 51 55 56 52 53 55 57 54 54
41 42 42 33 44 44 46 46 46 45 43 45 44 41 43 45 43 41 39 49 46 47 49 50 50 49 48 48 48 49 50 50 49 49 50 53 51 52 51 52 53 53 53 53 52 53 54 54 55 55 56 57 57 55
33 43 41 44 43 45 45 44 44 45 48 46 46 47 46 48 45 36 43 46 47 48 49 49 49 48 48 49 48 48 50 51 50 48 53 52 51 51 54 53 53 54 57 57 57 60 58 57 57 59 58 59 52 59
36 44 45 49 48 48 46 49 50 47 48 47 46 46 46 43 40 44 47 49 48 50 51 51 50 50 50 50 51 51 55 53 53 53 53 53 55 56 58 57 55 59 58 60 59 59 58 57 57 62 60 62 60 61
43 46 43 46 46 48 48 47 48 47 49 49 50 47 46 46 42 46 48 51 52 52 51 52 52 52 52 52 53 54 54 53 55 55 55 55 55 56 57 57 58 52 57 59 60 59 58 59 59 59 59 58 58 61
43 46 47 47 49 48 47 46 46 46 48 47 44 43 44 48 50 49 50 51 52 51 50 50 50 51 51 52 56 55 55 54 55 53 53 52 57 59 57 58 57 59 57 58 52 55 60 60 60 61 60 58 58 59
44 47 45 46 45 43 44 46 46 48 49 48 48 48 48 48 50 51 51 51 51 50 52 54 54 52 51 52 51 53 55 57 59 59 54 55 58 59 59 60 59 59 61 62 59 59 50 54 55 57 59 58 58 57
46 46 44 44 43 45 46 48 49 50 49 47 47 45 45 46 49 52 52 53 56 57 55 53 53 55 54 55 53 56 58 61 62 64 62 62 63 62 63 60 59 62 64 61 59 58 59 59 60 58 59 60 61 58
44 43 42 42 43 47 48 46 45 44 46 45 44 46 46 46 46 50 54 55 54 53 53 53 55 55 56 55 56 58 53 60 62 61 60 59 59 59 61 61 61 62 64 64 61 62 63 62 60 59 59 59 59 59
43 44 44 44 43 44 47 46 46 46 47 47 48 49 50 50 50 55 59 60 55 53 53 54 55 57 60 62 60 62 57 61 56 47 46 47 47 51 56 58 60 62 64 61 60 62 62 61 60 59 59 59 58 57

GFSWCAN_sfc_temp_057.txt.gz
Temp
55 55 55 55 55 55 55 55 54 55 55 56 55 55 56 56 55 46 45 47 48 43 47 55 59 53 55 53 50 54 55 55 52 49 48 46 47 50 47 48 45 46 44 42 44 43 44 58 59 51 51 53 57 59
55 55 55 55 55 55 54 54 54 54 55 55 55 55 55 55 55 51 42 51 51 47 50 54 60 63 62 61 55 52 53 51 52 50 48 46 48 46 44 43 51 45 47 45 47 45 54 56 53 55 53 54 57 56
55 55 55 55 55 55 54 54 54 54 55 55 55 55 55 55 54 51 40 42 46 44 48 51 56 62 56 60 61 54 52 56 53 53 50 49 46 47 44 46 48 51 51 47 47 52 53 56 55 56 57 57 59 60
55 55 54 54 54 54 54 54 54 54 55 55 55 55 55 54 53 53 40 42 43 43 40 50 61 58 65 63 62 60 59 55 53 54 49 47 48 51 46 49 49 50 52 48 48 52 55 55 54 55 57 59 60 61
54 54 54 54 54 54 54 54 54 54 55 55 55 55 55 54 53 47 41 43 46 45 42 45 52 58 59 63 64 58 56 52 50 50 48 48 49 50 48 49 49 50 50 46 45 52 50 51 54 57 56 57 59 58
54 54 54 54 54 54 54 54 54 54 55 55 55 54 54 53 52 42 44 46 46 46 44 43 51 54 57 58 57 54 54 50 50 49 48 48 51 50 45 45 52 53 53 52 51 53 53 55 56 59 58 57 58 59
54 53 54 54 54 54 54 53 54 54 54 54 54 53 53 52 42 43 45 48 48 45 44 44 46 53 57 55 54 54 52 51 51 46 48 48 50 50 45 44 52 54 54 53 54 54 52 54 54 58 59 60 60 60
53 53 53 53 53 53 53 53 53 53 53 53 53 53 52 52 49 44 47 51 48 44 46 42 45 51 54 51 51 51 51 49 50 49 46 48 48 46 44 50 52 55 54 54 55 55 54 54 55 56 59 59 58 58
53 53 53 53 53 53 53 53 53 53 53 53 53 53 48 45 42 48 57 54 47 49 43 42 43 44 54 49 49 52 50 48 50 47 46 49 43 44 47 49 52 54 53 54 56 55 55 55 55 56 58 58 57 57
52 53 53 53 53 53 53 53 53 53 53 53 49 46 44 49 57 57 50 47 46 44 42 41 43 46 51 47 46 49 48 45 45 47 48 44 41 47 48 48 52 56 56 56 52 51 52 53 55 56 58 59 59 60
52 53 53 53 53 53 53 53 53 51 51 46 43 44 52 57 52 47 45 43 42 41 41 44 46 46 52 48 45 46 44 44 43 46 46 41 42 47 51 50 53 56 57 57 56 57 54 54 56 56 57 59 58 59
51 52 53 53 53 53 53 52 52 48 46 47 47 49 49 49 47 44 42 44 44 44 45 44 47 48 50 49 48 45 44 45 42 46 45 40 44 47 48 52 54 54 57 58 58 58 58 59 57 56 58 57 57 58
50 51 52 52 53 52 52 52 52 52 51 49 46 46 46 45 36 41 39 42 41 46 47 46 47 49 49 49 46 46 45 43 47 43 41 42 44 47 48 50 53 56 58 58 59 60 61 60 60 58 56 57 57 56
50 51 52 52 52 52 52 52 52 52 47 44 44 36 40 39 42 44 45 45 47 49 48 46 46 47 45 48 44 46 47 47 41 38 41 41 44 46 47 50 52 52 55 58 57 57 57 58 58 60 57 56 57 57
50 51 52 52 52 52 52 52 53 49 46 43 46 39 43 48 47 47 47 47 51 50 48 48 47 46 44 46 44 44 43 42 42 40 41 44 45 46 49 52 53 55 55 55 53 53 54 55 54 53 54 53 53 53
51 51 51 52 52 52 52 51 49 48 46 45 45 44 48 44 45 45 48 48 49 48 48 48 45 45 43 44 44 43 43 41 41 42 44 45 47 48 52 54 54 55 52 51 51 52 53 53 53 52 52 52 52 51
50 48 51 51 51 51 51 48 46 45 45 47 45 48 46 47 47 46 48 49 49 50 45 45 45 43 44 42 42 42 42 42 44 45 46 47 47 49 50 52 52 52 51 51 51 52 52 52 52 52 50 50 50 50
47 49 50 50 50 49 48 47 46 46 44 47 44 45 48 49 48 48 48 48 51 47 46 46 46 43 41 42 40 42 42 43 44 46 46 47 49 50 51 50 51 51 52 52 52 52 52 51 51 50 50 50 49 48
48 48 50 50 49 46 45 46 46 43 47 46 46 47 49 49 48 48 48 50 49 49 48 45 44 41 40 41 42 43 43 43 44 46 47 48 50 50 51 51 51 50 50 51 50 50 50 50 50 50 50 50 48 47
50 50 51 51 50 44 43 44 49 45 45 47 47 48 47 47 47 48 49 49 48 47 46 44 43 43 42 43 44 44 46 46 46 46 46 47 49 50 50 50 49 49 49 50 50 46 50 51 50 50 50 49 48 48
49 48 49 48 46 44 44 47 47 47 47 46 46 47 46 46 46 47 47 46 47 43 44 44 44 45 45 46 46 47 48 47 47 47 46 46 47 48 48 49 49 48 52 53 50 49 49 52 53 52 50 49 49 50
46 49 46 47 44 47 44 49 46 47 47 48 47 46 44 44 43 44 45 46 46 45 45 45 46 45 46 48 49 48 49 49 48 46 45 46 46 46 46 47 47 48 50 49 51 51 52 53 53 53 51 52 51 52
49 48 46 49 46 43 45 49 47 47 44 44 45 44 42 43 43 46 47 44 45 46 46 47 48 48 48 50 50 50 50 49 47 47 47 46 46 47 47 47 48 51 50 52 52 53 51 49 51 53 54 52 51 55
51 46 44 44 43 41 49 46 48 45 44 43 42 40 41 43 44 43 41 43 45 46 47 48 48 48 47 48 47 48 48 48 47 47 47 46 45 47 50 49 50 53 54 52 49 50 53 55 51 55 56 56 53 51
40 40 42 34 44 44 44 44 43 43 41 42 41 40 41 43 41 39 37 43 44 46 46 47 47 46 46 46 46 47 48 47 46 46 48 48 48 51 51 49 50 50 50 50 50 54 55 56 55 56 53 53 56 52
33 42 39 41 40 43 42 41 42 42 43 43 44 44 43 43 42 35 41 44 45 46 47 47 47 46 46 46 46 46 48 49 48 51 53 53 51 49 49 48 48 51 51 52 53 54 54 53 54 55 55 57 51 55
37 41 42 44 44 46 43 45 46 45 46 44 43 44 44 40 37 42 44 46 46 48 48 48 48 47 47 47 48 49 50 50 50 51 51 52 55 56 52 52 51 53 54 55 55 57 56 55 56 58 57 58 57 58
42 44 40 43 45 45 46 44 44 42 44 44 45 43 42 43 41 44 46 48 48 48 48 48 48 49 49 50 50 51 51 52 52 53 54 53 52 52 53 54 54 48 52 54 56 56 56 56 55 56 58 57 56 57
41 43 44 43 46 43 42 42 42 43 43 43 42 41 43 44 46 46 48 48 48 48 47 47 48 49 50 50 51 52 53 52 51 52 53 52 54 58 53 53 55 55 54 55 50 52 56 56 56 56 57 56 56 55
41 42 42 43 42 40 42 43 44 45 45 44 44 44 44 45 47 48 48 47 47 47 48 50 50 50 50 51 50 51 53 54 55 55 52 54 54 59 57 55 56 56 57 56 55 56 48 53 54 58 55 55 57 56
42 42 41 40 40 43 44 45 46 46 46 45 45 44 43 45 47 49 49 50 50 52 51 50 51 51 50 51 51 52 52 55 57 61 60 59 57 60 58 59 57 56 57 57 56 57 56 56 56 56 56 55 55 52
42 40 40 39 41 45 46 44 44 46 46 45 43 45 45 45 45 50 53 52 52 51 50 51 52 55 57 55 56 55 49 55 57 58 61 61 59 58 59 59 57 58 59 57 57 57 58 58 57 59 57 57 57 57
40 41 41 41 41 42 45 46 46 46 45 47 48 48 47 48 48 51 53 54 53 52 52 53 54 55 57 57 56 56 51 56 55 48 48 45 44 49 55 58 60 61 60 59 57 59 60 61 59 59 58 56 56 57

GFSWCAN_sfc_temp_060.txt.gz
Temp
55 56 56 56 56 56 55 55 55 55 56 56 56 56 56 56 55 45 42 45 45 42 47 53 59 52 53 50 48 52 52 53 50 46 46 44 45 47 45 46 43 44 42 41 41 41 41 57 58 52 52 53 55 56
55 55 55 55 56 55 55 55 54 55 55 55 56 56 56 55 54 47 39 48 47 44 48 51 58 62 60 60 53 49 52 50 52 49 46 45 46 45 43 42 49 44 46 44 45 45 53 54 53 55 54 56 57 58
54 55 55 55 55 55 55 54 54 54 55 55 56 56 55 55 54 50 38 40 43 42 47 48 54 56 54 58 59 53 51 53 53 51 49 46 47 46 43 46 47 49 50 46 47 52 52 55 56 55 56 55 57 59
54 54 55 54 54 55 54 54 54 54 54 55 56 56 55 54 53 52 39 41 42 42 39 48 59 54 58 57 58 56 56 51 51 51 48 47 49 50 47 51 49 53 52 49 50 52 53 54 55 55 56 58 58 60
53 54 54 54 54 54 54 54 54 54 54 55 55 55 55 54 53 46 40 41 44 45 41 44 51 55 56 60 60 56 54 49 48 49 47 47 49 51 47 49 48 51 52 49 45 52 52 52 55 57 57 57 57 56
53 54 54 54 54 54 54 54 54 54 54 55 55 54 54 53 50 42 42 42 42 44 41 40 50 52 56 59 57 54 51 48 47 47 46 47 49 50 45 44 52 52 52 52 51 54 54 55 56 58 57 57 59 59
52 53 54 54 54 54 54 54 54 54 54 54 54 53 53 52 44 43 44 45 46 43 42 41 44 51 53 51 51 51 48 47 49 45 45 46 48 48 45 44 53 53 54 54 54 54 54 56 54 58 58 59 59 59
52 53 53 54 54 54 53 53 53 53 54 54 53 53 52 52 50 46 48 51 47 42 43 39 43 49 51 49 49 46 47 47 47 45 45 46 47 45 44 49 49 52 54 54 56 55 55 55 55 56 57 58 57 57
52 54 53 53 54 54 53 53 53 53 53 53 53 53 48 45 43 48 56 53 45 46 41 40 42 43 51 45 46 48 46 45 46 44 44 46 41 43 45 45 47 54 53 54 57 56 55 54 54 55 56 57 56 56
52 52 53 53 53 53 53 53 53 52 52 52 49 46 43 47 56 55 50 46 43 42 41 40 40 45 49 45 44 46 44 42 43 45 46 42 41 46 48 48 47 50 54 55 53 54 55 54 55 55 56 56 57 58
51 52 53 53 53 53 53 52 52 51 51 42 42 43 50 56 50 47 43 41 40 39 40 43 44 46 49 47 44 43 42 41 41 44 45 41 41 46 48 49 51 52 54 56 56 56 55 55 55 55 55 56 56 56
51 51 53 53 53 53 52 52 52 48 47 46 46 49 48 47 46 42 39 41 40 42 44 44 47 47 48 47 46 43 42 43 40 44 44 40 44 46 48 50 52 52 56 57 58 57 57 58 57 55 57 57 57 57
50 51 52 53 53 52 52 52 52 52 51 48 46 46 45 44 34 38 36 38 39 45 46 45 46 47 46 47 44 44 43 41 45 42 41 41 44 47 48 49 52 54 56 56 56 58 58 57 58 56 56 57 57 56
50 50 51 52 52 52 52 52 53 51 48 43 43 36 39 37 38 41 43 45 49 48 45 45 44 45 43 46 43 44 43 45 39 37 40 42 43 46 47 50 52 54 56 55 55 55 56 57 57 57 56 56 55 53
50 50 51 52 52 52 52 53 53 47 45 42 44 37 40 46 46 48 48 45 47 46 46 46 45 45 43 45 42 42 41 41 41 40 41 43 45 46 49 51 52 52 53 55 55 55 54 55 54 53 54 53 53 52
50 50 49 52 52 51 52 51 46 46 45 43 43 42 44 44 44 45 46 45 47 47 47 47 44 45 42 43 43 42 42 40 41 41 43 45 46 47 49 54 54 55 54 54 54 53 54 53 52 51 52 52 51 51
50 46 52 51 51 51 52 46 45 42 43 45 43 47 45 46 46 45 46 47 47 49 46 45 44 42 42 40 40 42 41 42 43 44 45 45 46 48 50 51 53 53 52 51 51 52 52 52 52 51 49 50 50 50
45 51 51 50 50 49 47 46 43 44 42 44 42 44 46 47 47 46 47 48 49 45 45 45 44 42 40 41 39 41 42 43 43 45 45 47 48 49 51 50 51 51 51 51 51 52 52 51 51 50 49 51 51 49
49 49 50 52 51 46 42 43 44 41 45 46 45 45 46 47 48 47 47 46 46 48 47 44 43 40 40 40 42 42 42 42 44 45 46 48 48 50 51 50 51 51 51 51 50 50 50 51 51 51 51 52 50 49
50 51 51 51 51 45 43 43 47 43 43 44 45 46 46 45 46 47 47 47 46 46 45 43 43 42 42 43 43 44 45 46 46 46 47 47 48 50 49 50 49 49 49 50 50 46 51 50 51 51 53 51 51 51
49 48 51 49 46 45 45 44 43 45 45 44 46 45 45 46 45 45 46 45 46 43 43 43 43 43 44 44 45 46 47 47 46 47 47 47 48 48 48 49 49 49 49 49 49 49 49 52 52 51 52 52 53 52
46 50 46 47 44 45 44 47 46 47 44 46 45 45 43 43 42 43 43 46 43 43 43 44 44 44 46 47 47 48 49 48 47 46 45 45 47 47 47 48 48 48 49 49 50 51 53 54 53 53 53 54 51 54
49 47 45 45 44 43 44 49 46 46 43 43 44 44 42 42 44 45 43 42 43 44 45 45 46 47 47 49 49 49 49 49 47 47 47 46 46 47 47 48 48 49 50 52 52 53 53 49 51 53 54 53 54 55
50 44 43 43 44 41 48 46 47 43 43 42 42 40 41 42 44 43 41 42 43 44 46 46 47 47 47 48 47 47 48 48 47 47 47 47 46 47 51 51 52 52 54 54 53 53 54 55 51 54 55 55 55 54
41 41 42 37 43 43 43 42 42 42 40 41 41 40 41 42 40 38 37 42 43 45 46 46 47 46 46 45 45 47 48 48 47 46 47 48 47 49 51 51 52 53 54 53 53 54 56 56 56 56 56 55 55 55
33 40 38 40 40 42 42 40 41 41 42 42 42 42 42 42 41 35 40 43 44 45 47 47 47 46 45 45 46 46 48 48 48 51 53 53 53 52 51 51 51 53 53 54 55 56 57 57 57 57 56 56 49 57
37 38 40 42 42 43 42 43 44 43 43 42 41 42 43 39 38 42 44 45 46 47 47 47 47 47 47 47 47 48 49 49 50 53 54 53 55 56 56 54 53 55 56 58 57 57 57 57 57 58 59 60 60 60
41 40 39 41 42 43 43 41 41 40 41 42 43 40 41 42 41 44 45 47 47 47 48 48 48 48 48 49 50 50 51 52 52 53 52 53 53 54 54 55 55 47 54 55 58 56 56 57 57 58 58 59 60 60
40 41 42 41 42 41 41 40 40 42 42 41 41 40 42 44 46 46 47 47 47 47 47 47 48 49 50 50 51 52 53 52 53 53 52 51 54 56 57 55 55 55 56 56 49 51 57 57 58 57 58 59 60 59
40 40 40 41 40 38 41 42 42 44 43 43 43 43 43 44 46 47 47 47 47 47 48 49 50 51 49 50 52 53 54 54 54 55 53 55 58 60 59 59 58 58 57 57 58 58 48 53 52 57 57 58 57 58
40 41 40 39 39 42 43 43 43 44 44 43 43 43 43 44 47 48 47 48 48 49 51 52 51 51 51 51 51 52 53 56 55 57 57 57 57 57 57 57 58 58 57 57 58 58 58 57 57 58 57 57 57 53
40 39 39 38 40 43 44 43 43 45 44 43 43 44 46 45 45 49 52 51 51 51 50 51 51 53 56 57 57 57 48 56 56 57 58 59 60 59 59 58 58 58 58 58 58 58 58 57 57 61 59 58 60 59
39 40 40 40 41 43 47 46 47 47 46 47 48 48 47 46 47 52 54 54 54 52 53 54 55 55 56 56 56 55 51 57 54 45 44 43 43 47 54 57 58 59 60 60 59 59 59 59 58 58 57 59 59 58

GFSWCAN_sfc_temp_063.txt.gz
Temp
55 55 55 56 56 56 55 55 55 55 56 56 56 56 56 56 55 52 52 52 53 52 55 59 63 60 63 62 58 62 62 64 65 60 60 59 58 59 58 56 56 57 57 59 57 56 54 64 65 60 61 63 63 64
54 55 55 55 56 55 55 55 55 55 55 56 56 56 56 55 54 50 51 56 55 50 56 58 63 66 66 67 62 62 60 59 62 61 59 59 59 57 55 52 58 54 59 56 56 58 61 64 62 63 63 61 63 63
53 54 55 55 55 55 55 55 55 55 55 55 56 56 56 55 54 52 51 52 54 51 56 58 63 65 65 65 71 62 63 63 62 62 64 62 58 62 56 59 58 59 59 58 57 61 63 64 64 64 64 62 64 65
52 54 54 55 55 55 55 55 55 54 55 55 56 56 55 55 54 52 51 53 52 52 49 60 66 64 68 66 67 69 66 61 62 63 63 61 62 61 61 61 62 63 61 60 61 63 63 64 64 64 63 64 65 66
54 54 54 54 55 54 55 55 54 54 55 55 55 55 55 54 53 51 50 53 54 53 51 55 62 65 67 66 68 66 65 64 66 63 62 61 62 60 61 62 62 64 62 63 60 62 62 63 64 65 63 64 65 65
52 53 54 54 54 54 55 54 54 54 54 55 55 55 54 54 52 50 50 51 52 54 51 51 62 62 67 67 66 64 65 63 65 65 64 63 60 62 60 59 63 63 62 65 62 63 63 65 65 65 63 65 66 64
52 52 53 54 54 54 54 54 54 54 54 54 54 54 53 53 52 50 50 53 51 53 51 51 57 64 63 64 64 64 61 62 64 62 63 64 63 64 63 59 65 67 67 64 64 63 64 63 63 64 64 65 64 66
51 53 53 53 54 54 54 54 53 53 53 54 53 53 53 52 51 52 54 52 53 52 52 49 54 60 63 63 62 60 63 63 60 61 61 63 61 62 60 59 62 63 64 64 66 66 65 65 64 64 65 65 64 64
51 52 52 53 54 54 54 53 53 53 53 53 53 53 54 52 50 53 54 55 54 54 51 51 53 55 64 61 61 62 62 61 61 62 62 60 60 59 57 57 59 61 62 64 66 68 67 64 64 64 65 65 64 64
51 51 52 53 53 53 53 53 53 52 52 52 51 50 48 53 56 55 53 51 51 53 51 51 57 57 63 60 59 60 60 59 57 59 61 60 59 57 59 59 59 59 61 64 63 65 65 64 63 63 63 65 66 65
51 51 52 53 53 53 53 53 52 51 50 47 46 49 56 56 53 51 49 48 50 48 50 54 56 59 61 60 58 58 58 57 55 56 58 56 56 57 59 59 61 62 63 65 65 66 66 65 64 64 64 65 65 65
50 51 51 53 53 53 52 52 52 48 46 51 53 53 55 52 49 45 45 48 47 49 50 52 57 59 59 59 60 57 56 56 51 57 56 53 54 56 57 59 61 63 65 65 66 66 66 66 65 64 63 61 62 62
50 50 51 52 53 52 52 52 52 51 52 54 50 48 49 48 37 40 40 45 46 52 51 52 54 58 56 60 56 57 54 54 58 54 53 54 54 57 56 59 61 64 65 64 64 64 66 66 66 66 65 65 64 61
50 50 51 52 52 52 52 52 52 52 54 47 47 37 44 42 45 48 50 52 55 54 52 55 54 56 57 57 57 54 55 57 50 47 50 54 55 56 57 60 61 60 62 63 63 64 64 65 65 65 66 66 65 63
50 50 50 52 52 52 51 52 52 53 50 47 48 38 44 51 53 54 56 53 54 55 55 55 55 56 55 54 56 53 50 49 51 51 53 55 55 56 58 59 60 58 58 58 59 61 61 63 63 62 63 63 63 61
50 50 49 52 52 51 51 51 53 51 47 46 46 45 50 49 52 53 54 54 57 55 57 57 53 54 52 55 53 52 51 48 52 54 55 55 55 57 58 58 55 57 57 59 61 61 62 62 61 60 61 61 61 60
50 48 51 52 51 52 52 51 50 45 45 46 46 51 50 51 51 55 55 57 57 57 55 54 52 50 53 52 51 54 52 54 54 56 55 56 57 58 59 59 59 57 55 59 61 62 62 61 61 60 58 58 59 59
48 51 51 50 50 50 50 50 48 45 41 47 46 50 51 52 53 54 55 55 57 56 55 55 55 52 51 50 51 53 54 54 56 58 57 57 57 58 61 61 60 60 60 59 60 60 60 60 55 55 57 56 59 59
51 52 51 52 52 50 46 46 46 40 46 50 49 48 48 50 54 53 54 56 57 58 57 57 53 51 52 54 55 54 54 55 55 55 57 57 58 59 60 60 59 59 60 59 59 60 58 58 57 57 57 61 63 62
51 51 52 53 52 47 42 43 48 43 46 46 47 47 48 49 50 52 54 56 58 59 56 54 54 54 56 55 55 56 56 56 57 56 57 57 58 59 59 60 61 59 59 58 59 50 58 56 59 62 58 63 63 62
49 49 51 51 49 46 46 46 45 46 45 44 47 47 48 50 50 52 55 57 58 54 54 55 54 53 54 54 57 56 56 59 60 62 60 61 60 60 60 60 59 60 60 62 58 56 49 55 56 62 62 64 65 66
47 52 48 48 44 46 45 48 45 46 44 46 47 51 51 51 51 51 53 56 53 52 55 55 54 54 55 56 56 58 58 58 57 58 50 53 60 59 59 60 59 60 61 60 59 59 55 55 57 59 64 65 60 66
51 49 46 45 42 42 42 48 45 46 44 48 52 51 49 50 52 55 52 53 55 55 54 55 55 56 58 58 58 58 58 59 61 60 59 60 59 59 58 59 59 59 59 58 58 57 55 50 55 61 64 63 66 66
49 45 43 44 43 41 49 46 51 48 49 48 48 48 48 49 53 53 49 54 55 57 58 55 59 59 58 57 59 59 60 60 59 58 59 58 58 58 61 58 58 56 62 65 62 61 58 57 56 65 67 66 66 66
41 41 44 38 46 45 46 47 47 49 46 47 48 47 49 52 50 47 47 54 54 55 57 58 59 59 59 60 60 59 58 59 59 57 61 59 59 61 61 56 58 61 62 57 55 57 63 64 65 66 64 66 66 66
37 45 41 47 46 48 47 45 47 47 49 48 48 51 52 52 48 43 51 53 54 56 58 59 59 57 57 59 58 59 59 58 59 58 61 61 59 57 61 59 58 63 66 63 64 58 60 66 66 65 66 65 52 61
39 43 47 49 49 50 48 50 51 50 47 47 49 50 52 46 46 51 55 56 59 60 60 61 60 59 60 61 61 61 62 62 60 60 61 64 65 64 64 63 63 67 68 66 63 62 63 67 66 67 68 69 70 69
45 45 44 46 49 51 48 48 47 45 48 50 52 48 48 49 49 55 58 59 60 61 61 62 61 61 61 62 63 63 63 63 63 62 64 65 65 65 65 67 66 50 64 67 67 68 67 67 68 68 68 68 70 71
46 48 50 47 49 48 44 47 48 51 52 53 51 50 52 57 59 59 60 61 61 61 59 60 61 60 60 61 62 63 63 63 60 59 59 61 64 63 59 59 64 69 70 69 48 56 66 67 68 69 69 69 70 71
47 50 50 48 46 46 49 51 52 54 55 54 55 55 56 58 59 59 60 60 60 60 60 59 57 58 59 59 61 61 64 64 64 64 62 61 65 67 68 68 68 69 70 69 69 70 49 56 58 63 63 67 68 68
50 52 49 48 48 51 52 52 54 54 55 54 54 54 53 54 58 61 60 60 61 61 59 61 62 63 60 62 62 62 64 68 66 65 65 66 67 68 69 68 69 70 69 68 68 68 68 67 67 66 66 65 65 62
49 46 48 46 48 52 53 51 50 50 52 51 52 53 53 52 52 57 60 59 59 61 56 59 60 62 64 63 62 63 50 63 63 66 65 66 67 68 68 70 70 69 69 69 68 67 65 64 63 62 63 65 67 66
47 48 48 48 48 49 48 50 52 51 52 53 53 55 55 55 54 61 65 63 63 63 64 65 66 65 63 62 63 66 55 67 61 46 43 42 41 48 60 67 68 68 68 68 68 68 67 66 66 65 64 65 65 65

GFSWCAN_sfc_temp_066.txt.gz
Temp
54 55 55 56 56 56 56 56 56 56 56 56 57 57 57 56 55 57 64 64 61 62 67 68 70 65 69 72 67 69 66 71 72 66 65 66 63 65 63 63 65 65 64 65 67 62 59 72 72 65 65 70 70 72
52 54 54 55 56 56 56 55 55 55 56 56 56 57 57 56 55 53 61 66 67 58 65 70 71 73 72 72 68 73 65 65 68 67 68 73 66 68 64 60 67 62 68 66 64 64 68 73 70 70 71 69 70 70
52 53 54 55 55 56 56 55 55 55 55 56 56 57 56 56 55 55 61 61 62 61 67 70 72 76 77 76 80 69 76 71 71 71 75 74 64 73 65 67 67 67 69 70 65 68 70 72 73 73 73 71 72 73
53 54 54 55 55 55 55 55 55 55 55 55 56 56 56 55 54 54 60 62 61 62 60 69 77 73 77 78 76 77 74 73 73 75 73 73 70 75 72 69 69 73 69 67 67 70 72 72 73 73 72 72 72 74
52 53 54 54 55 55 55 55 55 55 55 55 55 56 56 55 54 57 59 61 61 59 60 65 74 77 78 75 74 75 73 71 75 71 70 70 76 72 75 74 69 75 70 68 62 70 70 69 72 73 71 71 72 71
52 52 52 54 54 55 55 54 54 54 55 55 55 55 55 54 53 61 58 61 60 64 60 60 74 71 74 75 74 72 73 74 74 72 73 76 70 69 67 66 71 75 74 75 69 72 70 72 72 72 70 71 72 71
52 52 52 54 54 54 55 54 54 54 54 54 54 54 54 53 60 59 57 59 55 63 60 60 67 72 74 74 76 76 73 76 74 75 70 74 73 70 71 65 72 75 75 72 72 71 70 71 70 72 72 71 69 72
51 52 52 53 54 54 54 54 54 53 53 53 53 53 53 53 54 59 65 53 58 61 63 57 63 67 73 71 69 76 72 73 72 73 72 71 72 72 65 68 71 72 73 73 74 74 73 74 73 73 73 72 70 71
51 51 52 52 53 54 54 54 53 53 53 53 53 53 57 56 60 63 56 56 58 59 57 61 60 60 73 73 74 71 73 66 74 69 72 71 69 63 65 65 68 70 70 72 74 75 75 73 72 72 72 72 71 68
51 51 52 52 53 54 53 53 53 52 52 52 53 50 56 64 56 56 58 55 56 59 60 56 68 64 71 70 68 70 71 69 63 70 74 67 69 67 69 68 68 69 71 73 70 70 71 71 70 71 70 72 71 70
51 51 52 52 53 53 53 53 52 51 51 49 48 54 64 57 63 62 55 53 57 52 61 63 66 66 73 66 67 72 68 70 61 65 65 65 65 66 66 67 70 71 72 73 74 74 74 73 71 71 70 71 69 71
50 51 51 52 53 53 53 52 52 58 57 51 54 62 64 59 58 52 51 56 54 55 59 61 66 69 70 72 69 67 65 66 57 70 64 60 64 65 67 68 69 70 73 73 74 73 73 73 74 73 72 66 60 63
50 50 51 52 53 53 52 52 52 53 54 56 56 56 56 56 39 46 44 51 55 61 59 59 61 66 65 69 69 66 59 61 70 61 61 64 63 65 66 71 69 71 72 72 72 73 74 73 74 74 72 72 70 70
50 50 50 51 53 52 52 52 52 52 54 49 52 36 49 48 52 55 55 58 65 62 59 61 63 64 67 64 69 59 65 65 56 54 58 65 64 64 67 71 70 67 68 70 70 71 72 72 71 73 73 73 72 69
50 50 50 50 52 52 52 52 53 56 52 52 55 41 51 59 65 63 63 63 65 65 62 61 64 65 63 61 66 62 56 54 59 60 65 66 64 64 65 66 66 66 67 67 68 68 68 69 70 70 70 71 70 69
50 50 52 52 52 52 51 52 54 58 56 54 54 53 60 57 57 59 61 60 67 66 65 66 62 60 60 64 58 57 56 54 61 66 68 65 62 64 64 65 66 67 68 65 62 66 68 68 69 69 70 71 69 67
49 54 51 51 51 50 51 51 51 46 50 50 54 61 60 57 56 60 65 65 68 63 59 62 56 57 64 59 57 65 61 65 67 67 68 65 63 64 66 65 66 67 66 62 66 67 67 70 70 67 64 66 68 66
53 56 52 50 50 50 51 51 48 46 43 54 54 61 58 59 60 61 63 65 63 62 63 62 65 59 57 55 59 64 66 68 71 68 68 66 66 66 67 66 67 68 68 67 65 65 67 65 64 65 63 63 66 65
55 53 51 51 52 52 49 50 54 43 50 59 60 56 57 58 62 62 62 64 66 69 67 66 61 60 62 67 66 66 67 68 66 66 67 66 66 65 67 67 67 67 67 66 65 68 69 64 62 64 66 67 70 70
51 51 51 54 56 52 49 52 58 50 47 55 54 53 53 56 61 61 63 63 65 66 63 63 63 65 66 65 68 68 69 69 68 65 65 68 69 65 65 66 66 65 68 66 68 54 66 66 63 63 70 70 70 68
50 50 53 55 54 54 53 52 50 48 52 51 53 52 49 57 58 59 61 62 65 64 60 63 64 63 65 67 69 69 66 70 69 67 64 63 68 69 66 67 67 69 69 70 70 65 58 64 63 65 68 70 72 72
48 51 48 49 48 45 43 49 46 49 48 49 49 48 48 53 53 59 59 63 59 61 65 65 65 65 64 64 65 67 65 66 66 65 51 58 67 68 68 70 68 67 69 70 69 68 64 63 63 66 67 71 66 73
51 49 47 46 40 42 42 49 45 46 42 44 45 45 49 52 59 65 59 62 62 65 66 66 64 65 65 65 65 65 66 66 68 70 69 69 69 69 69 69 70 68 67 67 70 64 64 55 58 68 71 71 72 72
50 45 41 39 42 39 45 45 46 47 48 49 53 52 54 58 66 61 56 60 63 66 66 63 67 65 66 64 67 69 66 68 68 69 69 68 67 66 68 70 69 68 63 71 67 66 65 58 54 60 68 68 66 66
38 38 39 36 44 45 46 50 53 56 51 55 53 52 56 63 57 54 54 58 63 65 66 66 68 68 67 70 71 70 66 69 68 66 70 69 70 68 66 65 67 65 68 62 62 68 60 60 60 64 65 67 68 68
35 45 42 51 53 53 55 52 54 54 55 53 54 59 63 60 54 48 57 58 60 61 62 63 64 68 68 69 67 70 69 72 69 68 69 73 68 68 64 61 62 66 67 67 59 61 65 68 66 67 68 68 54 68
43 48 54 58 58 59 57 59 60 57 54 53 57 58 59 51 51 56 60 64 62 67 69 70 69 69 68 69 72 72 74 72 68 68 72 75 76 74 71 66 62 71 76 72 72 67 66 67 67 67 69 70 71 72
51 53 50 57 57 60 54 54 53 52 56 60 63 53 53 54 54 61 63 67 69 71 72 73 71 70 69 70 74 74 72 73 72 70 72 73 74 74 73 74 75 51 71 75 75 74 73 73 73 72 70 70 70 73
54 59 62 56 57 56 54 55 56 59 61 64 59 57 59 64 67 65 68 71 74 71 69 69 66 66 67 70 70 71 72 72 67 61 63 66 66 70 74 73 74 70 72 75 53 61 71 73 74 75 74 74 75 75
54 62 57 55 54 52 56 61 59 62 64 64 67 65 65 65 67 71 72 72 70 69 69 69 68 67 66 68 67 67 71 72 72 69 66 64 67 73 76 74 75 77 77 76 75 76 48 57 65 69 68 71 72 73
61 62 57 57 54 58 60 63 64 65 65 64 65 63 61 62 66 69 69 69 70 70 70 66 70 70 66 68 71 69 67 74 75 73 73 74 75 75 76 76 76 77 77 76 75 75 75 73 73 72 72 72 72 67
58 55 56 53 54 59 59 56 58 58 59 58 58 60 57 55 54 61 67 69 69 69 61 66 69 69 74 75 75 73 52 72 71 73 72 74 74 75 76 77 77 77 76 76 76 75 74 73 72 72 72 70 70 70
56 57 58 55 47 51 54 54 54 54 57 57 58 59 61 62 57 66 73 74 70 69 70 72 74 75 73 72 73 72 60 75 67 51 48 44 40 49 63 72 75 76 75 75 75 75 74 73 73 72 72 71 71 72

GFSWCAN_sfc_temp_069.txt.gz
Temp
54 54 55 55 56 56 57 56 56 56 56 57 57 57 57 57 57 60 72 74 66 65 71 74 75 70 73 75 69 65 74 77 75 66 69 67 63 62 69 70 67 68 66 68 69 64 60 77 78 68 66 73 74 75
52 53 54 54 55 56 56 56 56 56 56 57 57 57 57 57 57 56 68 75 74 63 68 75 76 78 77 76 72 76 72 69 70 68 67 73 68 73 67 63 72 62 70 62 64 61 72 77 72 74 76 74 74 74
53 53 54 54 55 56 56 56 56 56 56 56 57 57 57 56 56 55 68 70 68 63 69 74 75 83 87 84 86 70 79 71 70 72 69 71 64 62 64 64 68 72 75 67 68 71 73 75 77 78 77 75 77 77
53 53 54 54 55 55 56 56 55 55 55 56 56 57 56 56 55 54 67 72 67 64 62 74 84 78 85 86 82 82 78 79 77 76 71 72 66 69 70 68 67 68 56 72 71 73 75 76 76 76 76 77 77 78
53 53 53 54 55 55 56 55 55 55 55 56 56 56 56 55 55 58 68 71 70 62 59 66 78 84 85 82 79 80 78 75 77 75 73 71 79 77 78 78 74 71 71 68 59 73 73 72 75 77 76 75 77 75
53 53 53 53 54 55 55 55 55 55 55 55 55 56 55 55 54 58 65 71 71 68 60 63 83 77 80 80 79 77 78 76 77 75 75 78 79 73 69 66 74 76 63 78 70 77 76 76 76 77 75 76 76 75
52 53 53 53 54 55 55 55 54 54 54 54 54 54 54 54 62 63 60 63 57 67 59 62 71 79 81 79 80 79 78 77 77 75 74 75 76 73 71 66 72 77 79 76 78 77 74 76 74 77 78 77 74 76
52 52 52 53 54 55 55 54 54 54 54 54 53 54 54 54 55 61 71 56 63 65 65 60 68 73 80 74 72 80 76 78 76 74 77 74 76 74 67 72 75 73 77 77 78 79 77 78 78 78 79 78 76 75
52 52 52 52 53 54 54 54 54 53 53 53 53 54 57 55 63 68 57 58 65 63 58 64 64 65 80 75 78 77 78 69 79 71 73 75 71 66 70 71 74 76 75 77 78 79 79 77 76 77 77 77 74 70
51 52 52 52 53 54 54 54 53 52 52 53 53 52 58 68 56 60 61 61 61 63 61 58 72 68 76 74 72 72 74 70 66 72 80 70 69 74 77 75 76 75 77 79 74 73 74 74 75 75 75 74 71 67
51 51 52 52 53 54 54 53 52 51 52 50 46 52 69 58 67 64 59 59 62 57 60 65 69 69 79 69 69 75 71 72 63 69 68 68 69 72 74 74 77 77 77 79 79 79 79 78 76 73 73 70 66 64
51 51 52 52 52 53 53 52 52 59 56 53 54 63 66 64 57 55 55 61 60 57 62 63 69 73 76 78 70 72 66 70 60 75 68 63 63 72 74 74 75 76 79 78 79 77 78 76 76 74 74 72 68 64
51 51 51 51 52 53 52 52 53 54 57 58 55 55 55 56 42 48 48 56 58 65 64 63 66 72 74 74 70 69 62 63 77 66 64 67 68 71 72 76 75 78 78 78 77 78 77 74 76 74 75 77 75 73
51 51 51 51 52 53 52 53 53 54 56 53 50 40 49 51 56 59 61 63 70 69 65 63 66 68 72 67 69 61 67 72 60 58 62 69 68 70 72 77 76 74 74 76 76 76 74 73 74 74 74 76 75 73
50 51 51 51 52 52 52 51 52 52 53 49 55 43 54 64 67 71 70 68 72 71 68 65 66 70 67 65 68 65 60 57 62 63 69 70 69 70 70 71 73 72 73 74 73 73 72 74 74 73 73 75 75 75
50 50 53 52 52 52 51 51 51 52 53 57 57 56 62 63 64 64 66 66 68 70 71 69 64 61 62 65 61 59 58 58 66 71 73 69 67 69 69 71 72 71 70 69 71 68 71 72 70 70 71 74 74 72
49 58 52 52 51 51 52 49 50 49 51 52 57 66 63 61 63 65 69 64 70 68 62 64 59 59 66 60 60 67 64 68 71 73 74 70 68 68 69 70 70 70 70 71 69 68 68 72 71 70 67 68 70 69
56 56 52 50 50 50 48 50 47 46 44 56 57 59 62 67 63 66 64 67 68 66 66 63 68 58 59 57 62 69 72 75 77 74 73 70 69 70 71 70 70 72 72 71 71 70 67 70 68 67 67 69 70 68
60 54 51 52 52 48 44 47 52 47 55 62 63 64 68 66 68 67 67 71 71 72 69 67 62 61 63 71 66 72 72 74 72 72 72 71 71 70 70 71 71 71 71 70 70 72 73 69 67 68 69 71 68 68
52 51 51 54 56 53 51 52 59 56 55 58 65 64 64 61 66 65 67 68 67 65 62 61 62 69 64 71 73 74 75 75 74 71 70 70 73 69 68 70 72 69 70 72 72 63 73 73 68 68 69 66 66 69
50 50 51 51 57 58 57 56 58 60 59 56 64 59 57 61 57 62 64 69 65 57 59 66 66 70 71 72 75 75 72 74 73 71 69 71 72 69 72 71 69 72 73 74 74 73 66 72 66 67 69 69 70 71
48 52 49 52 51 52 56 61 55 58 54 55 55 57 55 53 54 62 69 63 58 61 69 69 68 68 67 68 70 71 69 70 69 70 53 61 71 72 73 74 73 71 71 66 69 74 74 77 70 66 68 69 65 68
51 50 48 49 47 41 42 57 46 52 48 48 50 45 46 52 57 68 54 57 57 70 71 70 69 70 68 69 69 69 71 69 71 69 70 74 74 74 74 73 74 69 67 68 70 72 74 57 62 69 69 71 73 68
52 47 44 43 41 39 47 46 49 47 48 46 41 42 50 54 58 49 51 56 65 71 69 66 71 69 70 68 71 71 73 74 72 73 74 73 72 66 66 68 67 69 70 74 69 72 70 66 58 71 72 68 69 71
41 40 40 36 43 41 44 43 42 42 41 41 43 50 53 59 57 56 55 59 66 68 69 71 72 71 70 74 75 74 70 74 73 72 69 70 67 69 67 72 73 74 73 68 65 67 67 67 69 68 70 67 61 63
32 38 34 38 43 42 44 45 48 52 55 56 58 63 65 62 57 52 58 60 63 66 70 70 71 65 69 75 72 73 71 77 74 65 67 69 73 67 68 70 68 67 78 73 71 70 68 69 69 69 69 65 52 62
42 49 54 62 64 64 60 62 64 61 59 58 62 62 62 55 53 57 62 66 67 72 74 76 73 72 72 73 75 76 78 76 72 71 73 71 70 73 71 71 68 70 72 75 72 71 66 67 64 62 62 67 72 68
56 60 56 61 61 62 57 59 59 58 61 69 67 58 57 57 54 62 66 73 74 76 77 77 77 75 73 73 74 74 70 75 74 75 77 77 77 76 76 73 74 51 73 76 71 70 66 70 73 72 73 73 71 74
60 64 66 60 62 62 62 61 61 66 69 65 62 59 59 67 71 71 73 75 80 77 69 64 66 72 73 67 72 74 72 72 63 64 61 57 55 58 67 76 76 75 77 78 56 61 74 75 75 74 73 73 75 76
62 69 62 61 59 57 62 67 65 69 71 72 71 70 70 70 72 78 77 76 69 66 69 69 70 71 67 64 70 70 75 76 75 65 60 66 67 74 73 66 66 76 76 75 74 73 48 56 66 72 71 73 74 74
68 67 63 62 58 62 65 70 72 72 71 67 67 61 59 61 64 68 69 71 73 73 69 60 66 73 71 64 62 57 59 63 67 72 73 74 77 73 75 70 75 74 76 76 75 75 76 72 75 74 75 73 71 63
66 63 61 54 53 59 62 59 60 59 62 63 64 67 66 63 61 68 75 69 59 62 59 68 70 68 73 71 73 75 54 78 73 72 74 73 74 75 78 77 79 78 73 74 75 76 75 73 73 74 75 74 74 74
64 63 60 58 58 57 62 59 55 53 59 59 60 60 55 61 55 64 72 73 74 74 71 73 70 69 75 75 75 74 61 75 69 53 52 47 41 50 67 77 78 77 75 75 75 76 75 73 72 72 71 70 70 70

GFSWCAN_sfc_temp_072.txt.gz
Temp
54 54 54 55 55 56 57 57 57 57 57 57 57 58 58 58 57 60 67 75 67 62 67 71 75 69 71 72 66 71 71 76 74 66 49 54 53 66 64 55 62 60 58 66 68 64 59 74 75 65 68 71 73 74
54 53 53 54 55 55 56 57 56 56 56 57 57 57 58 58 57 57 63 77 77 65 66 73 74 76 75 75 70 72 63 56 72 68 68 52 49 64 59 48 60 60 51 55 66 64 72 74 71 74 76 72 73 74
54 53 53 54 55 55 56 56 56 56 56 56 57 57 57 57 57 56 64 70 71 66 69 72 71 82 85 82 86 70 71 64 73 74 69 69 56 58 59 62 67 71 63 66 68 71 72 72 75 75 75 75 77 77
54 54 54 55 55 55 56 56 56 56 56 56 57 57 57 56 55 55 62 70 69 66 60 71 83 80 86 86 85 84 78 78 78 78 70 69 60 55 63 62 64 57 55 50 59 72 73 74 75 76 76 77 76 77
54 54 53 54 54 55 56 56 55 55 55 56 56 56 56 56 55 58 65 69 73 63 58 63 71 80 86 83 82 82 79 74 75 73 71 66 73 70 73 73 66 57 52 53 52 66 57 69 75 77 75 75 76 75
54 54 53 53 54 55 56 56 55 55 55 55 55 56 55 55 54 62 56 72 76 72 60 59 75 76 82 81 79 77 78 76 76 73 72 76 78 73 67 66 71 66 69 66 59 61 74 76 77 78 76 77 77 75
53 53 53 53 54 55 55 56 55 55 55 54 54 54 55 55 59 57 58 64 59 70 60 59 66 78 82 79 77 77 80 76 75 73 72 73 75 75 69 64 65 66 69 68 73 73 73 75 73 78 78 78 74 78
53 53 53 53 53 54 55 55 54 54 54 54 53 53 54 54 54 58 69 59 62 65 66 55 63 69 80 73 71 79 75 77 75 73 75 73 75 74 65 72 75 77 77 77 78 79 78 78 79 79 80 79 77 75
53 53 53 53 53 53 54 54 54 53 53 53 53 54 59 57 60 66 60 58 66 64 57 62 58 55 79 76 77 76 76 68 78 71 72 74 69 65 71 73 74 76 75 75 79 79 80 77 76 77 76 74 72 71
52 52 52 52 53 53 54 54 53 52 52 53 54 50 54 66 57 59 62 61 61 64 62 55 65 59 61 74 72 73 73 69 65 72 78 70 68 75 77 76 75 76 77 79 75 73 74 65 73 67 69 72 69 65
52 52 52 52 53 53 54 53 52 51 52 50 49 49 66 58 67 64 56 58 61 58 64 61 63 61 74 69 69 74 65 70 63 67 68 66 63 71 76 75 77 78 79 79 79 79 79 77 71 69 67 71 69 66
52 52 52 52 52 53 53 52 52 56 53 55 55 57 68 63 57 54 54 60 60 58 66 60 63 71 73 76 69 71 66 68 60 69 61 62 59 73 75 76 77 78 79 80 80 76 78 77 72 70 73 72 71 70
51 51 52 52 52 52 52 52 54 55 56 56 52 50 53 55 41 48 48 56 58 66 66 63 61 71 65 72 68 59 62 59 74 65 64 65 68 72 74 77 77 79 79 80 79 79 77 75 75 75 73 68 73 66
51 51 51 51 51 52 52 53 53 53 57 51 49 38 48 49 55 58 60 63 69 70 68 66 61 67 71 67 68 61 68 70 59 59 60 64 68 71 74 78 77 75 76 77 74 75 71 71 67 75 75 71 71 70
51 51 51 51 52 52 52 52 52 54 49 50 56 42 53 62 67 68 72 70 72 73 71 65 62 64 66 55 66 53 58 56 62 61 61 68 69 70 71 72 73 73 71 70 71 71 71 64 59 58 71 73 74 69
51 51 53 55 53 52 51 51 51 52 50 51 55 55 63 62 64 67 70 69 73 73 71 69 62 60 51 62 61 58 57 57 63 66 69 69 68 69 70 72 72 72 70 71 68 70 69 70 62 66 73 71 67 67
49 56 54 53 52 50 51 49 48 46 46 46 57 65 66 61 62 66 70 70 74 68 61 64 55 56 65 60 60 65 62 63 68 70 71 68 68 69 70 70 70 70 70 70 70 70 69 71 71 68 65 68 68 66
55 58 53 51 50 50 48 49 47 45 44 53 57 63 67 68 67 66 71 73 68 66 64 60 65 57 56 55 58 65 70 67 73 70 70 69 69 71 72 69 71 72 72 72 71 70 71 69 69 70 67 69 65 64
58 56 51 52 52 50 45 45 48 44 54 60 63 66 68 67 69 70 70 70 68 70 68 64 59 57 59 66 62 67 67 73 71 71 69 71 69 66 71 71 72 71 70 66 69 71 71 71 71 69 69 69 66 67
53 51 52 52 54 48 46 46 57 53 56 61 65 64 66 63 67 67 66 53 57 65 60 56 59 56 65 60 59 72 68 73 73 69 68 70 72 71 69 70 62 64 71 71 72 62 73 67 71 71 69 68 67 69
51 51 52 50 49 51 53 55 55 59 60 59 64 63 63 64 60 59 59 66 64 61 59 57 55 54 62 69 73 74 70 70 69 70 63 56 68 72 69 66 71 72 72 73 71 66 63 68 67 72 70 68 70 71
50 51 48 51 47 52 53 62 57 62 60 58 57 60 57 54 54 57 66 62 56 55 55 51 54 61 64 68 68 69 69 71 69 71 60 64 71 72 73 73 72 68 69 67 66 71 71 68 72 72 71 69 63 73
51 50 48 52 50 46 47 59 52 56 50 52 57 53 54 52 55 54 50 54 54 55 50 49 54 68 68 69 69 69 70 69 71 71 70 71 74 75 73 70 71 69 67 69 70 69 68 55 65 69 66 69 68 68
51 50 49 48 48 41 51 49 54 54 52 50 47 48 50 50 51 52 50 53 61 60 59 62 69 68 69 68 69 65 70 74 73 74 75 71 69 69 72 71 70 73 65 64 63 64 70 65 57 70 70 69 68 63
41 43 44 38 45 42 45 47 47 47 44 47 46 47 47 49 46 50 50 50 59 63 69 68 62 70 70 68 73 72 73 76 74 70 70 73 71 67 66 71 66 64 71 71 68 68 68 69 68 67 68 59 64 59
35 42 38 44 42 43 45 42 43 44 46 45 49 53 50 47 46 48 56 55 52 61 70 68 67 68 68 70 70 71 74 77 75 70 70 70 66 63 64 62 64 71 75 74 71 66 69 69 68 68 67 64 53 64
33 37 41 44 47 45 44 50 54 51 49 50 56 58 60 54 51 55 60 69 66 64 68 69 70 71 69 72 75 76 75 75 68 71 70 72 71 71 72 69 68 73 76 74 71 70 70 70 69 69 69 71 68 65
43 48 43 46 45 57 55 56 57 59 62 69 68 60 55 55 53 61 64 67 73 75 74 75 75 75 73 73 76 75 75 72 75 73 70 71 74 72 63 66 65 53 73 75 73 74 73 71 71 71 69 70 64 68
61 64 64 59 61 62 62 60 62 66 69 66 61 60 61 65 69 69 73 75 76 74 72 70 73 72 70 73 74 71 71 67 64 60 63 62 58 57 60 61 65 59 65 71 54 60 72 62 65 65 68 71 74 75
63 68 62 60 58 57 63 69 68 72 74 73 73 70 69 70 74 77 73 74 71 69 68 66 73 68 68 67 66 67 71 68 66 62 58 65 69 66 72 66 60 66 62 59 63 63 52 60 63 67 67 72 73 71
69 66 62 63 61 67 71 73 72 73 72 68 69 64 60 67 70 73 70 67 66 64 69 66 58 68 62 67 67 68 70 71 75 62 58 61 62 61 58 57 59 64 65 69 62 63 64 70 70 69 70 70 72 70
60 61 60 57 59 64 65 62 60 58 59 57 58 62 60 62 57 56 55 56 62 62 55 60 65 63 63 72 64 61 52 73 75 68 66 68 73 73 75 77 78 78 77 74 72 71 73 73 70 70 70 71 68 67
61 59 60 57 58 58 62 63 60 59 60 60 58 59 62 61 57 57 67 65 58 66 68 61 62 62 63 70 71 71 62 75 59 46 48 47 42 49 65 75 75 74 73 73 72 73 72 69 68 67 67 63 62 60

GFSWCAN_sfc_temp_075.txt.gz
Temp
56 55 55 55 55 55 55 57 57 57 57 57 57 58 58 58 57 56 57 62 59 55 58 63 65 59 61 60 55 61 61 59 55 52 48 48 48 53 54 53 47 50 48 48 49 49 45 67 64 56 59 64 67 67
56 55 54 54 54 55 55 56 56 56 56 57 57 57 58 58 58 57 54 66 68 59 59 66 66 68 66 66 61 60 58 55 57 53 51 50 47 50 48 46 51 47 50 47 48 48 60 66 62 64 63 64 66 66
55 55 54 54 54 55 55 56 56 56 56 56 57 57 57 57 57 56 55 59 60 59 60 63 63 72 76 74 75 57 60 59 57 63 59 52 47 49 46 50 51 52 53 51 53 56 58 64 67 68 68 67 69 70
55 55 54 54 55 55 55 56 56 56 56 56 57 57 57 56 56 55 55 60 59 59 52 60 76 67 76 76 75 74 70 64 65 62 59 57 55 54 54 58 56 55 55 51 53 57 62 58 61 68 69 70 70 71
55 55 54 54 54 55 55 56 56 56 56 56 56 56 56 56 55 55 57 60 63 56 50 54 63 70 77 73 75 74 69 64 62 59 58 59 62 56 61 61 51 56 53 51 49 54 53 53 59 65 68 68 68 67
54 55 54 54 54 54 55 56 55 55 55 55 56 56 56 56 55 56 52 63 65 64 53 49 66 67 72 73 71 68 67 64 63 60 59 63 69 61 55 53 56 57 57 60 58 60 59 60 64 71 69 69 70 68
54 55 54 54 54 55 55 55 55 55 55 55 54 54 55 55 56 54 52 58 57 58 54 52 57 70 71 71 68 66 68 65 64 61 59 61 63 61 58 52 57 57 59 61 65 64 64 67 65 71 72 72 70 68
53 54 54 53 54 54 55 55 55 54 54 54 53 53 54 54 53 54 62 58 58 56 58 51 54 61 73 64 60 66 63 64 62 61 61 59 63 61 54 58 58 60 62 63 63 69 68 69 68 68 69 68 66 65
53 54 53 53 53 53 54 55 54 53 53 53 53 53 55 52 54 60 59 59 61 56 49 55 52 52 67 64 64 63 64 57 64 59 60 61 58 54 60 61 62 62 62 65 70 72 68 66 64 65 66 66 61 60
53 53 53 53 53 53 54 54 53 52 52 53 53 50 48 57 59 60 59 56 54 56 55 51 59 54 60 59 58 62 62 57 54 60 65 58 56 64 67 66 66 66 69 68 64 63 64 62 62 63 62 62 60 58
52 53 53 53 53 53 54 53 52 52 52 49 48 47 59 59 62 59 53 52 54 53 58 58 59 54 60 55 54 61 57 59 53 58 58 56 54 60 66 66 68 70 69 69 69 69 68 66 63 62 63 63 61 59
52 53 53 53 53 53 53 52 53 53 53 50 53 57 61 59 55 51 51 55 55 53 60 58 58 58 60 62 58 60 57 59 54 61 56 52 55 64 66 68 70 70 72 72 73 70 71 68 67 65 66 64 63 62
52 52 52 52 53 53 52 52 54 55 55 53 52 50 49 51 40 45 45 51 53 60 61 60 57 60 61 64 59 56 53 55 63 56 53 56 60 64 65 68 70 71 73 69 70 71 68 67 67 59 57 60 65 64
51 52 52 52 52 52 52 53 53 52 54 46 46 37 43 45 50 52 54 58 62 63 63 61 59 56 60 58 56 47 52 57 53 50 53 54 60 63 66 68 67 66 67 68 67 68 66 62 59 59 59 58 58 63
51 52 52 51 52 52 52 52 52 52 50 48 52 40 48 55 60 63 65 64 65 66 64 60 59 57 56 57 57 53 49 52 57 52 54 59 61 62 62 64 61 64 64 64 64 65 63 60 57 56 57 56 56 61
51 51 51 53 52 52 51 51 51 51 48 49 52 50 55 56 58 61 63 60 66 66 66 62 58 54 52 53 51 51 49 52 53 57 60 61 61 62 62 63 63 64 63 63 63 64 64 63 60 58 56 59 56 61
50 53 53 53 52 51 52 48 47 46 46 46 48 56 55 54 58 60 62 64 66 63 58 59 53 53 53 50 49 52 55 56 60 61 60 62 61 62 61 62 64 64 63 63 63 63 62 63 64 62 59 59 61 60
52 56 53 51 50 51 48 48 46 44 42 47 47 55 59 62 61 60 64 65 63 62 60 58 61 54 52 50 53 56 59 56 62 62 62 62 63 63 64 62 65 65 64 64 64 63 62 62 61 58 59 60 60 59
56 54 52 52 51 49 44 44 46 43 48 53 57 57 59 61 64 64 65 64 64 64 60 59 56 53 54 58 57 56 60 60 59 59 61 63 63 63 63 64 64 65 63 64 62 62 62 63 62 60 62 61 59 60
51 51 52 53 53 50 47 45 52 49 50 56 58 57 59 60 64 64 61 61 61 60 56 54 57 55 52 54 55 53 55 62 60 57 58 60 62 63 64 63 60 61 62 63 63 59 64 62 63 63 63 61 60 60
51 51 52 51 51 50 52 51 50 53 55 54 60 59 58 62 61 60 60 63 57 56 55 54 52 53 56 55 58 55 54 57 60 61 59 57 59 64 63 64 64 62 61 62 63 62 58 61 60 62 59 60 62 63
50 52 48 49 47 50 49 55 52 56 55 58 57 59 56 53 54 56 59 53 49 51 52 53 53 52 53 52 56 60 61 64 64 60 57 58 60 62 63 63 63 60 60 61 62 61 62 63 61 62 62 63 60 62
53 50 47 48 44 43 43 54 50 54 51 52 55 53 53 52 54 56 48 50 50 52 50 51 54 55 52 54 55 64 65 64 63 62 63 64 63 64 65 64 64 63 61 61 63 63 62 55 59 61 63 62 61 60
52 47 43 43 44 41 51 49 53 51 51 50 49 48 50 50 51 49 45 48 52 53 52 50 52 51 51 52 52 61 63 64 64 65 65 66 64 62 64 64 65 65 64 64 62 61 61 60 52 62 62 61 58 57
40 42 43 34 47 44 46 48 48 48 46 48 48 48 48 51 45 44 47 50 49 50 51 53 50 50 49 58 62 63 65 66 65 63 65 65 65 64 63 62 64 65 67 63 62 63 63 62 61 61 61 58 56 55
33 44 38 45 45 44 48 45 46 46 48 46 47 51 50 49 47 44 48 50 51 52 53 58 61 62 63 64 61 64 65 69 67 63 64 67 65 61 61 61 61 62 68 66 65 65 64 64 63 64 62 60 51 60
34 39 43 47 48 49 46 49 51 48 48 46 46 44 44 43 46 50 51 51 54 57 63 67 67 67 65 67 65 67 70 69 67 65 65 68 67 64 65 62 59 61 65 67 66 65 64 65 64 65 64 65 64 64
38 43 41 44 45 48 46 50 50 49 48 54 56 50 51 54 51 57 56 60 62 67 69 71 70 71 69 68 71 69 68 70 68 69 69 66 66 68 66 64 63 50 60 61 61 62 61 62 64 66 66 62 60 63
40 45 46 42 43 45 45 53 55 61 65 64 58 56 57 63 67 66 67 70 74 71 67 65 64 70 67 69 69 71 70 68 64 63 60 57 54 57 62 61 60 62 63 63 51 54 60 60 62 62 64 65 66 66
55 53 53 50 53 56 59 61 62 68 69 68 67 65 64 61 59 65 66 67 66 63 64 58 60 67 65 60 64 67 68 67 69 63 58 59 55 57 57 61 64 64 61 60 62 64 54 55 58 61 63 62 61 62
67 63 59 60 57 62 67 66 68 68 67 66 68 63 58 58 60 60 60 57 63 63 60 60 57 59 63 64 64 65 58 59 63 64 63 67 61 60 60 62 64 62 60 63 63 65 67 63 60 60 60 57 57 55
64 59 57 54 56 63 66 63 63 61 62 61 62 62 58 54 49 51 56 57 56 61 55 61 64 62 59 67 60 60 54 65 64 68 68 67 66 66 67 69 70 69 69 69 68 68 68 64 63 63 63 62 61 60
60 58 59 58 56 56 62 62 60 57 60 59 57 59 56 57 52 56 58 59 57 55 61 66 65 62 65 70 66 66 60 62 53 45 46 46 44 48 60 66 65 67 68 67 66 66 64 63 62 60 60 60 60 60

GFSWCAN_sfc_temp_078.txt.gz
Temp
56 56 55 55 55 55 55 55 57 57 57 57 58 58 58 58 57 49 47 50 49 42 49 56 57 49 49 47 45 50 52 54 50 44 42 43 42 45 44 46 43 41 42 40 42 42 40 60 61 54 55 57 59 61
55 55 55 55 54 54 54 55 57 56 56 57 57 57 58 57 57 53 43 53 55 45 49 58 61 63 60 59 49 48 49 51 51 46 45 47 45 45 43 41 49 43 46 45 45 45 54 56 56 61 58 58 59 59
54 55 55 54 54 54 54 55 55 56 56 57 57 57 57 57 56 53 44 46 48 44 49 49 52 60 61 63 65 49 52 54 52 56 52 48 46 48 44 44 47 52 50 46 48 52 53 54 59 64 64 61 65 67
54 54 55 54 54 54 55 55 55 56 56 56 56 57 56 56 56 54 44 47 46 45 39 46 61 60 63 60 63 65 64 55 55 53 53 49 48 51 48 52 51 52 51 48 49 54 56 57 58 60 64 66 66 67
53 54 55 54 54 54 55 55 55 56 56 56 56 56 56 56 55 51 47 48 51 45 39 43 56 60 60 58 63 65 64 53 51 52 49 50 52 52 53 53 49 54 51 48 47 55 55 55 59 64 64 66 67 64
53 54 54 54 54 54 55 55 55 56 56 56 56 56 55 55 55 46 43 50 51 50 41 38 49 54 59 61 60 59 59 56 55 52 50 54 57 55 47 47 54 55 55 55 54 57 57 61 62 65 63 67 67 65
53 54 54 54 54 54 54 55 55 55 55 55 54 54 54 55 49 44 46 50 51 47 44 39 41 54 61 58 58 58 58 56 57 51 50 52 54 57 48 46 56 56 54 57 58 58 58 60 60 64 65 66 65 65
53 54 54 54 54 54 54 54 55 55 54 54 54 53 54 54 51 45 51 55 51 45 45 39 42 48 57 53 53 55 54 53 53 54 51 50 52 50 47 54 56 58 58 59 59 61 60 63 63 63 63 63 60 59
52 53 53 53 53 54 54 54 55 54 53 53 53 53 52 49 45 49 59 56 50 48 40 41 39 41 57 51 53 54 54 49 54 51 50 53 48 48 54 54 55 57 58 60 61 62 61 61 60 60 60 59 56 56
51 51 51 52 53 53 54 54 54 53 52 53 52 47 44 50 59 57 50 45 43 43 41 39 43 43 50 49 49 50 52 51 47 52 53 51 49 53 56 58 58 58 59 59 58 55 56 57 58 58 57 57 56 56
53 53 53 53 53 53 54 54 52 52 52 48 46 45 52 58 50 46 43 41 42 41 43 44 47 43 51 47 47 50 50 50 46 50 53 45 46 52 56 57 59 61 63 65 63 63 61 60 59 57 58 58 57 56
52 52 52 53 53 53 53 52 52 52 50 50 48 54 54 47 44 42 41 45 44 44 47 46 48 49 51 51 49 53 49 49 45 54 51 46 49 54 56 62 64 61 64 65 67 65 63 65 61 58 57 57 56 56
52 52 52 52 53 53 52 53 53 54 53 52 50 49 43 43 35 40 38 41 42 49 51 50 49 51 49 51 50 50 45 45 50 48 47 49 52 55 57 59 60 62 65 63 62 61 61 60 59 58 55 56 57 56
52 52 52 52 52 52 52 53 53 52 51 46 45 33 42 39 41 42 43 45 51 53 50 50 49 48 49 49 48 46 47 47 47 44 47 49 52 55 57 60 61 59 61 61 60 60 58 58 56 57 56 57 57 57
51 52 52 51 52 52 52 52 53 51 46 44 44 37 39 46 48 50 52 52 55 59 54 49 48 47 45 47 47 46 46 43 47 48 49 52 55 57 56 58 57 57 57 57 58 56 56 55 54 54 55 54 55 57
51 51 48 52 52 52 51 52 50 49 47 44 44 41 46 45 45 48 53 50 53 55 56 50 46 45 43 45 46 47 47 45 48 50 52 54 54 54 55 57 58 58 56 56 56 57 56 54 53 53 54 55 54 55
51 44 51 52 51 51 52 48 47 45 45 43 40 45 44 45 46 49 54 55 60 55 50 47 45 45 45 43 45 45 44 46 51 52 53 54 54 53 54 57 58 59 57 56 56 56 56 57 55 54 53 55 55 55
43 49 52 51 51 50 48 47 46 44 42 41 38 41 46 51 50 50 55 56 55 53 49 48 49 45 44 45 44 46 48 51 53 53 54 54 55 55 58 55 57 58 57 57 57 56 56 55 54 53 53 54 54 54
48 50 52 52 51 47 44 44 46 41 42 41 45 45 48 51 52 54 54 54 55 52 50 48 47 44 43 45 46 47 50 52 51 53 55 56 56 56 57 57 58 56 56 56 55 55 59 60 58 56 57 53 52 52
51 52 52 54 52 45 43 43 45 41 41 44 47 45 47 48 50 53 51 50 50 48 47 45 46 45 45 47 49 49 50 52 53 52 54 56 56 56 56 55 54 54 54 55 56 53 57 55 56 57 56 53 52 53
50 49 52 51 48 48 46 41 40 43 46 42 46 45 45 47 47 47 48 49 46 45 44 46 46 47 49 49 52 52 51 52 53 53 53 52 53 54 55 56 56 55 54 59 56 56 53 55 54 54 54 53 54 54
47 52 47 49 46 45 43 46 44 45 43 44 45 46 44 43 44 45 47 45 44 45 46 47 49 48 49 51 52 54 52 53 56 56 53 54 54 53 53 54 58 56 54 54 54 56 54 54 54 55 54 55 53 54
51 50 46 46 43 40 39 47 43 45 42 44 45 44 43 43 45 47 42 44 46 50 49 48 49 52 50 52 53 54 54 54 54 55 56 54 53 57 58 59 59 57 53 53 54 54 54 53 54 55 57 58 53 52
52 46 41 39 42 37 46 43 45 44 43 43 45 45 43 43 46 45 43 45 48 50 49 49 49 48 49 50 49 50 52 53 54 55 55 56 54 52 54 55 54 54 55 55 54 54 54 54 50 54 55 53 52 52
37 39 40 37 43 41 42 43 43 42 41 46 41 41 42 45 42 43 44 47 48 49 50 50 49 49 48 50 50 50 55 53 54 56 55 54 56 58 54 55 59 60 57 59 59 57 56 55 58 58 56 54 54 54
32 39 37 40 40 41 41 41 41 43 45 42 43 45 46 45 44 42 45 48 48 50 50 51 51 48 48 50 50 52 56 60 58 54 54 55 57 55 52 52 56 58 61 57 56 57 56 58 58 61 57 56 49 54
33 37 40 42 43 43 41 44 47 45 45 44 43 44 44 40 40 46 49 50 51 53 54 54 54 51 52 52 52 58 61 60 57 56 56 56 59 59 60 57 54 58 58 58 57 57 56 56 56 57 56 57 56 57
36 41 39 41 41 44 43 44 44 44 47 48 46 44 44 47 46 50 50 53 52 55 58 55 56 59 60 61 61 58 57 56 59 61 61 61 57 55 55 56 56 50 53 56 57 57 56 57 58 57 56 56 55 57
38 43 45 42 44 44 44 45 45 45 47 49 48 47 45 49 52 53 54 56 58 59 56 59 59 58 59 58 58 57 56 58 58 56 55 52 52 53 56 57 57 57 56 55 52 51 55 56 56 57 59 58 55 55
41 46 45 45 43 43 47 49 50 55 57 58 55 53 52 52 56 56 56 56 53 52 56 54 52 55 54 55 52 56 61 59 55 56 52 50 51 53 53 55 56 57 58 59 56 61 52 54 55 60 55 53 52 54
50 45 47 46 50 53 58 61 62 60 58 55 56 53 50 52 54 56 55 53 56 56 59 55 55 53 53 54 53 54 52 55 59 58 55 55 55 54 55 55 56 57 56 57 59 56 56 55 55 55 54 55 55 53
51 50 52 49 48 56 59 58 56 52 51 53 51 50 49 48 46 51 54 56 55 56 53 54 55 56 57 60 57 58 51 59 60 57 59 55 54 54 54 56 56 58 59 58 58 57 57 55 53 54 53 54 53 52
52 51 52 50 47 48 50 52 50 50 52 51 51 50 50 50 48 52 56 57 56 54 55 58 59 60 61 62 61 59 53 56 50 46 44 43 41 47 53 54 58 59 57 55 55 54 53 52 52 50 50 49 48 49

GFSWCAN_sfc_temp_081.txt.gz
Temp
56 56 55 55 55 55 55 55 55 56 58 57 57 58 58 58 56 48 45 46 46 39 43 52 54 47 46 45 42 46 48 50 47 43 42 41 40 44 42 45 42 41 42 40 41 40 39 58 58 51 52 54 57 58
55 55 55 54 55 55 54 54 55 55 57 57 57 58 57 57 57 51 42 49 49 42 46 53 58 60 57 55 48 44 44 45 48 44 43 44 43 43 41 39 47 42 45 42 43 47 52 54 52 57 57 58 58 59
55 55 54 54 54 54 54 54 54 55 56 56 57 57 57 56 56 51 43 43 44 40 44 43 48 55 56 61 62 45 45 50 49 51 46 46 43 45 41 42 46 48 47 45 47 50 52 54 56 58 60 59 62 63
55 54 54 54 53 53 54 54 54 55 56 56 57 57 56 56 55 53 44 44 44 41 36 43 56 54 60 55 58 60 56 51 50 49 48 45 45 49 47 48 48 51 49 46 51 51 53 56 58 58 60 64 66 65
54 54 54 54 53 54 54 54 54 55 56 56 56 56 56 55 54 50 45 45 47 44 37 39 48 54 54 53 56 57 55 48 47 48 45 47 48 48 50 51 47 52 49 46 46 52 51 53 59 62 62 64 63 63
54 53 53 54 53 54 54 54 54 55 56 56 56 56 55 55 54 47 42 45 47 46 39 36 45 48 53 55 55 52 55 47 49 47 47 49 52 51 47 44 55 54 53 55 54 59 55 59 62 63 61 63 65 61
53 53 53 53 53 54 54 54 54 55 55 55 54 54 54 54 50 44 45 47 48 45 40 37 39 49 54 53 53 52 52 51 51 47 46 49 51 53 47 45 54 54 56 56 57 57 57 61 59 63 64 64 62 63
53 53 53 53 53 53 54 54 55 54 54 54 54 53 53 53 52 45 50 53 50 44 42 36 39 45 52 49 50 49 49 48 49 50 47 47 49 46 44 52 53 56 57 57 58 59 59 58 60 60 62 61 59 57
53 53 53 53 53 53 54 54 54 54 54 53 53 53 52 48 46 50 57 55 47 47 39 38 36 39 52 49 48 50 49 46 49 48 47 51 45 45 51 52 55 57 58 57 58 59 59 59 58 58 58 57 55 54
52 53 53 53 53 53 53 54 54 53 52 53 52 48 44 49 57 56 48 44 43 42 39 36 38 40 46 45 46 47 47 46 44 48 49 46 46 50 53 54 57 56 58 59 56 54 56 55 56 56 56 56 56 55
52 52 52 52 53 53 53 54 53 52 51 48 43 45 50 57 49 44 41 39 39 38 38 39 41 41 47 44 45 47 47 46 44 47 47 42 44 49 54 54 57 58 57 58 59 60 60 58 57 55 55 56 56 55
51 51 51 51 52 53 53 53 52 52 49 48 50 51 49 47 42 40 38 41 40 41 43 43 45 44 46 46 44 48 46 47 44 47 46 43 46 51 55 60 59 58 62 61 62 59 60 60 58 57 56 55 55 55
52 52 52 52 52 52 53 52 53 53 52 51 47 48 45 42 33 37 36 38 38 45 49 46 46 46 46 46 46 47 46 44 48 45 45 45 50 54 54 56 58 58 61 61 60 59 59 58 58 56 56 56 56 55
50 51 52 52 52 53 52 53 53 52 51 46 44 35 38 37 37 39 40 42 47 49 48 48 46 46 44 45 47 47 49 46 43 42 44 46 49 52 55 58 57 56 57 58 58 58 57 57 56 56 56 55 55 55
51 51 51 51 52 53 52 52 53 51 47 44 43 36 37 42 42 44 46 45 51 51 47 46 45 45 43 45 45 46 44 43 44 44 46 49 51 56 56 56 54 54 54 54 54 55 55 55 54 54 54 53 53 54
51 51 49 52 52 52 51 52 50 49 47 43 42 39 42 41 44 46 45 45 50 49 47 47 43 43 42 43 44 43 43 42 43 45 50 51 51 53 54 55 55 55 54 54 53 54 54 53 52 52 53 53 53 54
51 46 51 51 51 52 51 48 48 45 44 42 39 41 41 42 42 43 45 48 50 49 45 45 44 42 43 42 42 44 43 44 47 49 52 51 53 51 52 55 55 55 54 53 53 53 53 54 53 52 52 53 53 53
44 48 52 51 51 50 48 48 46 44 42 41 37 39 42 46 44 48 47 49 51 50 50 46 46 43 40 41 41 43 45 47 47 47 51 54 52 52 55 54 55 56 55 54 54 53 53 52 52 52 52 52 53 52
46 49 52 52 51 47 44 45 46 41 40 39 39 40 42 45 50 50 48 49 51 51 48 45 45 42 41 43 44 45 46 47 48 50 52 53 55 54 55 55 55 54 53 57 54 52 53 57 54 53 52 51 51 51
51 52 52 53 53 46 43 40 44 39 38 41 40 40 42 44 50 50 49 48 47 46 47 43 44 43 44 46 46 47 47 49 51 51 51 53 54 53 54 54 52 52 52 53 53 50 53 56 56 54 53 52 51 51
48 48 53 50 46 44 42 39 37 39 40 40 42 42 42 42 44 45 45 44 44 43 43 43 44 44 46 47 48 49 49 49 49 51 51 51 53 52 52 52 54 54 53 53 51 55 53 53 51 51 52 52 52 52
45 53 47 49 42 43 40 42 40 41 39 41 41 42 42 41 41 43 44 43 42 43 43 44 45 45 46 47 48 50 51 52 50 51 50 51 52 52 51 53 54 55 56 55 56 56 55 52 52 53 52 53 51 52
51 48 43 45 40 36 35 43 40 41 39 40 42 41 41 41 42 45 41 41 43 45 45 45 46 49 47 49 51 51 53 53 51 51 53 54 51 51 54 56 53 52 51 51 51 53 51 49 51 51 53 52 53 54
51 45 41 37 41 35 41 39 41 41 41 40 39 39 40 41 44 42 40 41 45 46 46 46 48 45 45 47 47 48 49 49 51 54 52 51 53 52 55 54 52 54 56 52 54 56 55 52 50 55 56 53 52 51
35 34 39 35 43 40 40 39 40 39 39 41 40 39 41 43 40 41 42 45 47 48 48 50 48 46 46 45 46 48 51 49 49 52 54 52 55 52 51 52 56 56 53 55 52 53 57 52 56 56 54 52 51 53
29 37 33 37 39 40 41 40 39 39 40 41 42 44 45 44 42 41 45 47 48 49 49 49 49 48 49 48 48 49 52 52 54 54 52 51 52 51 51 51 52 55 56 55 55 56 55 56 54 55 55 54 48 51
31 37 37 40 42 42 42 41 43 42 43 43 44 43 43 37 39 46 48 49 49 51 51 53 52 52 53 50 49 50 51 56 53 54 52 52 53 54 58 54 52 55 54 55 54 54 53 54 53 54 54 54 55 55
37 36 35 38 39 41 41 43 44 42 43 47 45 42 41 45 45 49 51 52 52 54 55 54 56 56 53 56 57 55 52 54 54 54 54 54 54 53 53 54 54 47 52 54 54 54 53 54 53 54 54 53 52 54
39 41 42 41 43 42 43 44 44 46 48 47 45 46 47 50 52 51 52 51 54 55 49 53 55 53 53 55 55 51 53 55 53 53 50 48 48 50 51 52 52 53 53 53 48 49 54 54 54 53 53 52 53 53
39 43 42 42 41 40 45 47 48 49 51 51 50 49 51 51 53 54 53 53 52 51 51 51 52 50 49 51 53 54 55 53 53 51 49 49 49 51 51 52 53 54 52 52 53 54 49 52 51 53 53 53 52 52
46 45 45 45 43 46 48 49 50 54 52 50 52 52 49 50 52 50 53 54 55 54 54 54 54 52 53 53 50 52 51 53 55 56 51 51 49 49 50 51 51 52 53 54 54 54 52 50 50 50 52 50 51 48
44 42 44 44 44 50 53 51 50 49 49 47 47 50 51 46 46 51 54 55 53 54 52 54 56 53 55 57 56 56 48 52 51 51 52 52 52 53 53 53 54 55 53 53 52 51 50 49 48 48 47 47 47 46
45 46 47 46 46 47 49 50 49 48 49 48 48 50 50 49 47 51 55 53 51 53 51 52 53 52 54 56 54 54 50 52 47 41 41 41 41 46 52 53 54 53 52 50 49 48 47 47 46 45 45 45 44 44

GFSWCAN_sfc_temp_084.txt.gz
Temp
54 55 56 56 56 56 55 55 55 55 56 57 57 58 58 57 54 48 45 44 46 38 41 48 51 46 44 43 40 44 45 45 44 42 41 40 40 42 40 43 41 39 39 39 39 40 42 55 57 51 52 55 58 58
54 54 55 56 55 55 55 55 55 54 55 57 57 57 58 57 56 53 46 47 47 42 44 49 54 57 56 53 46 42 42 42 44 43 42 42 42 43 40 38 45 42 44 42 43 44 51 53 52 56 56 58 60 59
54 54 54 55 55 54 54 54 54 55 55 56 56 57 58 56 56 54 48 44 42 39 42 41 46 53 51 57 59 44 43 46 45 48 44 43 41 44 40 42 44 48 48 45 47 50 52 55 56 58 59 59 62 61
53 54 54 54 54 54 54 54 54 55 55 56 56 57 57 56 55 53 46 44 44 40 35 43 53 49 56 53 56 59 49 47 46 46 44 42 43 48 45 47 46 48 48 46 47 52 53 57 57 58 60 62 64 64
53 53 53 54 54 54 53 54 54 54 55 56 57 57 56 55 54 51 45 45 45 44 37 38 46 49 49 51 53 53 53 43 45 45 43 44 45 46 48 47 45 50 50 47 46 52 51 53 57 61 61 61 62 62
53 53 53 54 53 53 54 54 54 55 55 57 56 56 55 54 53 49 42 44 45 45 38 34 44 46 49 49 48 47 48 44 45 45 45 46 48 50 44 42 52 54 54 55 54 56 58 57 60 62 61 62 63 63
53 53 54 53 53 53 54 54 54 54 55 55 55 54 54 53 51 48 44 47 48 44 39 36 37 47 49 48 47 45 46 45 46 44 44 47 49 51 46 43 57 54 56 56 58 59 57 60 58 61 63 63 63 62
53 53 53 53 53 53 53 54 54 54 54 54 54 53 53 53 52 49 53 52 48 42 40 35 37 43 47 46 46 45 44 44 44 46 44 46 47 46 43 50 52 55 57 57 59 61 60 59 61 61 63 63 60 59
52 53 53 52 52 53 53 54 54 54 54 54 53 53 51 49 46 50 57 55 45 44 38 36 34 37 48 45 45 47 45 44 47 45 44 48 46 45 50 52 54 55 56 58 58 59 59 58 59 60 60 59 57 56
53 53 52 53 53 53 53 54 54 53 52 53 51 48 45 49 58 55 50 42 41 41 37 35 36 38 43 43 44 45 44 43 44 45 46 45 45 52 55 55 54 57 59 58 56 54 55 55 57 58 58 57 57 56
53 52 53 53 53 53 53 54 53 52 51 48 46 44 49 56 50 44 40 38 37 37 36 37 37 39 45 43 42 44 44 44 43 45 46 44 44 49 53 53 53 58 57 59 58 58 58 58 57 56 57 57 56 56
52 52 53 53 53 53 53 53 52 51 49 49 49 50 48 48 44 40 37 38 38 39 41 40 42 40 43 43 43 45 44 46 44 46 46 44 45 50 53 56 57 59 60 61 61 59 60 60 58 58 58 56 56 56
52 51 52 52 53 53 53 52 54 53 52 51 48 47 43 40 32 36 35 37 37 43 46 44 43 43 42 43 43 44 43 44 48 45 45 47 47 52 53 56 57 58 60 60 59 59 59 58 59 58 57 57 57 56
50 50 50 51 52 52 52 52 53 51 49 46 43 34 37 36 37 38 40 42 46 48 48 45 42 42 41 42 43 42 47 48 44 42 43 44 48 52 56 58 58 56 57 57 57 58 57 57 57 57 56 56 56 56
51 51 51 52 53 53 52 52 52 50 47 44 42 34 36 42 42 43 45 43 46 47 45 43 42 42 41 43 43 44 45 44 44 42 45 48 50 51 55 56 55 56 55 55 56 56 56 56 55 54 55 55 54 54
51 50 49 52 53 52 51 51 50 49 45 44 41 39 41 39 44 43 43 47 45 45 44 44 41 42 40 41 44 44 44 40 42 44 48 52 51 52 53 55 55 56 55 55 54 55 55 55 54 54 54 54 54 55
49 44 51 52 51 51 52 48 47 45 43 42 39 40 40 41 43 46 47 45 45 45 44 43 42 41 42 41 41 44 43 44 45 46 48 52 52 51 52 52 54 55 54 54 53 54 54 55 54 53 53 54 54 54
44 49 52 52 52 50 47 48 45 42 41 40 36 39 40 42 44 48 49 45 45 45 46 48 44 42 40 41 40 43 44 45 47 46 47 50 53 53 53 52 53 54 54 54 54 54 54 54 53 52 53 54 54 54
48 49 52 52 51 47 44 44 44 38 39 39 38 38 40 42 45 47 46 45 45 46 50 48 44 41 41 42 44 44 45 45 47 49 49 50 52 52 53 54 53 53 54 55 57 54 54 54 54 55 55 53 53 54
51 51 53 54 53 45 42 39 43 39 36 39 38 38 39 41 44 45 47 45 44 44 46 43 43 42 43 45 45 46 46 47 48 48 48 51 53 53 54 53 53 52 52 54 54 50 56 57 58 54 54 53 53 54
50 50 53 50 47 45 42 38 37 38 38 37 40 40 40 40 41 42 43 43 44 43 43 42 43 44 45 45 47 47 47 48 49 50 50 51 53 53 53 53 53 53 54 56 55 55 53 57 55 53 54 54 54 54
47 52 47 48 42 42 39 40 38 38 37 39 38 40 39 39 39 41 42 42 42 42 42 43 44 45 46 47 47 48 49 50 51 51 48 50 52 52 52 53 53 53 53 53 54 54 54 54 53 54 54 54 52 54
50 49 45 42 39 36 35 40 39 39 37 38 40 39 39 39 41 43 40 40 41 43 44 44 45 47 47 48 49 50 51 53 51 51 52 52 51 51 52 54 54 54 54 54 53 54 56 50 53 55 57 56 54 54
51 42 38 36 40 34 39 38 39 39 38 38 38 37 38 39 41 40 38 40 43 44 45 46 46 46 46 49 46 47 49 51 51 51 52 52 52 53 55 55 54 53 55 54 56 56 57 56 50 56 57 56 56 55
34 33 39 35 42 39 38 37 38 37 37 38 38 38 39 41 38 38 39 44 46 48 49 50 48 47 47 47 47 48 53 50 50 51 53 52 52 52 52 53 55 56 57 56 56 56 57 55 55 56 56 56 54 55
28 34 36 39 39 38 39 36 37 38 38 39 40 42 45 42 41 40 44 47 48 49 49 48 47 46 47 47 48 51 53 52 52 52 53 52 54 53 52 54 53 56 57 56 55 56 55 55 55 55 55 55 48 53
31 36 36 39 41 43 42 43 42 41 41 40 42 42 42 37 37 44 48 50 49 51 51 52 51 51 51 50 50 51 52 55 54 54 53 53 53 54 55 54 54 56 56 56 56 55 54 55 55 56 55 56 56 56
37 37 35 37 38 41 40 41 42 41 42 45 45 41 39 40 44 49 50 52 52 51 50 50 50 52 53 54 54 56 54 53 54 55 55 54 53 54 54 54 55 45 52 55 55 55 55 55 55 57 56 55 54 55
38 39 41 40 42 42 42 41 42 44 46 44 42 43 46 50 51 51 50 51 54 55 53 54 52 53 56 54 55 54 53 54 54 52 50 49 50 52 53 52 53 54 53 54 47 47 51 53 54 54 54 54 54 55
40 43 42 42 40 40 43 45 45 49 49 49 50 50 50 51 52 54 54 53 51 52 53 53 51 50 51 54 52 53 54 53 54 53 51 51 50 50 49 52 52 53 52 53 54 55 47 53 51 53 51 50 49 48
44 43 44 44 43 47 49 52 52 52 50 49 51 49 45 48 53 54 54 53 53 53 55 55 53 55 55 54 54 54 52 51 52 53 52 52 51 51 52 52 52 53 53 53 53 52 51 49 49 47 47 47 47 46
44 44 44 44 46 50 52 51 49 49 49 49 46 50 50 48 47 50 55 53 52 53 50 52 53 50 51 53 52 52 46 51 51 51 53 52 52 53 53 53 53 53 53 52 51 50 50 49 48 47 47 46 46 45
43 44 46 49 47 47 49 49 47 46 48 47 47 48 48 48 47 50 53 53 50 49 49 50 51 51 52 53 53 52 49 52 44 40 40 40 39 43 49 51 52 52 51 49 49 49 47 46 46 45 44 44 44 43

GFSWCAN_sfc_temp_087.txt.gz
Temp
54 54 54 55 55 56 55 55 55 55 56 56 57 57 58 57 54 55 54 54 56 53 55 56 58 56 56 56 52 56 57 56 58 55 54 55 53 56 52 55 53 52 48 50 50 49 50 59 57 53 56 62 63 64
54 54 54 54 55 55 55 55 55 55 55 56 57 57 57 57 55 55 52 54 56 53 55 58 61 63 63 63 59 56 53 52 59 56 54 54 52 55 50 50 56 53 57 52 52 53 59 59 57 61 62 64 66 66
54 54 54 54 54 55 55 55 55 55 55 55 57 57 57 57 55 55 54 51 53 51 53 53 57 63 63 63 68 55 57 59 57 59 60 55 51 57 53 56 55 59 57 53 55 58 60 59 62 64 64 67 69 70
54 54 54 53 54 54 54 54 54 55 55 55 56 56 57 56 55 54 53 52 54 52 47 56 62 59 66 64 62 64 61 58 59 61 61 59 56 61 59 58 56 62 57 57 59 62 63 64 64 65 68 69 70 70
53 53 53 53 53 54 54 54 54 55 55 55 56 56 57 55 53 52 51 52 56 53 49 53 58 60 62 61 61 62 61 57 59 58 59 58 63 59 62 59 57 63 61 57 55 60 61 60 64 68 69 69 69 70
53 53 53 53 53 54 54 54 54 54 55 55 56 57 55 54 53 52 50 53 56 57 50 47 59 56 60 58 58 57 59 57 58 58 59 62 61 61 58 57 65 66 62 66 64 63 64 65 65 68 68 70 71 71
53 53 53 53 53 54 53 53 54 54 54 55 55 54 54 53 53 52 53 54 52 55 50 47 52 60 59 59 58 56 58 58 59 59 57 62 62 61 60 55 66 69 65 64 65 63 64 66 67 68 70 70 68 68
52 52 53 53 53 53 53 53 54 54 54 55 54 53 53 52 53 53 56 51 54 53 52 46 49 54 60 60 57 59 55 57 57 60 60 60 58 60 55 62 67 66 65 64 65 66 68 68 69 68 69 69 68 65
52 52 53 53 53 53 53 53 54 54 54 54 53 52 52 51 47 53 56 55 54 53 47 48 46 51 61 59 59 57 59 54 60 58 60 60 59 55 62 63 65 65 63 65 67 66 68 67 67 67 67 67 66 65
52 52 52 53 52 53 53 54 54 53 52 53 52 50 46 52 57 56 52 50 49 51 49 46 52 50 57 58 59 58 59 59 55 60 60 57 58 64 68 68 66 65 66 67 64 63 65 65 66 67 67 67 67 66
52 52 52 52 52 52 53 54 53 52 52 49 49 51 55 57 53 50 47 47 48 45 50 50 50 52 58 55 57 58 58 57 53 55 55 57 56 60 61 62 64 65 66 69 69 69 70 69 69 68 67 68 67 65
52 53 52 52 53 52 53 53 52 53 53 52 53 54 54 51 47 45 45 46 45 46 51 51 54 52 57 56 56 57 54 54 50 55 52 53 53 56 59 62 65 66 68 70 70 70 70 70 70 68 68 68 67 66
53 52 52 53 53 53 53 52 53 53 53 53 53 48 48 46 37 40 39 43 44 51 54 53 54 56 54 55 55 54 51 53 58 52 53 50 52 55 56 60 63 65 67 68 67 68 68 67 68 68 67 67 66 66
52 52 52 52 53 53 52 52 52 52 50 47 46 35 43 41 44 47 48 51 56 55 55 56 55 56 56 54 56 51 57 56 50 48 49 51 50 54 58 62 64 63 65 65 65 66 66 66 64 65 65 64 64 64
51 51 52 51 53 52 52 52 52 51 49 49 49 39 43 50 51 52 54 52 56 57 56 55 55 56 55 53 54 53 51 48 49 47 52 50 52 55 55 55 56 58 62 64 65 65 65 64 64 63 64 65 65 64
50 50 50 52 53 52 52 52 50 50 51 49 48 46 49 48 51 52 53 53 58 57 56 57 55 53 52 53 51 50 50 46 50 53 55 52 56 53 56 56 57 60 63 65 66 66 66 65 64 64 65 66 66 65
49 45 52 52 52 51 52 49 48 46 47 46 48 50 49 49 50 53 53 54 56 55 56 56 52 50 54 53 49 53 50 53 55 55 54 55 55 54 54 55 56 59 61 63 64 64 64 65 65 65 64 66 66 65
45 50 52 52 52 50 48 48 47 47 44 48 46 49 49 49 51 53 57 57 57 58 57 55 56 53 51 49 52 54 55 55 55 55 54 55 56 57 54 55 61 62 62 62 63 64 64 64 64 65 63 60 64 66
50 52 52 51 51 48 46 46 48 44 46 48 50 50 49 50 53 54 55 57 57 59 58 58 53 54 55 55 57 57 56 55 55 54 56 56 56 55 55 57 58 61 61 61 62 65 66 64 64 64 66 67 67 68
51 51 52 53 53 48 45 45 49 46 46 48 49 49 50 50 51 55 57 58 59 59 57 54 56 55 54 57 58 56 56 56 55 55 56 57 58 57 57 57 58 60 60 61 64 53 67 68 62 59 62 64 64 67
51 51 53 54 51 50 47 46 46 47 48 49 50 50 52 53 53 55 56 56 57 57 57 57 56 56 54 55 56 56 57 57 57 57 55 51 55 55 55 56 57 59 61 59 58 66 62 67 67 66 65 66 67 67
50 53 51 52 47 47 47 48 47 48 48 49 48 48 50 50 52 53 53 54 53 55 57 55 54 55 57 56 56 56 57 59 58 56 49 51 53 57 58 59 62 62 64 65 68 68 69 69 67 66 67 68 61 65
52 52 49 49 45 41 41 48 45 46 45 47 50 49 50 50 51 54 50 50 51 52 53 53 54 55 55 57 57 57 58 57 55 53 55 57 56 58 62 64 64 65 66 66 66 63 64 55 60 62 63 62 65 65
52 47 44 43 44 40 47 45 47 46 45 47 47 46 48 50 52 50 47 50 53 53 53 54 56 56 58 56 57 58 58 56 56 54 57 57 57 60 61 64 65 64 65 63 66 63 61 65 53 63 65 63 63 64
40 39 41 35 45 43 42 43 44 45 44 46 46 46 48 50 47 46 46 51 52 52 52 52 52 55 55 59 59 54 57 55 53 53 58 59 63 66 66 66 66 66 67 65 64 63 66 66 65 65 66 64 64 64
32 40 37 43 43 42 44 41 43 44 46 45 47 50 49 48 43 41 44 47 49 51 53 56 55 55 57 56 54 57 58 62 60 61 61 64 61 61 63 62 61 64 68 66 64 62 63 66 66 64 65 62 53 61
34 38 44 46 45 46 46 49 50 49 46 45 47 46 44 37 36 43 50 53 51 52 53 54 54 53 52 53 55 57 59 58 59 59 62 65 66 64 64 62 61 64 66 66 66 65 64 64 62 60 59 61 64 63
40 41 40 44 44 47 43 46 46 44 45 48 48 42 39 37 43 50 53 54 53 57 59 58 59 59 59 59 60 58 59 61 62 62 65 66 66 65 63 65 65 46 60 63 62 64 64 60 59 59 59 61 61 62
40 43 44 42 44 45 44 44 45 47 47 45 42 43 44 49 52 52 53 54 58 57 57 57 57 61 62 59 63 61 59 65 62 58 57 59 61 62 63 63 65 65 65 66 46 50 57 58 57 59 58 57 56 56
42 45 43 41 39 39 43 46 45 48 48 47 47 50 49 50 51 53 52 52 54 55 57 59 57 57 59 57 53 59 61 57 60 63 60 58 58 60 62 62 62 63 63 63 63 63 49 58 55 59 57 57 56 56
44 43 42 42 41 45 46 48 48 50 50 51 52 49 52 52 54 57 53 50 55 55 57 61 59 59 60 59 60 60 58 62 61 61 62 63 63 62 61 62 63 62 61 60 59 59 58 57 56 55 53 52 51 50
46 45 44 44 46 51 54 51 50 50 51 53 53 54 53 51 50 57 58 58 59 59 52 59 60 58 61 62 62 62 48 62 61 61 61 62 61 61 62 62 62 61 59 58 57 56 55 53 53 51 51 50 49 49
47 48 52 51 47 47 50 49 47 47 50 49 50 52 53 53 49 53 58 58 54 55 58 60 61 61 60 60 60 60 55 58 46 38 39 38 37 46 59 60 59 58 57 55 55 54 52 50 50 48 48 48 48 48

GFSWCAN_sfc_temp_093.txt.gz
Temp
54 54 55 55 55 55 55 55 55 56 56 57 57 58 58 58 56 60 74 76 69 67 73 75 75 70 72 72 66 72 71 72 72 65 66 68 67 65 59 66 63 61 60 59 61 57 52 72 72 61 65 67 68 65
54 54 54 54 55 55 55 55 55 55 56 56 57 57 58 58 57 56 67 76 76 65 70 76 76 78 77 76 72 73 70 68 73 69 71 72 67 65 65 56 62 59 67 62 61 59 71 74 69 70 71 67 68 69
54 54 54 54 54 54 55 54 55 55 55 56 56 57 57 57 57 57 68 73 70 66 69 73 72 80 82 80 82 67 73 74 71 74 69 71 62 72 61 63 63 68 72 69 64 70 69 71 71 73 73 73 74 74
54 54 54 54 54 54 54 54 54 54 55 56 56 57 57 57 56 56 66 71 69 67 61 72 81 74 81 82 78 78 75 76 73 74 70 70 68 78 69 68 70 72 72 66 67 71 69 71 71 70 65 77 77 79
53 53 53 53 54 54 54 54 54 54 55 55 56 56 57 56 54 58 66 62 71 64 61 67 77 81 82 78 76 76 74 71 71 69 68 67 75 74 75 75 71 77 66 64 64 71 67 66 68 66 59 71 76 69
53 53 53 53 53 54 54 54 54 54 55 55 56 56 56 56 54 54 55 70 73 66 57 62 78 74 75 74 72 72 73 71 71 69 70 74 78 72 66 67 71 79 76 81 73 77 74 69 63 65 67 64 77 78
53 53 53 53 53 54 54 54 54 54 54 54 54 55 55 53 56 59 60 61 62 66 56 63 69 74 75 73 73 73 73 72 72 70 69 72 74 73 69 64 74 79 81 80 79 77 73 73 66 76 63 78 76 79
53 53 53 53 53 54 54 54 54 53 54 54 54 54 53 53 55 61 69 57 63 64 65 60 65 69 75 70 67 74 69 71 71 70 73 71 75 73 64 72 76 78 79 78 78 79 78 79 78 78 78 80 78 77
52 53 53 53 53 54 54 54 53 53 54 54 53 53 53 52 55 62 58 57 69 64 53 65 62 63 76 72 74 70 73 64 74 68 70 73 70 65 71 72 74 77 76 77 80 79 78 78 77 78 78 79 77 76
52 52 53 53 53 53 53 53 53 53 53 53 55 50 49 61 56 58 61 59 56 61 63 60 71 65 73 70 67 69 70 67 63 70 77 70 68 73 76 75 75 76 78 80 76 73 74 76 77 77 77 81 79 77
52 52 53 53 53 53 53 53 53 52 53 53 49 49 54 57 63 57 55 53 56 56 64 65 67 65 74 65 66 73 58 69 61 66 68 65 59 62 71 74 77 79 80 80 79 79 80 81 81 78 79 79 77 76
52 52 53 53 53 53 52 53 53 53 53 55 54 58 61 61 59 53 52 59 59 58 64 62 66 68 73 73 68 71 65 64 56 51 61 61 51 60 67 74 76 79 80 79 75 80 81 81 82 80 80 80 80 79
52 52 52 53 53 53 53 53 53 53 55 54 53 50 53 55 41 48 47 56 57 63 65 66 64 69 69 70 67 67 58 59 69 63 57 55 59 63 66 67 75 79 79 79 80 81 81 80 82 80 75 77 78 78
52 52 52 52 53 53 53 53 53 53 53 48 47 41 51 49 56 60 62 63 67 66 68 69 65 66 71 65 68 58 66 59 48 54 46 58 59 62 68 71 70 71 75 77 77 78 78 77 77 77 77 77 77 75
52 52 52 52 52 53 53 52 52 54 51 48 51 45 55 59 66 70 71 69 69 72 70 67 68 69 66 63 65 63 57 57 56 51 58 59 62 65 67 65 67 66 69 71 74 75 76 76 76 74 75 77 76 77
52 51 51 52 52 52 51 52 53 54 50 51 54 51 61 63 63 67 66 65 72 71 73 71 62 63 62 64 58 58 57 51 50 65 69 66 63 65 65 67 67 66 66 65 69 74 75 75 74 75 77 78 78 76
52 52 52 52 52 51 52 51 52 49 49 53 54 63 65 63 59 62 66 66 68 69 63 67 58 58 66 62 57 55 56 56 66 68 71 65 64 64 66 67 67 65 63 62 68 73 74 76 76 75 70 67 73 75
54 53 53 52 53 51 51 51 50 51 50 58 54 60 61 64 63 65 70 72 69 60 56 61 68 61 60 56 56 63 67 67 71 70 69 65 65 65 67 66 66 63 60 59 59 71 74 72 73 65 72 69 73 69
54 54 53 54 55 50 46 49 54 49 54 66 63 67 69 67 69 71 72 72 74 75 68 70 62 58 61 67 66 69 71 71 69 70 68 65 65 65 62 67 66 66 64 62 62 66 74 73 72 73 76 78 76 78
52 53 53 53 54 54 54 57 63 58 57 64 68 64 65 63 68 72 72 71 72 69 66 64 62 66 66 69 70 70 71 71 70 65 61 65 67 63 64 63 62 63 63 65 64 58 66 65 65 68 77 77 75 74
51 51 54 55 59 61 60 61 62 62 65 63 67 65 60 67 67 64 64 76 67 66 65 69 68 70 69 69 72 71 69 69 64 63 61 63 65 63 60 59 60 60 60 60 58 63 65 69 75 78 78 77 75 78
50 53 55 58 59 60 63 65 63 65 62 63 63 67 62 61 62 65 69 67 65 69 70 70 70 70 70 67 69 68 68 68 67 65 54 58 56 56 56 62 67 67 62 70 73 71 74 77 77 77 77 75 71 68
54 58 62 61 55 52 51 65 58 61 55 58 64 60 63 64 67 71 64 70 65 72 70 70 68 68 67 69 70 70 71 68 67 64 63 64 63 60 63 69 72 72 70 69 66 74 72 58 71 71 73 73 72 69
55 60 54 56 57 49 60 57 65 62 61 59 57 54 58 57 67 63 59 62 65 70 68 65 69 69 70 66 69 69 72 72 71 67 62 60 62 65 71 74 75 74 72 71 69 66 73 62 57 70 69 67 69 67
46 45 52 36 60 55 54 55 56 57 53 56 55 55 57 67 57 56 56 56 62 62 62 62 64 66 62 67 59 69 69 68 67 61 60 60 62 58 65 67 62 67 74 72 69 69 69 68 69 69 69 68 67 69
37 50 43 55 55 55 56 51 54 55 57 55 57 61 61 52 45 41 45 49 51 51 53 59 63 63 61 63 63 65 68 69 71 69 69 72 72 69 67 66 68 69 75 75 72 71 71 70 68 67 68 64 53 67
41 46 55 64 63 61 58 60 61 58 53 49 51 52 47 37 37 44 52 53 53 60 63 62 61 61 62 63 69 74 76 72 71 69 76 76 76 75 74 70 67 69 74 73 72 71 69 69 69 67 65 65 68 68
48 50 49 58 58 61 56 56 53 48 50 57 55 44 40 41 45 51 56 61 63 63 63 67 66 65 64 68 74 71 72 67 72 70 72 76 78 76 75 76 74 52 71 71 70 71 68 68 68 68 68 68 68 69
50 54 56 50 57 56 51 51 52 54 56 51 44 43 45 49 52 55 54 57 58 63 63 60 68 72 68 66 74 75 68 72 70 64 65 67 69 71 74 74 74 73 73 72 45 57 64 65 66 66 66 67 67 66
49 55 51 52 52 49 51 52 49 51 51 51 51 50 53 56 62 67 67 62 62 65 65 68 69 61 60 71 70 69 74 75 72 70 67 67 68 72 72 71 71 72 71 70 70 70 54 65 59 67 64 64 63 62
54 55 50 52 47 47 48 50 53 54 51 51 52 50 51 56 64 68 69 68 67 70 69 70 71 73 72 71 69 69 69 73 72 70 69 73 72 70 70 70 71 71 69 69 67 65 63 64 63 62 61 59 58 57
47 47 48 45 44 47 49 50 51 53 55 56 59 60 61 61 60 64 70 71 70 70 60 69 70 69 71 73 72 71 56 68 65 65 63 66 66 65 68 69 70 68 67 67 66 64 61 60 60 59 59 57 57 57
50 53 52 49 46 48 53 58 58 56 60 61 60 61 64 62 58 66 74 74 71 70 71 71 73 73 69 70 69 69 62 63 51 39 41 39 37 45 62 64 65 66 65 64 64 63 59 58 58 57 57 57 56 56

GFSWCAN_sfc_temp_096.txt.gz
Temp
55 55 55 55 55 56 56 56 56 55 56 57 57 58 58 59 58 60 65 77 70 65 70 75 77 71 73 73 67 73 71 74 71 65 65 67 66 69 65 67 63 60 54 58 55 51 48 73 71 60 61 69 68 66
55 55 55 55 55 55 55 55 56 55 55 56 57 57 58 58 58 57 59 78 78 67 68 75 76 78 77 76 72 72 70 69 73 67 69 69 66 69 63 59 69 58 54 49 62 61 69 74 69 72 72 70 69 69
54 54 54 54 54 55 55 55 56 55 55 56 56 57 57 57 57 57 63 70 72 66 68 72 72 81 85 82 84 68 73 75 72 75 69 68 63 71 61 63 64 54 56 50 65 69 65 70 71 74 72 67 67 62
54 54 54 54 54 54 55 55 55 55 55 55 56 56 57 57 56 57 60 72 70 68 61 72 85 78 85 85 81 80 76 76 75 73 68 67 65 75 68 71 68 70 69 67 65 68 72 72 72 68 66 67 65 67
53 54 54 54 54 54 54 55 55 55 55 55 56 56 57 56 55 58 63 68 72 65 59 63 75 81 83 80 78 78 75 71 70 67 66 64 72 72 74 74 71 74 61 64 60 70 69 68 71 68 64 60 59 59
53 53 53 54 54 54 54 54 55 55 55 55 55 56 56 56 54 56 52 69 72 72 61 59 78 77 79 78 75 73 74 71 71 68 68 73 77 71 65 64 74 73 74 78 71 78 74 72 71 67 61 61 65 68
53 53 53 53 54 54 54 54 54 54 54 54 55 55 55 54 60 54 53 63 58 67 60 61 67 77 78 76 75 73 74 73 71 69 67 69 72 72 68 63 73 78 77 76 80 78 72 67 70 70 65 62 64 68
53 53 53 53 53 54 54 54 54 53 54 54 54 54 53 53 55 57 68 58 61 64 64 59 64 70 77 70 68 75 70 71 70 69 70 69 72 71 63 71 76 78 79 79 80 80 76 74 65 60 63 69 63 73
52 53 53 53 53 53 54 54 54 53 53 54 54 53 53 52 50 58 61 61 70 61 54 62 61 55 76 72 74 72 72 64 72 66 67 70 67 64 70 72 74 77 75 77 80 81 81 78 60 60 62 63 72 71
52 52 53 53 53 53 54 54 54 52 53 53 54 50 47 52 57 61 62 59 61 63 63 58 68 63 70 72 69 69 70 65 62 68 74 67 66 71 72 71 75 76 78 79 75 75 76 76 65 61 61 73 76 76
52 52 53 53 53 53 54 54 52 52 52 53 50 49 57 58 62 57 49 53 55 54 63 65 66 65 77 66 65 70 62 64 58 63 65 63 59 59 66 70 75 79 79 80 64 58 59 61 63 66 57 77 76 77
52 52 52 53 53 53 53 52 52 53 56 57 57 55 56 55 51 50 51 58 58 56 67 65 67 70 71 74 66 64 57 52 46 55 59 58 55 53 57 66 72 79 81 75 65 61 57 58 63 73 75 77 77 72
52 52 52 53 53 53 53 52 52 54 54 54 51 48 48 54 41 48 47 55 56 66 67 67 65 69 70 71 67 66 59 54 58 51 48 52 61 62 65 63 72 75 68 69 62 60 61 56 78 75 73 73 78 77
52 52 52 52 53 53 52 53 53 53 51 48 49 39 48 50 55 59 59 63 69 69 69 68 64 66 69 64 66 59 66 66 52 46 45 57 60 63 68 67 72 70 70 60 69 77 77 77 76 77 77 77 76 74
52 52 52 52 53 52 52 52 53 53 50 49 53 43 55 63 65 68 69 70 70 72 70 66 66 68 66 63 66 64 58 56 54 51 54 63 64 66 65 67 68 68 68 66 72 75 76 76 75 74 75 76 76 77
52 52 52 52 52 53 52 53 52 52 50 50 55 54 60 63 64 66 69 67 72 70 69 68 63 59 60 64 60 58 55 49 52 48 54 62 64 66 67 68 69 69 69 69 69 71 72 74 74 74 76 71 73 74
51 49 51 52 52 52 53 52 51 48 46 49 53 62 60 61 65 65 69 65 73 66 61 59 58 59 67 62 55 58 54 59 58 59 61 65 65 65 66 67 69 67 66 65 64 65 65 68 73 71 70 70 74 74
52 51 52 52 52 52 50 51 49 48 46 48 50 54 58 63 67 67 58 68 69 55 58 55 66 62 60 54 51 59 62 68 69 69 67 67 66 66 67 65 66 67 66 63 60 57 58 65 69 71 67 67 70 69
54 53 52 53 53 50 47 50 52 48 54 53 58 59 52 60 69 71 71 68 55 53 51 60 61 57 48 59 53 61 69 70 68 69 66 66 66 65 65 65 67 65 65 62 59 55 56 56 65 70 65 68 70 75
52 52 53 54 54 53 51 53 60 54 52 52 60 59 66 65 67 70 71 71 67 53 48 62 61 63 65 67 69 69 69 70 69 65 63 65 67 66 65 63 62 64 64 63 58 53 57 58 60 70 70 74 73 71
54 53 55 55 56 55 57 59 57 61 64 62 65 64 63 67 65 67 67 73 69 65 62 65 63 65 69 70 71 71 69 69 66 63 62 63 66 62 61 64 63 62 62 62 57 58 56 66 68 77 77 75 75 76
52 54 56 57 56 61 60 65 63 67 64 63 64 65 63 63 64 61 69 68 65 65 64 66 63 64 69 67 68 69 69 69 66 62 54 58 59 62 56 60 63 56 55 62 65 67 64 72 70 72 73 72 69 69
54 57 59 63 57 51 52 68 59 61 55 60 65 59 59 62 66 72 65 68 68 69 66 61 68 69 68 70 71 70 71 69 64 64 62 63 66 67 63 62 67 67 65 68 68 71 67 56 63 62 64 65 71 68
56 58 56 57 58 50 63 58 64 61 62 58 58 56 59 63 68 63 60 63 66 66 68 66 69 70 70 68 70 68 65 63 61 65 60 61 63 63 57 64 67 67 69 70 72 72 70 71 61 69 71 68 67 67
47 47 51 36 60 55 54 54 56 56 54 58 55 57 57 63 56 56 54 55 61 60 62 65 67 67 63 67 69 69 69 68 65 54 56 59 58 56 59 68 66 65 71 73 70 71 71 68 70 70 67 67 66 67
37 54 44 56 57 56 56 53 54 55 58 57 56 56 58 54 47 44 45 55 52 52 58 58 60 61 63 65 66 56 55 62 65 65 72 69 68 70 70 68 67 67 73 73 70 69 68 69 69 69 69 67 56 66
42 50 60 67 63 63 60 62 63 59 54 52 52 49 46 38 38 44 50 53 54 55 59 63 61 61 61 60 66 62 59 70 65 65 70 71 76 75 73 69 66 68 73 72 71 70 67 67 67 67 68 69 69 68
56 57 53 58 60 62 55 57 56 52 54 58 54 45 43 43 44 49 52 56 60 63 63 70 69 66 64 59 70 67 56 59 72 70 74 76 75 76 74 75 74 53 70 70 70 69 67 67 67 66 66 66 65 66
53 61 62 55 56 58 56 54 53 55 54 52 47 44 45 49 51 52 58 58 62 66 67 60 64 73 73 74 76 75 73 69 68 67 65 66 68 70 74 73 73 73 72 70 50 57 64 64 65 65 66 65 64 65
54 61 55 55 52 50 51 56 52 54 55 56 56 56 55 53 56 57 62 69 70 68 70 71 72 68 70 71 70 72 75 74 71 68 65 66 67 70 71 71 71 71 71 70 70 68 55 63 57 66 63 62 61 60
61 60 55 52 49 48 49 53 58 60 60 60 58 60 55 63 68 71 67 72 73 72 73 72 73 73 72 71 69 68 68 70 68 67 66 69 69 67 67 69 70 70 69 69 68 65 63 63 62 61 60 58 58 57
55 52 49 44 45 50 53 51 51 53 54 56 59 63 64 64 59 67 72 72 70 69 61 69 70 69 71 73 72 68 55 66 64 63 61 62 62 63 67 68 69 69 68 67 67 65 62 61 60 59 58 57 57 56
53 55 52 50 49 51 58 57 58 57 57 56 62 63 65 64 59 66 75 75 72 71 72 73 74 73 70 71 71 67 62 64 52 41 41 40 38 45 61 63 64 64 65 65 65 64 61 60 59 58 57 56 56 56

GFSWCAN_sfc_temp_099.txt.gz
Temp
55 55 55 55 55 55 55 56 56 57 56 56 56 57 58 58 58 54 60 65 60 58 62 66 68 62 64 63 56 61 62 62 60 53 54 56 55 56 55 57 53 51 46 44 47 43 43 62 63 54 56 60 61 59
54 54 54 55 55 55 55 55 56 56 56 55 56 56 58 58 58 57 56 68 69 61 61 69 69 71 69 69 63 61 59 59 62 56 56 56 53 55 48 48 59 49 51 48 48 46 59 63 60 64 59 55 60 60
54 54 54 54 54 55 55 55 56 55 56 55 56 56 57 57 57 57 59 61 63 60 62 64 64 73 77 75 77 59 62 65 61 63 58 56 51 58 51 53 54 53 54 47 53 58 61 63 65 61 61 59 61 60
54 54 54 54 54 54 54 55 55 56 56 55 55 56 57 57 56 56 57 63 61 61 54 62 78 70 78 79 76 74 67 67 64 62 58 55 52 60 57 60 58 59 55 51 47 52 62 64 61 61 61 62 64 62
53 53 53 53 54 54 54 54 55 55 56 55 55 56 56 56 55 56 56 57 60 56 52 56 65 71 76 74 73 72 67 62 60 57 57 55 60 59 62 61 58 63 55 53 51 59 60 59 60 62 59 60 62 64
53 53 53 53 53 54 54 54 54 55 55 55 55 55 56 56 55 54 51 61 63 64 54 51 67 68 74 72 69 67 65 62 61 58 58 62 66 59 54 52 61 65 64 66 62 67 64 62 62 63 60 60 63 63
53 53 53 53 53 54 54 54 54 54 54 54 54 54 55 54 55 54 52 56 56 59 56 53 58 69 74 70 67 65 66 62 62 60 59 60 62 60 56 53 61 67 68 67 69 66 61 63 60 63 62 64 65 65
53 53 53 53 53 53 53 54 54 54 53 54 54 54 54 53 54 54 63 60 57 58 58 51 56 63 71 63 59 66 61 62 60 60 60 58 61 59 52 60 64 68 70 69 68 70 65 61 60 61 63 63 61 63
52 52 53 53 53 53 53 53 54 53 53 54 53 53 53 51 50 59 62 60 63 58 51 55 53 53 69 64 64 62 63 55 63 57 59 59 56 52 58 59 63 66 65 65 62 66 63 61 60 61 63 63 61 61
52 52 53 53 53 53 53 53 54 53 52 53 52 49 46 53 60 58 58 55 55 57 57 51 60 54 64 63 60 61 61 56 52 58 62 57 56 60 63 64 64 64 67 70 62 55 57 55 58 58 58 59 58 60
52 52 53 53 53 53 53 53 53 52 52 52 48 47 53 58 55 54 47 50 53 50 56 57 58 56 67 59 58 62 56 57 50 52 53 53 52 57 60 61 62 63 65 63 62 60 61 62 57 56 57 60 60 67
52 52 52 53 53 53 53 53 52 51 54 54 54 55 55 51 50 49 47 53 52 50 60 57 60 62 63 64 59 56 51 51 47 53 51 49 53 56 57 60 54 59 62 61 63 62 63 63 60 58 58 58 59 65
52 52 52 52 53 53 53 53 52 54 54 58 53 49 49 50 39 43 43 50 51 59 62 62 59 62 63 63 59 52 45 47 54 49 47 49 54 58 58 60 54 59 60 59 59 62 61 62 61 59 61 61 65 66
52 52 52 52 53 53 53 52 52 52 51 49 45 36 42 44 48 52 54 56 63 65 63 62 60 59 60 57 58 55 58 55 48 46 46 50 54 57 60 62 62 57 58 57 57 60 60 59 61 61 67 67 67 66
52 52 52 52 53 53 52 52 52 52 50 45 46 41 47 56 61 63 65 63 65 66 65 60 60 60 58 57 58 57 56 51 47 46 50 54 58 59 60 61 62 62 62 62 62 62 62 62 65 66 67 67 65 66
52 52 52 53 53 53 52 52 51 51 48 48 51 50 57 58 55 60 63 62 66 65 61 62 58 55 55 57 57 52 51 46 46 49 50 51 52 58 59 61 62 62 61 61 61 61 62 60 60 64 66 67 66 66
52 52 53 53 52 51 52 50 49 46 48 48 51 58 58 59 56 61 60 64 66 62 50 54 51 48 58 55 49 50 49 52 52 51 52 53 57 58 60 61 62 62 60 59 58 58 58 58 59 60 63 63 67 65
50 52 52 52 53 52 51 50 49 49 45 49 49 51 52 56 57 60 58 60 59 55 54 50 51 52 49 49 49 55 56 58 60 55 57 57 58 60 61 60 61 62 60 58 56 56 56 55 55 56 55 64 64 64
52 52 53 53 54 50 46 48 50 44 47 48 52 50 50 53 59 53 53 55 56 56 51 51 50 48 48 56 55 59 61 62 56 58 59 62 61 60 60 60 60 60 59 58 56 54 54 55 54 56 58 63 62 63
53 53 53 53 54 51 50 49 54 48 46 52 53 50 53 55 64 60 54 55 52 51 51 48 50 50 50 58 61 61 61 62 62 58 58 59 60 60 59 58 57 59 59 58 58 53 56 55 56 60 63 63 63 62
52 52 54 53 52 52 52 54 49 48 49 49 54 51 52 58 62 62 62 53 49 47 46 53 55 58 63 63 63 63 62 62 59 59 58 58 60 58 58 59 58 57 57 56 57 57 54 58 60 62 64 63 64 63
53 54 52 53 50 55 55 60 58 60 60 60 60 62 59 58 58 60 63 62 54 54 51 56 58 62 61 62 63 65 64 61 61 57 54 56 57 58 55 56 55 54 55 58 60 61 61 62 61 63 62 62 62 64
53 56 56 56 54 47 48 64 57 61 55 57 60 58 58 58 62 65 57 55 53 62 61 61 64 65 64 66 67 62 63 62 59 58 58 57 58 58 58 57 58 58 59 62 62 62 62 54 61 63 63 63 62 61
56 54 54 54 54 47 62 56 62 58 59 58 57 54 57 59 65 61 53 53 54 57 59 60 63 63 63 62 56 60 62 62 60 58 59 60 60 57 57 58 60 61 64 65 65 64 64 62 60 63 62 62 61 60
46 46 47 37 57 55 54 55 56 57 55 57 56 53 53 58 53 51 49 52 57 58 59 60 62 63 60 54 55 57 59 61 61 58 59 59 59 61 61 64 64 65 68 65 62 62 61 62 63 63 63 62 61 61
36 53 43 55 56 55 56 53 55 56 57 55 52 55 55 51 47 44 49 52 54 54 56 56 57 57 55 54 52 52 54 56 58 59 62 64 65 63 63 62 61 61 66 65 62 61 61 61 62 62 62 61 53 61
41 52 59 64 61 61 58 60 60 56 52 50 50 48 46 39 39 44 49 52 51 57 58 58 56 56 55 55 54 56 59 57 63 64 67 67 70 69 67 62 59 61 65 66 64 63 61 61 61 61 61 61 60 59
53 54 52 57 58 58 54 54 52 50 51 54 53 44 42 41 43 48 51 56 57 57 59 60 64 59 57 57 60 67 63 65 69 69 70 69 70 69 67 68 63 54 61 60 63 63 62 61 61 61 60 58 57 58
52 57 57 54 56 54 51 51 51 51 54 53 46 43 45 49 50 51 54 57 58 55 59 62 65 69 67 64 66 72 70 67 64 61 61 60 62 63 68 67 67 66 65 61 46 53 57 59 58 59 59 57 57 57
54 60 54 53 50 47 50 54 52 57 57 52 53 51 52 54 58 64 59 58 59 65 68 69 67 68 66 67 66 66 67 65 63 59 57 58 59 63 64 64 65 66 65 64 63 63 54 59 57 59 57 56 55 54
58 57 54 52 47 48 51 54 58 60 60 59 61 57 56 57 62 67 70 68 72 69 68 68 68 69 67 66 63 62 60 63 61 60 60 62 62 61 62 62 65 65 64 63 62 60 60 58 57 56 55 54 54 53
54 52 49 44 45 53 55 55 56 58 58 59 60 62 59 60 58 63 70 70 68 68 61 67 66 65 68 67 65 63 55 61 60 59 57 57 57 59 62 63 63 63 64 63 62 60 59 58 56 55 54 54 54 53
54 54 53 51 49 51 57 57 55 55 56 55 58 61 60 60 56 60 71 72 69 68 68 70 69 69 67 68 66 63 58 59 50 41 41 41 40 45 57 60 60 61 61 61 61 59 58 57 55 54 54 54 54 53

GFSWCAN_sfc_temp_102.txt.gz
Temp
54 54 55 55 55 55 55 56 56 56 57 57 56 56 57 58 57 52 50 55 50 46 50 58 60 52 52 50 47 52 53 54 50 46 45 45 43 48 46 48 47 44 41 40 41 38 39 60 62 54 53 55 58 58
54 54 54 54 55 55 55 55 55 55 56 56 56 56 56 57 57 56 50 61 61 49 50 59 63 65 62 61 52 50 51 49 52 48 47 46 46 46 43 41 49 44 46 43 45 44 52 56 56 58 58 57 57 57
54 54 54 54 54 54 55 55 55 55 56 57 56 56 56 56 57 56 48 51 52 47 51 52 57 64 65 66 67 51 50 56 52 55 49 47 45 46 42 44 46 52 53 45 48 52 54 56 59 59 59 58 59 59
54 54 54 54 54 54 54 54 55 55 55 56 56 56 56 56 56 56 48 49 49 47 42 48 64 59 67 62 65 65 63 56 55 53 49 46 45 50 45 49 51 52 50 48 46 50 52 59 60 60 60 61 60 61
53 53 53 54 54 54 54 54 54 55 55 56 56 55 55 56 55 53 50 51 52 47 44 44 55 63 63 61 64 65 58 54 51 49 46 45 48 49 48 49 48 55 54 48 47 56 54 56 59 60 58 58 59 63
53 53 53 53 53 53 54 54 54 54 55 55 55 54 54 55 55 51 47 55 56 52 45 40 52 56 60 62 61 57 57 53 52 50 47 49 55 51 45 43 56 57 59 58 57 59 58 59 59 60 57 58 61 63
53 53 53 53 53 54 54 54 54 54 54 54 53 53 54 54 50 49 49 52 54 51 48 41 43 55 59 56 56 56 55 54 53 49 46 49 53 52 45 43 58 61 60 62 60 60 56 58 57 60 59 62 61 61
52 53 53 53 54 54 53 53 53 54 54 53 53 53 53 53 52 48 57 56 56 49 50 41 44 51 58 52 51 54 52 50 50 50 49 47 49 48 43 52 55 59 63 60 59 60 58 57 57 57 59 61 60 60
52 52 52 52 53 53 53 53 53 53 53 53 53 53 52 48 47 48 60 58 55 51 45 42 40 43 56 53 52 52 51 45 51 49 48 50 45 44 50 51 52 57 56 55 58 59 58 56 56 57 57 59 58 57
52 52 52 52 52 53 53 53 53 53 53 53 52 48 45 47 58 57 53 50 49 46 45 40 44 43 51 48 49 52 49 47 43 48 50 48 46 52 50 53 52 56 57 57 55 52 54 54 57 58 57 57 58 59
52 52 52 52 52 53 53 53 53 52 51 49 46 45 50 58 53 49 45 45 46 41 45 44 47 44 52 48 52 54 49 47 42 46 48 46 45 49 51 51 54 55 56 56 55 57 57 57 57 57 56 59 60 61
52 52 52 52 53 53 53 53 52 49 49 50 50 53 52 49 47 44 43 44 42 42 47 45 47 50 51 55 52 49 44 45 42 48 47 43 47 52 52 52 55 56 59 59 58 56 58 58 58 56 58 59 59 59
52 52 52 52 53 53 53 52 52 52 52 52 49 46 45 45 38 41 38 40 40 47 51 50 48 50 50 52 47 45 44 43 51 45 43 44 48 52 50 53 55 57 59 58 58 59 58 59 60 57 57 61 61 60
52 52 52 52 52 53 52 52 52 51 48 45 44 36 41 39 40 42 43 45 50 52 53 50 49 50 49 49 50 47 49 48 43 42 42 46 50 52 55 56 56 55 56 56 59 59 60 60 61 61 61 61 61 62
52 52 52 52 53 53 52 52 52 50 47 43 45 38 40 45 47 52 53 49 54 55 54 50 50 51 47 49 49 49 47 47 45 45 47 49 49 53 54 55 54 53 54 55 57 58 60 60 59 59 61 62 61 60
52 52 50 53 53 52 52 51 50 50 47 45 45 43 48 48 46 48 52 51 53 50 49 49 49 49 47 48 49 45 46 43 44 47 48 48 50 52 54 55 56 56 55 54 54 55 55 55 56 58 60 61 63 61
52 46 52 53 52 51 52 49 48 45 45 45 45 50 47 47 47 48 49 52 54 49 46 47 47 45 48 44 44 47 45 48 48 49 49 50 49 52 53 54 55 55 53 52 53 53 52 54 56 56 57 56 60 61
49 50 52 51 51 51 49 49 46 46 43 45 41 43 45 49 48 50 49 49 49 49 48 47 49 47 46 43 45 49 49 50 50 50 50 51 53 53 54 52 54 54 52 52 52 52 52 54 54 54 55 57 58 57
50 51 52 53 52 49 45 46 48 43 44 43 44 45 46 49 50 50 50 50 50 50 48 47 47 45 45 49 49 49 49 50 49 50 51 53 53 53 53 54 54 53 53 52 50 52 54 55 55 55 55 55 55 58
52 52 53 54 54 48 44 44 49 45 45 47 48 45 46 49 51 50 52 50 49 46 45 46 47 47 46 48 50 50 50 51 50 49 49 50 52 52 52 52 52 53 52 54 56 52 54 55 57 57 56 57 58 59
52 51 54 50 48 49 49 48 46 47 47 45 47 48 48 49 48 48 49 51 45 43 45 49 49 51 52 51 52 52 52 52 50 49 49 49 51 54 54 55 55 54 54 54 54 55 52 56 58 57 57 56 55 55
49 54 49 50 47 50 47 50 47 49 46 48 48 47 48 48 49 50 50 49 47 48 49 49 50 52 52 53 54 54 54 54 52 50 50 50 53 55 52 54 54 54 54 54 56 57 55 55 55 55 55 55 55 54
52 51 49 51 48 45 44 50 48 50 47 47 51 50 48 48 52 52 45 47 50 50 51 51 52 55 54 54 54 54 56 53 51 51 51 52 54 54 54 55 56 55 54 59 59 59 58 52 53 55 55 54 52 52
54 48 48 47 46 43 51 49 52 50 49 47 47 46 50 48 51 48 44 48 48 49 50 51 51 51 53 52 51 51 52 56 53 53 55 53 50 51 53 54 59 59 58 54 55 52 53 52 51 54 54 54 52 50
41 43 43 35 47 47 49 48 48 48 47 49 47 46 43 47 43 43 42 47 46 47 49 51 50 50 48 49 49 51 53 52 51 52 55 55 52 53 52 51 52 52 53 52 51 52 52 52 52 52 52 52 52 50
31 47 43 47 48 49 47 46 48 49 50 47 47 45 44 42 41 41 41 46 48 50 52 50 50 48 47 49 49 51 53 53 53 55 56 56 54 53 50 50 50 52 53 53 53 53 53 53 53 53 52 51 46 51
38 45 50 54 51 51 51 50 51 49 46 43 42 44 43 39 39 43 48 50 50 53 53 54 54 51 50 51 52 54 55 55 55 57 58 58 55 55 54 52 50 51 54 55 54 54 53 52 52 52 50 50 49 49
46 48 44 48 48 49 46 47 46 43 43 47 47 42 41 41 41 47 49 53 54 54 55 54 56 55 54 53 55 57 53 54 59 61 65 61 57 57 54 53 52 48 52 54 54 53 53 52 52 51 50 48 48 49
48 50 50 46 49 46 44 44 44 45 47 46 44 42 44 47 50 50 52 53 55 53 53 56 59 57 58 58 56 55 56 57 53 50 48 46 47 49 52 53 53 52 52 53 47 49 54 52 51 50 50 48 48 48
47 50 47 47 45 42 46 48 48 51 50 47 47 47 47 50 53 56 53 53 54 53 57 56 63 62 57 53 51 52 54 52 50 47 46 45 46 49 50 52 52 52 52 52 52 52 49 50 49 49 48 47 45 45
52 49 46 44 44 47 48 49 50 52 53 53 54 52 51 50 56 59 59 61 61 61 59 58 57 54 53 52 50 48 46 49 49 49 48 48 48 48 50 51 52 52 51 52 51 50 49 48 47 47 47 47 47 46
47 45 46 43 43 48 49 47 48 50 49 50 53 54 52 50 49 56 56 57 57 60 55 54 53 52 52 52 53 52 47 49 47 48 48 47 47 48 49 49 50 54 53 52 51 50 50 48 47 47 46 47 47 47
47 47 47 45 44 46 48 49 49 48 51 51 53 53 56 52 49 56 58 57 55 54 54 54 54 55 55 54 52 51 49 48 45 42 42 42 42 43 46 46 48 52 51 50 49 49 49 48 47 47 47 47 46 47

GFSWCAN_sfc_temp_105.txt.gz
Temp
54 54 54 54 55 55 55 55 56 56 57 57 57 56 56 56 56 52 50 56 52 46 49 54 57 51 49 48 44 50 50 50 47 43 43 42 41 45 42 45 42 42 40 38 40 40 40 59 57 49 51 54 57 56
54 54 54 54 54 54 55 55 55 55 56 56 57 56 56 56 56 55 49 58 58 47 47 53 58 62 58 57 50 47 47 46 49 45 43 43 44 43 41 40 46 42 45 42 44 46 54 54 55 57 56 56 58 56
54 54 54 54 54 54 54 54 55 55 55 56 57 56 56 56 55 55 50 51 53 49 52 49 55 61 61 63 64 49 47 53 49 51 46 44 43 44 40 42 45 47 48 44 48 54 53 55 57 57 57 57 59 58
53 54 54 54 54 54 54 54 54 55 55 55 56 56 56 55 54 55 50 49 50 48 43 47 59 55 62 58 60 63 60 52 51 50 47 44 43 48 43 46 46 49 49 46 46 50 52 55 56 58 59 60 59 60
53 53 53 53 53 54 54 54 54 54 55 55 56 56 55 55 54 53 51 49 52 47 42 42 50 61 60 58 58 60 58 50 48 46 43 43 44 46 45 43 43 49 49 45 47 54 55 55 59 59 56 58 59 58
52 53 53 53 53 53 54 54 54 54 55 55 55 56 54 54 54 49 45 48 51 52 46 39 49 52 55 59 57 54 57 49 49 47 45 45 48 49 43 39 49 52 54 53 55 58 56 59 58 58 55 56 59 60
52 53 53 53 53 53 53 54 54 54 54 54 54 53 53 53 51 48 44 51 52 51 44 39 40 50 54 52 52 52 51 50 50 46 45 47 49 49 41 41 51 58 59 57 58 57 55 57 56 59 59 60 60 60
52 52 53 53 53 53 53 53 53 54 54 54 53 53 53 53 51 48 56 55 51 49 50 39 40 45 50 48 50 49 48 47 47 48 45 45 46 44 40 47 51 55 56 57 57 60 58 56 56 56 57 58 58 58
52 52 52 53 53 53 53 53 53 53 53 53 53 53 51 48 44 46 58 57 54 51 44 41 37 39 52 47 48 49 48 44 47 45 44 47 43 42 47 48 51 54 53 55 54 55 55 55 54 55 56 57 56 58
52 52 52 53 53 53 53 53 53 53 53 53 50 47 44 45 56 56 49 48 48 49 46 39 40 40 47 45 48 48 45 46 41 45 47 43 43 46 49 50 51 53 56 57 52 51 52 53 54 54 54 56 57 58
52 52 52 53 53 52 53 53 53 52 51 48 46 44 47 56 51 48 44 41 45 40 41 41 43 42 48 44 47 52 46 43 40 43 45 41 40 46 50 51 52 53 54 56 55 55 54 53 55 54 56 58 58 59
52 52 52 52 52 52 53 52 52 49 47 49 48 52 50 48 46 43 42 40 42 41 43 41 43 44 47 49 46 46 44 42 40 45 44 41 44 49 50 52 53 53 55 57 57 57 57 56 56 56 56 57 59 61
52 52 52 52 52 53 53 52 52 52 51 50 48 46 44 44 38 39 37 40 37 43 45 44 44 46 46 49 45 43 43 40 46 42 41 43 46 50 50 51 54 56 58 58 58 59 57 57 59 56 57 59 60 60
52 52 52 52 52 52 52 52 52 50 47 45 43 36 40 38 40 40 42 41 45 46 46 48 46 45 45 45 45 44 46 47 42 40 41 44 49 52 54 55 55 57 56 55 55 57 58 58 58 59 58 59 60 59
52 52 52 52 52 52 52 52 51 49 47 43 43 37 39 42 46 48 47 46 50 49 47 47 47 47 45 47 45 46 45 43 45 44 46 49 49 52 53 54 54 54 54 53 56 55 58 59 58 58 59 59 58 59
52 51 49 52 53 52 52 51 50 49 47 43 45 41 46 45 45 44 46 46 47 48 47 47 46 45 43 45 45 43 45 42 44 45 47 47 50 50 51 53 55 54 52 51 52 54 54 54 55 55 56 57 58 59
52 46 52 52 52 51 52 49 48 45 44 43 43 47 46 46 46 48 47 48 51 47 43 45 45 43 46 43 43 44 44 45 47 46 46 48 49 50 51 52 54 53 51 51 51 51 51 53 54 55 55 55 58 56
47 50 52 52 51 51 49 48 46 44 41 43 41 44 47 48 47 49 49 49 47 46 47 46 49 45 44 43 42 47 48 47 47 48 49 50 50 51 52 51 52 51 50 50 50 51 52 52 54 53 53 55 56 56
47 50 52 52 51 48 45 45 46 41 44 43 43 44 46 47 50 50 48 48 48 48 48 47 46 45 44 47 47 48 47 47 48 48 49 50 50 50 51 52 52 52 51 50 51 53 54 55 54 54 55 55 55 57
52 52 52 53 53 47 43 42 46 41 43 47 45 44 45 47 48 48 49 48 46 46 45 45 46 47 47 49 49 49 49 49 48 47 47 48 50 50 50 50 50 50 54 54 53 51 55 54 56 55 56 55 55 55
52 51 53 50 48 48 47 47 45 46 46 43 47 46 47 49 49 48 47 48 45 43 45 48 49 49 50 50 49 49 49 49 48 48 47 47 53 53 54 54 55 54 51 52 53 53 54 56 54 55 55 55 55 54
47 53 47 50 46 49 47 48 45 47 43 45 47 48 46 46 47 47 49 47 46 48 48 48 49 49 49 50 50 51 50 50 49 48 48 50 52 54 52 53 52 50 50 53 54 52 52 52 54 54 54 53 52 52
52 51 48 49 46 43 44 49 44 46 44 45 46 45 47 46 47 50 45 45 49 51 49 48 49 51 50 51 52 51 52 50 48 49 51 52 52 51 54 55 55 53 54 55 55 50 49 48 51 51 51 50 50 48
52 45 44 45 45 41 49 46 47 46 45 44 45 44 44 44 47 46 45 46 46 47 47 48 48 49 49 50 48 49 50 54 54 54 53 51 48 51 52 55 52 52 53 52 52 52 49 49 47 49 50 49 47 45
40 41 43 36 45 47 47 46 46 47 45 45 43 41 41 44 42 44 44 44 45 46 48 47 47 47 47 47 47 50 51 54 54 53 53 52 50 48 48 48 48 48 49 50 49 49 48 49 49 49 49 48 47 46
37 45 41 45 46 47 47 46 46 43 45 43 42 42 41 40 41 41 43 47 48 49 49 48 46 47 47 49 50 50 51 54 55 54 50 50 51 50 48 47 47 48 49 48 50 49 49 49 49 49 48 47 44 47
40 44 47 52 48 49 45 46 47 43 42 40 42 44 43 39 39 43 47 50 50 51 52 53 52 50 49 51 53 52 54 54 53 51 50 49 49 49 50 49 47 49 49 52 51 51 50 49 48 48 47 46 46 46
47 48 44 47 45 44 43 43 42 40 42 47 47 42 41 41 42 47 49 50 52 53 54 55 56 54 52 49 50 53 54 54 57 52 51 50 49 51 49 49 48 45 49 50 51 50 49 49 48 48 47 46 45 46
47 48 48 43 44 43 43 43 44 45 47 47 43 43 45 48 50 50 52 52 54 53 52 52 50 53 56 54 49 49 49 54 54 51 48 43 45 47 48 48 49 49 49 48 44 47 50 49 48 48 47 46 45 45
44 46 44 43 43 44 46 48 47 48 47 47 47 49 49 50 52 54 53 53 52 51 50 54 55 55 48 46 44 46 45 45 45 45 43 42 43 45 45 47 47 47 48 49 48 48 45 47 46 46 46 45 43 43
45 44 43 44 44 44 47 49 51 52 52 51 49 50 50 48 54 56 57 58 58 57 55 53 49 48 48 46 45 45 43 44 45 45 45 43 43 45 46 46 46 47 48 48 47 46 46 45 44 44 44 44 45 43
43 42 43 41 42 46 47 46 45 48 51 49 49 48 49 50 47 54 58 54 51 50 48 49 49 47 47 47 47 47 44 45 45 45 45 45 44 45 45 45 47 49 48 48 47 46 46 45 44 44 44 44 44 44
44 44 43 43 42 44 47 49 47 46 50 50 51 53 50 47 47 49 51 50 50 50 50 49 49 49 49 49 49 47 45 46 43 41 41 41 41 42 44 44 47 48 48 47 46 46 45 46 44 44 43 43 43 43

GFSWCAN_sfc_temp_108.txt.gz
Temp
54 54 54 54 54 54 55 55 55 55 56 57 57 57 57 56 56 53 52 55 50 46 47 51 54 48 48 46 43 47 48 47 45 42 41 41 40 43 41 44 42 42 39 38 38 37 39 58 57 52 52 54 56 57
54 54 54 54 54 54 54 54 55 55 55 56 57 57 56 56 56 55 49 57 56 47 44 52 55 58 57 56 50 45 46 46 47 43 41 41 42 41 40 39 45 41 44 41 43 43 52 55 55 57 56 54 55 56
54 54 54 54 54 54 54 54 54 55 55 56 57 57 57 55 55 54 50 51 52 48 46 52 50 56 57 60 62 48 48 53 48 49 46 43 42 42 39 40 43 46 47 44 46 50 52 55 57 58 58 57 57 58
54 54 54 54 54 54 54 54 54 54 55 55 56 56 56 55 55 54 50 51 48 48 44 44 56 53 58 56 59 62 57 50 49 48 45 43 43 46 42 45 44 48 48 45 45 50 53 57 57 58 59 60 59 60
53 53 53 53 53 54 54 54 54 54 55 55 55 56 56 55 54 52 52 51 50 45 43 44 47 59 60 58 57 58 56 49 48 46 43 43 44 45 42 42 41 47 47 43 44 52 52 53 57 59 57 58 59 59
53 53 53 53 53 53 54 54 54 54 54 55 55 55 55 54 53 50 44 50 53 49 41 39 46 47 51 51 52 52 54 47 49 46 45 45 48 48 41 38 46 49 50 52 52 56 54 57 58 59 57 58 59 60
52 53 53 53 53 53 53 53 53 54 54 54 54 54 55 53 49 46 42 50 52 52 45 39 39 47 50 49 48 47 48 48 48 45 44 46 46 47 41 41 48 55 55 54 55 54 54 56 56 59 58 59 60 61
52 52 52 53 53 53 53 53 53 53 53 54 54 53 53 52 51 48 54 53 53 44 45 37 38 42 47 46 46 46 44 44 44 45 43 44 44 42 40 46 50 53 55 55 57 56 58 56 56 57 58 58 58 58
52 52 52 52 53 53 53 53 53 53 53 53 53 53 51 48 45 44 57 56 52 48 41 40 39 38 48 44 45 46 46 43 44 44 43 46 41 40 46 46 50 53 53 55 55 56 55 55 55 55 56 57 57 57
52 52 52 52 53 53 53 53 53 53 52 53 49 47 43 47 55 55 51 47 48 48 46 41 39 38 43 43 49 48 43 43 41 44 44 41 42 45 47 50 50 51 51 53 52 52 53 54 54 54 55 56 57 57
52 52 52 52 53 53 53 53 53 52 52 47 45 44 46 54 47 43 42 39 42 39 40 40 40 40 46 42 42 45 43 42 39 42 43 39 38 45 49 50 52 52 52 53 54 54 55 55 54 55 55 57 58 58
52 52 52 52 53 53 53 52 52 48 47 47 47 50 48 44 44 40 41 39 38 37 40 39 41 41 44 45 43 44 42 41 39 44 42 39 42 47 50 52 53 53 55 55 57 56 57 56 56 56 56 57 58 59
52 52 52 52 53 52 52 52 52 52 51 48 46 43 42 44 37 36 35 39 35 41 43 43 42 42 42 45 44 44 42 40 45 41 40 41 46 50 50 52 53 56 57 57 57 58 58 57 59 57 57 59 60 61
52 52 52 52 53 52 52 52 52 50 46 43 38 34 39 38 41 38 39 41 47 47 46 43 42 42 42 42 43 43 44 44 40 38 41 44 48 51 52 54 55 55 55 54 55 56 58 58 58 58 58 59 60 60
52 52 52 52 52 52 52 52 52 48 45 41 43 37 37 41 42 45 44 42 49 49 45 43 43 44 41 44 43 43 43 41 43 43 46 48 51 52 52 53 53 54 54 53 55 54 56 58 57 57 58 59 59 60
52 51 48 52 53 52 52 50 49 48 46 44 43 40 45 42 45 46 44 43 46 46 46 44 44 45 42 43 44 42 44 42 45 45 47 48 50 50 50 51 53 53 51 51 51 52 53 54 56 57 58 57 57 58
51 44 52 52 52 52 51 48 47 44 44 42 42 47 45 44 45 47 48 46 49 47 43 44 43 41 43 42 41 43 42 45 47 47 47 48 49 50 51 52 54 52 51 51 50 51 52 56 54 55 54 55 57 56
46 50 52 52 50 50 49 48 45 42 40 41 41 43 46 47 46 48 48 48 48 45 44 45 48 45 42 42 41 46 48 48 47 47 48 49 49 50 52 52 52 51 50 51 51 52 53 53 54 53 54 57 58 57
48 50 52 52 51 46 44 42 44 40 42 43 44 45 45 47 50 50 49 49 48 47 47 47 46 44 43 46 47 48 47 47 47 47 47 49 49 50 51 54 54 52 52 54 54 53 54 55 54 54 54 54 54 54
52 52 52 53 52 44 42 41 44 40 39 45 46 44 45 46 48 49 46 46 45 45 45 45 45 47 48 49 50 49 49 48 48 46 47 48 50 51 51 53 52 53 54 55 55 51 54 53 54 55 55 54 54 53
50 50 53 50 48 48 47 45 44 45 45 44 46 45 45 49 48 48 46 47 46 44 46 48 49 50 51 48 49 48 48 49 48 48 48 50 53 53 53 53 54 53 52 52 52 52 52 52 53 55 58 56 55 54
47 53 48 50 46 48 47 48 45 47 44 45 46 47 46 46 46 47 49 47 47 48 47 47 47 47 49 49 49 49 49 49 49 49 50 50 51 53 51 51 50 48 49 52 52 52 52 52 53 54 53 52 51 50
51 50 48 48 45 42 41 48 42 45 43 44 46 45 45 46 47 50 45 48 47 48 47 46 47 48 49 50 51 51 51 51 52 52 53 52 51 52 51 53 54 53 53 53 52 53 51 46 50 51 51 50 50 48
52 46 45 45 43 41 47 44 45 45 46 45 45 42 42 43 47 45 44 43 45 45 47 46 47 49 49 49 48 50 53 54 52 52 50 50 52 49 49 49 50 49 49 49 50 49 49 48 47 50 50 49 48 48
37 39 41 37 45 43 45 44 43 43 43 43 41 40 42 44 41 41 40 42 45 49 49 46 46 47 49 48 48 50 53 53 54 51 50 49 46 47 48 48 48 48 49 51 50 50 48 49 50 50 49 49 48 48
36 42 39 42 42 43 42 41 42 41 42 40 40 41 41 40 39 38 43 46 48 49 50 49 46 48 50 51 51 51 51 52 52 51 50 50 50 51 49 49 49 50 51 50 51 50 50 50 50 49 49 47 43 49
40 43 43 46 44 45 42 43 43 41 40 39 42 41 41 38 39 43 48 50 50 51 51 53 51 49 50 50 51 49 51 52 53 50 47 48 48 49 51 51 51 51 52 54 53 53 51 50 50 50 49 49 49 49
45 45 43 44 42 43 41 41 41 42 43 46 46 42 40 41 42 48 49 51 52 53 53 52 52 51 47 48 50 55 53 51 53 51 55 51 49 49 48 50 50 43 50 52 53 52 51 51 50 50 50 49 49 49
42 43 44 41 42 44 45 44 45 46 47 46 44 43 45 48 50 50 52 52 53 52 50 51 50 49 49 50 48 47 47 49 52 48 46 45 46 49 48 49 51 50 51 51 43 47 51 50 50 50 50 49 49 49
42 43 42 43 43 43 46 46 47 49 48 47 48 49 49 50 52 54 52 51 52 50 53 53 51 50 46 47 46 47 46 45 46 48 46 45 46 47 47 48 50 50 50 51 50 50 45 49 47 50 49 49 48 48
43 47 44 42 41 44 47 48 50 51 51 51 52 50 47 50 54 56 54 54 55 56 52 48 47 47 48 48 47 46 45 46 46 47 46 46 46 47 47 47 49 49 50 50 50 50 50 48 48 48 48 48 48 47
43 41 41 40 42 48 48 48 48 49 51 49 50 51 52 51 46 50 51 52 50 50 48 49 49 49 49 49 48 48 43 46 47 47 48 48 48 48 48 48 50 50 50 50 50 50 50 49 48 48 47 47 47 47
43 43 43 42 43 45 48 48 47 48 50 50 51 52 48 47 46 49 51 50 50 50 50 50 50 50 50 50 50 48 45 48 45 40 40 40 40 43 47 49 50 51 51 50 50 50 49 48 47 47 47 46 46 46

GFSWCAN_sfc_temp_111.txt.gz
Temp
54 54 54 55 55 55 55 55 55 55 56 56 57 57 57 56 56 53 55 58 52 48 53 57 60 57 59 59 55 59 60 58 60 56 57 58 56 58 56 57 56 55 52 51 50 49 48 65 64 58 63 66 65 66
54 54 54 54 54 54 54 54 55 55 55 56 56 57 57 56 55 55 49 60 57 48 52 58 61 62 62 63 59 59 57 56 62 59 57 58 55 55 52 50 56 51 57 56 55 59 62 66 65 69 67 65 66 65
54 54 54 54 54 54 54 54 54 55 55 55 56 56 57 56 56 54 49 53 52 48 53 55 56 66 66 65 70 57 60 62 60 62 62 60 54 58 51 53 55 57 57 56 56 62 63 66 68 68 68 67 69 68
54 54 53 53 53 54 54 54 54 54 55 55 56 56 56 56 55 55 49 55 51 48 43 53 64 59 66 67 65 66 65 61 62 62 60 59 56 60 58 58 57 62 57 58 57 61 66 68 67 69 68 68 68 68
53 53 53 53 53 54 54 54 54 54 54 55 55 56 56 55 54 53 52 54 55 47 43 48 58 63 67 65 63 64 62 60 60 58 57 56 62 58 60 58 57 62 59 57 57 65 63 64 69 70 67 68 68 67
52 53 53 53 53 53 53 54 54 54 54 54 55 55 55 55 54 50 46 57 57 53 47 43 60 57 63 62 61 60 61 59 60 58 58 62 61 61 55 52 60 66 67 67 63 69 67 67 67 69 66 68 69 69
52 52 53 53 53 53 53 53 53 53 53 53 54 54 54 54 51 44 50 51 53 55 44 44 49 60 59 60 59 58 61 60 60 59 56 61 61 59 58 52 62 66 68 67 67 65 62 67 66 69 67 68 66 70
52 52 52 53 53 53 53 53 53 53 53 53 53 53 53 53 51 47 58 53 52 51 48 42 47 53 60 57 55 60 56 58 56 60 58 59 57 59 53 61 64 65 64 64 65 66 65 67 66 66 68 67 66 67
52 52 52 52 53 53 53 53 53 53 53 53 53 53 52 49 46 54 56 55 52 48 43 46 44 43 60 59 59 56 60 52 57 58 58 59 57 52 59 60 61 63 61 60 63 65 65 63 64 64 65 65 66 67
52 52 52 52 52 53 53 53 53 53 53 53 51 45 43 51 56 56 51 46 45 46 46 43 53 44 54 55 56 57 58 57 53 58 58 56 57 63 61 60 60 60 60 61 60 61 61 62 63 63 63 65 66 67
52 52 52 53 52 53 53 53 53 52 52 49 45 45 51 54 52 48 44 40 40 40 47 50 52 46 58 49 51 54 55 56 51 54 55 53 53 57 59 58 61 60 62 62 62 62 62 62 62 64 63 64 66 67
51 52 52 52 53 53 53 53 52 51 50 48 47 50 51 48 47 43 43 45 44 42 50 49 52 51 53 53 51 53 52 51 48 54 52 49 54 56 58 59 61 62 62 62 63 63 64 64 64 64 65 66 66 67
51 51 52 52 53 53 53 52 52 52 51 48 46 42 45 45 35 37 37 42 42 51 51 48 51 54 52 51 50 49 48 50 55 49 50 53 55 58 58 60 60 61 62 61 61 62 64 63 64 64 65 67 66 66
52 52 52 53 53 53 52 52 52 52 48 42 39 33 39 38 37 44 47 50 55 49 47 49 54 53 55 50 51 46 53 54 48 47 48 53 56 57 57 56 56 56 59 59 59 60 60 61 63 64 64 66 66 64
52 52 52 52 53 53 52 52 52 51 46 41 38 35 42 49 50 50 53 51 54 51 50 51 54 54 52 50 51 52 48 47 50 49 52 54 55 56 55 55 57 57 59 59 58 60 60 61 62 60 61 62 66 61
52 52 51 52 53 52 51 51 51 49 46 43 43 42 47 46 46 47 48 48 51 51 52 52 51 49 50 52 51 50 50 47 48 52 52 53 55 54 54 55 58 59 60 60 61 60 59 59 61 60 61 60 60 60
51 48 52 52 52 51 51 51 47 44 43 44 44 47 45 45 44 46 48 49 51 50 48 49 49 49 53 50 49 50 49 50 53 53 55 55 55 56 57 59 56 59 60 60 61 61 61 62 61 57 53 59 57 57
49 52 52 52 52 51 51 48 45 45 42 47 43 45 47 48 46 46 50 51 50 50 50 51 55 51 48 47 48 51 52 52 55 54 54 54 56 57 57 57 59 60 61 61 60 60 62 61 57 55 57 62 60 58
51 53 52 52 52 48 46 46 48 42 45 45 46 45 46 47 50 52 52 52 52 53 53 53 50 48 47 51 52 53 54 54 53 55 55 56 57 56 56 57 60 58 58 59 58 58 57 58 56 56 57 57 54 54
52 52 52 53 52 48 45 46 49 44 43 46 47 46 46 47 50 50 50 51 53 53 50 48 47 49 51 52 53 55 55 56 58 56 56 56 58 58 57 55 54 57 60 63 62 56 63 62 65 61 58 56 54 55
52 51 52 52 49 48 46 47 46 47 47 45 48 48 48 52 51 52 52 54 53 50 46 48 49 51 55 55 56 58 57 60 59 59 54 58 55 56 56 55 60 58 59 59 63 62 61 64 65 66 64 62 62 59
52 53 50 51 46 48 47 49 47 48 46 46 46 48 47 47 49 49 53 51 48 48 50 50 52 53 56 57 57 58 58 59 58 55 50 54 54 51 50 52 56 55 53 60 64 64 63 65 65 63 61 59 59 60
52 51 48 49 45 42 41 49 45 46 43 44 46 46 45 45 47 52 47 48 49 51 51 51 53 56 55 57 57 58 60 58 56 56 58 55 52 54 52 55 64 63 62 61 63 63 62 51 57 61 60 60 60 59
51 47 44 43 42 39 46 44 44 45 46 45 45 43 43 44 50 49 45 46 50 53 51 54 57 56 57 57 54 54 55 58 58 60 61 63 62 59 62 62 63 63 62 64 63 62 61 59 53 61 60 59 58 58
41 41 42 38 45 44 43 46 46 47 46 47 46 47 47 51 48 46 43 46 51 50 52 56 56 55 54 54 54 55 55 56 62 60 61 63 59 62 62 63 62 62 64 64 61 61 60 60 60 60 60 59 58 57
36 46 42 47 48 48 49 46 46 46 48 46 46 50 51 49 45 40 43 48 50 51 52 56 55 54 54 54 57 58 59 61 63 64 62 65 66 66 63 62 62 62 64 64 63 61 60 60 59 58 58 55 46 56
41 46 51 55 52 53 50 51 52 50 46 45 48 48 48 43 41 44 49 53 52 53 54 54 55 53 54 56 55 57 59 56 60 61 61 62 62 63 64 63 61 62 65 65 64 63 60 60 59 59 58 58 58 58
49 49 46 49 51 52 48 48 46 44 47 51 52 45 43 43 42 48 53 56 56 57 55 55 56 56 51 49 58 61 62 61 60 62 64 63 62 61 61 63 61 43 61 64 63 63 62 61 61 60 58 58 59 60
49 50 52 49 49 47 46 45 45 47 50 51 46 44 46 49 52 51 54 58 59 56 56 60 58 61 60 60 59 60 61 63 62 58 57 58 61 60 61 62 63 64 64 62 41 52 58 60 59 59 58 59 59 59
48 49 47 48 44 43 48 48 48 52 53 55 57 56 57 57 57 61 59 59 58 61 62 62 61 62 60 61 59 58 58 59 60 60 58 56 56 59 60 60 62 63 63 63 62 59 44 56 53 60 58 59 58 58
50 54 51 50 49 50 53 56 59 60 60 59 59 57 53 56 62 62 61 62 63 63 63 61 61 62 62 61 59 59 56 58 58 58 59 60 60 59 58 59 61 62 62 62 62 62 61 59 58 57 56 55 55 54
53 49 50 50 51 54 54 53 54 54 56 56 56 58 59 58 56 61 62 64 64 64 54 60 63 61 61 61 60 59 48 59 59 59 59 60 60 59 61 62 62 62 62 61 61 61 58 57 57 56 55 54 54 54
53 54 53 53 52 53 56 54 52 53 54 53 55 58 59 58 54 61 63 62 61 63 64 64 63 62 60 61 60 59 51 60 50 40 41 40 40 47 60 63 62 61 60 59 59 58 56 55 55 54 53 53 53 53

GFSWCAN_sfc_temp_114.txt.gz
Temp
54 54 54 55 55 55 55 55 55 55 56 56 57 57 58 57 56 57 60 64 54 53 62 64 66 63 66 67 63 68 67 68 69 62 64 66 65 68 64 67 65 62 60 61 62 57 54 73 71 63 69 73 75 73
54 54 54 54 55 55 55 55 55 55 55 55 56 57 57 57 56 56 57 68 62 51 60 66 67 69 69 68 64 68 66 64 70 66 68 69 66 67 63 59 70 59 66 63 64 65 70 74 71 75 75 72 73 74
54 54 54 54 54 54 54 54 55 55 55 55 56 57 57 57 56 56 57 60 54 50 58 62 62 70 75 73 75 57 67 70 67 70 67 69 60 70 61 62 65 67 70 64 65 69 71 72 76 76 76 75 77 78
54 54 54 54 54 54 54 54 55 55 55 55 55 56 56 56 55 55 56 62 57 57 52 62 74 68 74 75 73 72 68 72 70 70 66 65 64 71 66 68 66 72 68 65 65 69 72 74 76 75 75 77 77 78
53 53 53 53 54 54 54 54 54 54 55 55 55 55 56 55 55 57 55 60 61 52 47 54 65 70 73 71 69 68 66 66 67 64 63 62 70 69 69 68 66 73 67 64 63 72 70 70 74 77 73 74 76 76
53 53 53 53 53 53 54 54 54 54 54 55 55 55 55 55 54 56 53 64 65 64 52 50 69 66 71 71 69 67 69 67 65 61 64 69 73 67 62 61 70 74 75 76 71 75 73 72 74 75 74 75 77 76
52 53 53 53 53 53 53 53 54 54 54 54 54 54 54 54 56 51 55 50 54 54 51 50 58 69 68 69 69 68 69 67 65 64 61 66 69 65 64 59 70 73 74 74 75 73 69 72 71 77 76 75 72 77
52 52 52 53 53 53 53 53 53 53 53 53 53 53 53 53 54 53 62 57 52 48 50 44 55 62 68 63 61 69 64 66 65 63 68 66 69 66 59 67 71 73 72 72 73 73 73 75 74 74 76 76 74 74
52 52 52 52 53 53 53 53 53 53 53 53 53 54 53 52 51 61 59 56 56 48 44 51 51 53 63 62 68 65 67 55 66 60 64 68 65 59 65 67 69 70 69 68 71 74 74 71 71 72 73 73 73 75
52 52 52 52 52 53 53 53 53 53 53 53 56 50 45 55 57 58 55 49 46 46 46 43 58 53 55 53 60 61 60 53 53 62 68 63 63 71 73 73 69 70 70 71 68 68 70 69 69 71 71 75 75 75
52 52 52 52 52 53 53 53 53 52 52 54 50 46 54 56 57 49 46 45 45 41 46 55 59 52 57 49 52 60 55 53 53 58 61 61 61 67 66 67 69 68 69 70 70 70 71 71 70 71 71 72 73 74
52 52 52 52 53 53 53 53 52 54 55 52 48 55 52 49 50 46 46 43 40 45 55 54 54 56 53 60 49 57 53 62 51 65 60 55 57 64 66 67 68 68 70 69 70 69 70 71 71 71 72 73 73 74
52 52 52 53 53 53 53 52 52 53 54 55 48 45 46 49 38 41 41 46 47 53 57 53 50 56 59 58 52 55 52 53 65 54 53 56 60 64 65 66 67 69 68 68 68 69 70 70 71 71 71 73 73 73
51 51 52 53 53 53 53 52 52 54 55 42 39 33 40 43 48 51 53 52 56 57 53 52 51 54 62 56 54 51 56 57 51 50 51 55 60 63 64 66 65 64 64 65 66 66 64 63 64 69 71 72 72 69
52 52 52 53 53 53 52 52 53 56 49 42 41 35 46 54 54 55 58 57 59 58 53 53 55 58 55 49 53 49 50 51 54 52 55 58 61 61 60 61 58 59 64 67 66 67 61 61 60 60 62 69 70 68
52 52 55 53 53 52 52 53 54 55 49 46 40 39 49 49 48 46 50 52 55 56 57 58 54 53 54 59 53 52 52 50 52 58 58 59 58 59 62 62 64 65 66 68 68 67 66 60 57 58 59 66 66 61
52 56 53 52 52 52 52 53 53 48 45 43 42 50 45 46 46 48 49 49 55 51 52 55 52 53 62 55 53 58 52 53 59 57 60 59 59 59 60 63 64 65 65 64 65 65 64 65 65 64 57 57 57 57
57 56 52 52 53 52 52 48 46 46 42 47 45 45 48 50 46 47 49 53 53 55 57 55 60 55 54 51 51 55 57 57 60 60 60 59 60 61 64 63 65 65 64 64 65 65 66 65 62 54 59 60 62 59
57 57 52 52 55 50 47 49 50 46 47 46 46 47 48 48 50 49 51 54 55 55 56 58 56 53 51 53 54 57 57 58 62 60 59 61 58 61 64 64 64 64 65 64 65 66 66 66 66 65 62 59 54 54
52 52 52 53 52 50 48 50 53 46 45 47 47 47 48 48 50 53 58 61 53 57 55 53 52 51 53 55 58 61 62 63 61 59 58 59 61 59 57 61 62 65 66 66 66 57 65 63 68 68 64 58 53 53
54 54 53 52 51 50 47 50 51 52 50 46 48 47 48 50 50 52 54 60 58 50 47 50 51 57 62 61 65 64 62 63 60 61 61 59 61 56 65 66 68 71 71 71 69 67 66 69 65 69 71 69 69 68
56 54 52 54 47 50 48 51 49 52 46 47 47 47 49 48 52 53 55 53 49 49 51 51 55 59 60 61 64 63 63 64 64 62 56 53 53 52 58 62 65 68 69 69 70 71 71 71 69 71 69 68 66 67
53 53 50 50 45 43 43 52 47 48 44 44 47 45 46 47 51 59 52 50 50 53 53 54 57 61 62 63 64 64 65 67 67 64 56 57 63 63 66 69 70 69 68 68 71 70 69 54 63 68 68 68 66 61
52 48 44 43 43 40 46 43 45 44 45 44 45 43 45 46 53 54 47 48 52 57 58 60 61 60 59 61 59 65 65 64 63 68 69 69 68 67 70 70 71 70 70 71 70 69 68 67 59 68 64 60 64 67
41 40 42 37 45 44 46 50 51 51 49 51 51 51 53 60 52 48 46 50 53 53 61 63 63 60 56 57 56 61 66 72 70 68 70 71 70 70 69 70 69 70 72 70 67 67 67 68 68 67 66 66 64 63
35 46 41 52 55 53 55 50 52 53 55 52 52 57 59 49 43 42 45 49 52 55 57 60 59 59 64 64 63 64 65 70 71 70 71 74 73 71 69 67 68 67 72 71 69 67 66 67 66 64 64 60 49 62
44 51 59 65 62 61 59 60 61 58 52 50 56 55 55 45 41 46 52 53 53 55 59 61 59 64 66 66 68 70 71 71 68 69 71 72 73 72 71 68 65 68 72 71 70 68 66 66 65 65 65 67 65 64
56 56 51 57 58 61 54 54 52 50 53 58 58 50 46 43 44 52 56 60 64 63 64 67 64 60 62 56 66 72 71 71 70 72 72 72 72 71 70 71 69 45 68 68 69 69 68 66 65 64 64 64 66 67
49 49 51 49 52 48 47 47 51 54 58 60 50 47 47 55 60 61 63 67 70 70 66 68 69 72 71 71 70 71 71 71 68 63 62 66 69 67 71 72 74 73 71 68 41 53 61 63 63 64 63 64 65 66
51 59 52 50 48 48 51 55 55 60 61 63 63 62 63 63 67 70 63 65 69 69 70 70 71 71 69 69 67 66 68 69 68 67 64 62 64 68 69 69 72 73 72 71 70 65 45 58 57 65 64 65 65 62
60 60 58 58 56 58 63 67 68 68 68 67 68 65 63 65 68 71 71 71 73 73 72 70 69 70 68 67 66 66 63 66 65 65 67 68 68 66 67 68 70 70 70 69 69 67 65 64 65 63 62 60 59 58
60 57 57 54 57 63 67 64 63 62 63 64 64 67 67 67 61 68 71 72 73 72 54 67 69 66 69 69 68 66 53 67 66 66 65 66 66 66 69 69 69 68 68 68 67 66 64 62 62 61 60 59 59 59
62 63 62 60 58 59 64 64 61 60 64 63 65 67 66 65 59 67 72 73 71 72 71 70 71 70 67 68 67 65 59 67 54 41 43 40 39 48 62 69 68 67 65 65 65 64 62 60 61 59 59 58 58 59

GFSWCAN_sfc_temp_117.txt.gz
Temp
55 55 55 55 55 55 55 55 55 56 56 56 57 57 58 58 56 59 68 71 66 64 69 71 72 68 71 71 67 72 73 73 72 66 67 68 69 72 71 72 70 67 64 64 65 61 57 79 76 67 70 76 78 78
55 55 55 55 55 55 55 55 55 55 56 56 56 57 57 58 57 56 63 71 68 59 65 72 72 74 73 73 70 71 70 70 75 71 72 72 69 72 69 64 76 64 71 67 69 63 73 78 75 78 79 76 77 77
54 54 54 55 55 55 55 55 55 55 55 56 56 57 57 57 56 56 64 65 62 61 65 68 68 76 80 78 80 65 72 74 73 77 70 70 65 74 66 69 70 74 77 69 68 73 75 78 79 81 81 78 80 81
54 54 54 54 54 54 55 55 55 55 55 56 56 56 57 56 56 55 62 67 65 63 58 68 80 74 81 81 78 77 74 76 74 72 68 68 67 76 70 73 72 75 75 69 69 73 76 78 80 81 79 79 80 82
54 54 54 54 54 54 55 55 55 55 55 55 56 56 56 56 55 58 65 66 68 58 54 61 71 75 79 77 75 76 74 70 68 65 61 62 71 72 72 74 72 79 73 69 67 76 74 75 79 81 78 78 79 80
53 53 53 53 53 54 54 54 55 55 55 55 55 55 55 56 54 60 58 68 69 68 57 56 74 71 75 76 73 70 72 71 70 67 65 66 73 70 62 62 74 80 80 81 75 80 79 79 78 78 77 78 80 80
53 53 53 53 53 54 54 54 54 54 55 54 55 55 55 55 60 56 50 50 58 66 54 56 63 75 74 74 74 72 73 70 65 64 63 65 67 69 65 61 73 79 80 78 79 78 73 76 75 79 79 79 77 80
52 52 53 53 53 54 54 53 54 54 54 54 54 54 54 54 54 56 65 56 60 59 56 53 59 66 76 69 66 74 69 69 65 59 64 62 67 66 53 68 75 78 78 77 77 79 78 79 78 78 80 80 78 78
52 52 53 53 53 53 53 54 54 54 54 54 54 54 58 55 53 59 61 57 63 53 43 55 56 55 75 68 70 69 71 56 66 63 62 59 57 53 64 69 73 75 74 74 78 78 78 77 77 77 78 78 78 79
52 52 52 53 53 53 53 53 53 53 53 54 57 52 47 58 58 59 61 53 50 52 48 43 62 55 66 62 56 59 66 51 51 62 67 64 60 68 72 78 76 76 76 77 72 71 74 74 75 75 77 80 80 80
52 52 52 53 53 53 53 53 53 53 52 56 50 53 56 57 60 54 47 47 53 44 49 56 60 59 67 57 54 58 55 61 50 61 60 54 53 67 72 72 76 76 76 76 76 76 77 76 75 76 76 78 78 80
52 52 52 53 53 53 53 53 53 56 58 54 55 54 53 53 50 46 46 51 50 52 61 58 59 61 65 66 53 54 40 47 45 54 56 57 54 70 73 74 74 74 75 76 76 75 76 76 77 77 77 78 78 79
52 52 52 52 53 53 53 53 52 55 54 59 55 50 49 49 39 44 46 49 49 56 60 57 54 59 63 61 55 53 50 49 60 59 59 64 61 65 68 69 68 72 73 73 74 74 76 75 76 77 77 79 78 78
52 52 52 52 53 53 53 53 53 55 55 51 42 35 43 44 52 57 58 55 60 60 58 57 49 55 61 54 48 43 56 58 50 48 50 55 61 64 64 67 67 67 70 69 68 70 70 69 68 68 69 75 74 72
52 52 53 53 53 53 53 53 53 59 52 42 42 37 48 59 64 60 62 61 65 64 60 56 56 59 55 51 53 54 48 45 48 46 52 56 61 65 65 66 65 67 69 71 72 69 67 62 60 61 63 68 70 70
52 53 53 53 53 53 52 53 56 55 50 45 46 44 52 51 51 54 56 52 59 58 58 59 52 52 47 48 48 51 50 41 51 56 60 62 62 61 60 62 59 63 68 70 71 69 65 63 65 62 61 62 64 63
52 55 53 53 52 52 52 55 54 50 51 49 47 55 50 46 47 49 52 56 60 55 52 55 51 52 55 52 53 54 53 56 61 63 64 61 62 61 63 63 64 65 63 64 64 66 66 66 65 64 56 58 61 60
53 58 53 52 55 54 54 49 51 49 45 52 49 48 49 49 49 55 52 55 53 55 56 55 60 56 55 52 54 56 60 66 68 63 59 60 63 63 63 62 64 63 64 64 64 63 63 63 64 59 62 62 61 58
58 59 52 53 57 52 46 47 49 43 46 47 47 46 48 49 52 52 51 55 56 59 59 59 55 53 53 55 54 57 62 62 59 57 61 61 62 63 64 66 67 67 65 66 66 63 62 66 64 63 61 56 52 52
53 52 53 53 52 48 49 50 57 51 44 47 47 47 48 49 54 55 56 57 58 54 52 51 52 54 54 59 63 64 64 62 59 57 58 60 59 61 65 67 66 67 68 69 69 62 67 64 66 68 65 59 57 58
55 55 53 54 51 49 49 47 47 47 48 46 48 47 47 50 51 51 53 55 55 59 53 55 55 58 63 64 67 66 63 62 60 60 59 54 64 66 70 71 70 62 63 65 67 64 61 70 65 65 64 63 70 72
58 55 56 55 49 51 50 52 50 51 46 46 47 47 47 49 51 55 60 58 51 50 52 55 57 60 61 62 64 66 65 65 66 64 59 59 62 70 71 73 73 72 72 71 68 65 64 69 71 74 73 72 70 72
54 55 53 51 46 44 44 53 47 50 44 44 50 48 50 52 55 58 49 51 51 55 56 55 60 64 63 66 68 68 65 66 67 63 64 64 69 73 73 73 74 72 72 72 75 74 72 58 68 73 72 72 69 69
53 48 45 44 43 40 45 44 46 45 46 47 46 45 53 57 61 57 49 51 55 59 60 62 62 62 63 64 64 68 71 71 66 65 67 73 72 71 73 74 74 75 74 74 74 73 72 71 62 72 70 70 71 71
41 41 41 36 47 42 43 46 46 46 46 54 54 54 54 60 55 49 47 50 56 57 60 61 63 64 62 62 65 64 60 65 71 71 74 76 76 75 74 74 73 74 77 73 71 71 71 72 71 71 70 69 67 67
36 49 41 53 55 51 54 51 53 54 57 56 56 59 64 57 47 46 53 54 57 59 60 61 61 58 57 68 69 69 70 72 64 66 74 77 76 75 73 71 71 71 76 75 73 71 70 70 69 68 68 62 50 65
43 52 58 70 66 67 62 64 65 61 57 54 57 58 57 48 45 48 58 61 60 66 68 65 69 66 67 69 72 74 76 76 73 72 76 77 77 76 74 71 68 71 76 74 73 72 70 70 69 69 69 71 69 68
56 56 51 56 58 62 56 59 57 53 58 61 60 51 46 45 46 58 60 64 64 72 74 72 72 74 72 71 76 77 77 77 76 78 78 77 76 75 74 74 73 49 69 68 70 72 71 69 69 68 68 68 69 71
51 58 59 55 56 57 57 55 56 62 66 62 55 54 54 57 63 64 67 70 75 75 72 71 75 79 77 76 76 76 76 75 71 67 66 69 71 71 75 76 76 76 74 70 43 56 63 65 66 67 67 68 70 70
56 65 59 58 56 51 56 63 62 65 69 68 68 66 66 67 72 76 76 71 74 73 75 76 76 76 74 74 72 71 74 73 73 71 68 67 68 72 74 74 76 77 75 74 74 69 47 60 59 65 66 68 69 65
61 61 60 60 56 62 64 66 64 66 68 66 69 64 63 68 73 76 76 76 79 80 78 75 74 73 72 71 70 71 68 71 70 69 71 73 73 71 72 73 76 74 73 72 71 71 69 67 69 67 67 64 63 61
63 59 59 55 56 64 67 62 62 62 63 64 64 70 70 68 66 71 75 76 76 76 62 68 73 71 73 73 72 71 53 71 70 70 68 70 70 71 74 74 74 72 71 71 71 71 69 66 66 65 65 63 63 63
60 61 61 60 58 59 64 64 64 63 67 67 68 71 70 68 63 71 78 78 75 75 75 74 76 74 71 72 71 70 61 69 58 46 47 44 41 49 63 72 71 71 69 69 69 69 67 64 65 63 63 63 62 62

GFSWCAN_sfc_temp_120.txt.gz
Temp
55 55 55 55 56 56 56 56 56 56 56 56 57 57 58 58 58 58 65 73 66 63 68 73 74 68 71 72 67 72 73 76 73 66 66 66 66 70 69 72 70 67 63 62 64 59 56 77 78 68 71 76 77 78
55 55 55 55 55 55 55 55 55 55 56 56 56 57 57 58 58 57 62 73 73 63 65 71 72 74 73 74 70 71 69 69 74 68 70 70 66 70 67 62 76 66 72 67 68 62 73 77 74 75 77 76 78 78
54 54 54 55 55 55 55 55 55 55 56 56 56 57 57 57 57 56 60 66 68 62 65 69 70 78 82 79 81 65 71 74 72 76 68 67 61 70 64 67 70 74 79 70 70 74 75 76 78 81 82 80 80 81
54 54 54 55 55 55 55 55 55 55 55 56 56 57 57 57 56 56 60 67 67 63 57 67 83 77 83 83 80 78 74 75 74 73 67 65 63 73 67 70 69 75 70 67 70 74 77 78 80 81 81 81 80 81
53 54 54 54 54 54 55 55 55 55 55 56 56 56 56 56 56 58 63 67 69 61 54 60 69 75 80 78 77 77 75 71 69 66 64 62 69 68 71 72 69 76 71 65 65 69 68 74 80 82 79 78 80 79
53 53 53 54 54 54 54 55 55 55 55 55 55 56 56 56 55 60 56 69 71 69 58 55 74 72 76 78 75 72 73 71 70 66 65 69 74 68 61 61 71 78 79 80 75 80 79 80 80 81 78 77 79 79
53 53 53 53 54 54 54 54 54 55 55 55 55 55 55 55 59 54 51 53 59 63 55 55 62 75 74 75 74 73 74 70 69 67 65 66 68 68 62 58 68 73 78 75 81 79 74 78 76 80 80 80 76 79
53 53 53 53 53 54 54 54 54 54 55 55 55 55 55 54 54 56 65 58 61 58 57 53 58 66 77 69 68 75 69 70 68 66 67 64 64 65 58 65 69 73 75 75 77 79 79 80 79 79 80 79 77 78
53 53 53 53 53 53 54 54 54 54 54 55 55 55 58 55 55 60 61 58 64 58 50 56 55 55 75 70 71 71 72 62 71 64 65 64 59 51 62 65 69 71 72 75 79 79 79 77 76 77 79 79 77 77
53 53 53 53 53 53 53 54 54 54 54 54 56 51 48 56 58 61 59 53 50 53 56 50 61 56 67 67 63 59 60 57 56 63 68 62 59 66 68 70 65 62 68 71 72 65 66 74 74 76 77 78 78 79
52 53 53 53 53 53 53 54 54 53 52 56 50 50 53 59 60 52 50 51 54 50 56 58 60 57 70 59 57 56 50 49 47 56 55 57 56 64 71 70 60 60 59 76 78 78 78 77 71 74 76 78 76 61
53 53 53 53 53 53 53 53 53 55 56 54 53 59 54 53 51 46 47 52 51 51 61 59 63 64 65 69 56 53 48 49 45 57 49 49 60 60 61 62 67 61 61 67 78 76 74 74 74 75 77 77 69 62
52 52 52 52 53 53 53 53 52 55 55 59 54 49 46 50 39 44 44 50 53 61 62 57 54 60 64 61 56 54 44 40 48 48 49 47 55 54 51 51 63 67 73 74 71 71 72 70 71 72 71 75 71 64
52 52 52 52 53 53 53 53 53 54 53 47 45 37 42 42 51 55 55 45 53 56 55 57 54 55 61 54 55 47 55 52 42 43 46 52 57 58 56 65 69 69 70 69 70 71 71 70 69 70 69 68 68 61
52 52 52 52 53 53 53 53 53 58 51 44 43 38 50 58 53 59 60 54 61 60 59 53 54 55 51 51 53 51 45 47 48 43 51 54 57 62 63 65 66 67 69 68 69 69 68 67 65 63 62 59 58 64
52 53 54 53 53 53 52 53 56 55 49 47 45 47 56 55 53 55 58 57 62 59 58 57 52 52 51 53 51 48 45 40 46 55 56 57 62 63 63 63 64 64 65 62 62 67 64 64 61 58 59 59 62 63
51 55 53 53 53 52 53 55 53 47 48 50 52 57 55 54 54 56 57 55 58 54 49 53 49 47 50 48 45 44 46 53 56 59 60 61 59 60 58 57 57 63 62 66 67 63 65 63 64 60 59 61 61 61
49 57 53 52 55 54 55 49 50 51 48 56 53 54 56 52 52 56 58 59 54 53 54 51 55 46 46 49 47 54 61 62 60 58 58 59 59 59 59 60 60 62 62 64 65 64 64 61 62 59 62 62 63 60
56 58 53 53 57 54 49 49 52 42 49 52 54 51 48 51 56 59 54 59 59 57 53 54 53 52 51 53 54 58 59 60 57 57 60 60 62 62 62 63 65 64 62 62 63 62 63 64 63 62 60 56 53 54
53 53 53 54 53 47 44 45 49 47 43 46 47 45 47 49 53 55 56 57 55 56 52 51 50 54 55 58 61 60 61 61 60 58 57 58 63 64 60 59 62 64 62 65 65 60 65 66 67 66 65 63 63 61
55 55 54 56 51 48 46 46 46 46 46 45 48 47 48 54 53 52 52 55 53 49 48 53 54 56 61 63 64 60 60 59 58 63 59 55 63 64 59 62 61 70 66 68 69 62 57 60 67 68 66 67 70 71
57 54 57 54 47 49 48 50 47 50 46 47 47 49 49 47 49 49 56 57 55 56 55 54 54 58 60 62 62 66 65 66 65 64 59 64 64 68 70 71 72 70 69 70 70 68 68 65 71 71 72 71 70 71
55 58 52 50 45 43 43 51 46 47 43 45 48 46 47 50 54 58 51 51 52 59 62 61 63 62 62 65 67 66 67 67 67 68 64 67 73 73 73 73 74 73 71 72 74 73 71 57 69 72 72 71 71 69
54 48 44 43 43 39 45 44 47 46 50 51 52 47 50 53 59 55 51 51 54 60 61 62 61 61 61 65 63 67 69 69 68 69 73 74 72 71 73 74 75 74 74 74 74 73 72 72 63 72 70 70 71 70
41 41 41 39 43 41 42 47 50 48 48 53 55 54 51 60 56 53 51 52 53 54 58 61 62 62 61 59 54 60 68 73 71 72 75 75 74 74 73 74 73 75 77 73 71 71 71 72 71 70 69 68 67 67
36 46 42 44 46 45 51 49 53 55 57 57 58 61 62 59 53 51 53 54 56 59 58 61 65 65 56 55 54 56 57 67 71 72 74 77 76 74 72 71 70 71 76 75 73 71 70 71 69 69 67 63 51 65
40 54 56 58 54 56 57 62 64 60 57 54 58 60 58 49 46 54 58 62 62 66 67 61 65 62 61 64 71 75 75 74 71 69 77 77 77 76 74 70 68 69 76 75 74 72 70 70 69 69 69 70 69 68
56 60 55 62 61 65 59 59 59 56 58 62 62 53 50 50 49 58 63 69 73 72 74 75 74 75 75 74 77 78 78 78 76 77 78 76 76 76 75 74 72 53 69 69 70 71 70 69 69 69 68 68 68 70
59 65 64 59 60 60 58 57 56 60 65 64 59 57 56 61 66 67 69 74 76 75 75 74 76 78 78 77 76 77 77 76 73 68 68 66 67 71 76 76 74 73 74 70 46 59 65 66 66 67 68 68 69 70
54 66 59 60 57 53 58 62 60 64 67 66 66 65 66 67 68 66 74 76 74 75 76 77 77 76 74 75 73 72 74 74 73 71 68 67 69 73 74 74 74 76 74 74 72 68 48 59 61 64 64 68 68 66
61 65 60 60 56 61 68 70 68 70 70 69 70 66 66 69 74 78 77 77 79 79 75 75 75 75 73 72 71 71 69 72 71 71 71 74 74 72 72 73 75 74 73 72 71 71 70 68 69 68 67 65 65 62
63 60 62 59 59 68 71 69 69 69 70 69 69 72 71 71 66 71 76 77 76 73 64 70 73 72 74 75 73 72 55 71 70 69 68 69 70 70 72 74 74 73 72 71 71 71 70 67 67 66 66 65 65 64
62 64 66 64 64 63 68 68 67 65 70 69 69 71 70 68 63 72 79 79 76 76 76 75 76 75 72 73 73 71 61 70 60 47 46 46 44 51 64 71 71 71 70 69 70 70 68 66 66 65 65 65 64 64

GFSWCAN_sfc_temp_123.txt.gz
Temp
55 55 55 55 55 56 56 56 56 56 56 56 56 57 57 57 57 55 55 60 59 55 58 64 64 59 61 61 55 59 61 63 61 55 55 56 54 58 56 57 55 55 52 51 52 49 47 69 69 58 60 64 68 68
55 55 55 55 55 55 55 56 56 55 56 56 56 57 57 57 57 57 52 63 66 57 57 65 66 68 66 66 60 60 57 58 62 57 56 56 54 56 53 51 61 52 58 57 58 56 62 69 66 67 65 65 66 66
54 54 54 54 55 55 55 55 56 56 56 56 56 57 57 57 57 56 54 57 59 57 59 61 62 70 74 72 74 55 59 64 61 61 57 56 52 58 50 54 57 60 63 56 58 63 63 66 69 69 70 70 72 72
54 54 54 54 54 54 55 55 55 56 56 56 56 57 57 56 56 56 53 58 58 57 50 59 74 66 72 76 73 72 65 64 62 60 56 54 52 60 55 57 57 61 62 58 57 61 65 69 68 70 71 73 73 73
54 53 54 54 54 54 54 55 55 55 56 56 56 56 56 56 55 55 57 59 61 54 48 52 61 68 72 70 70 70 66 60 58 54 54 53 57 57 61 60 57 62 58 58 53 57 58 60 64 69 70 70 70 69
53 54 53 54 54 54 54 54 55 55 56 56 56 56 56 55 55 55 52 60 62 58 52 47 62 63 68 70 67 64 63 61 60 56 56 59 63 58 52 52 61 66 67 68 62 71 67 69 67 69 69 70 71 70
54 54 54 53 54 54 54 54 54 54 55 55 55 55 55 54 55 51 47 54 57 56 52 49 54 66 67 68 67 64 66 63 62 59 57 59 60 60 55 50 59 65 67 67 69 68 66 66 65 71 71 72 71 71
53 53 53 53 53 54 54 54 54 54 55 55 55 55 54 54 53 51 59 57 57 54 54 45 52 59 69 61 59 67 63 63 61 59 58 57 60 59 51 58 61 64 66 66 67 66 68 70 69 69 70 71 68 68
53 53 53 53 53 53 54 54 54 54 55 55 55 55 55 51 51 55 59 58 59 54 45 50 48 49 68 63 63 62 62 56 63 57 57 58 54 48 56 57 59 62 62 64 64 64 67 65 62 67 68 69 68 67
53 53 53 53 53 53 53 54 54 54 54 54 53 51 46 55 59 59 55 51 50 52 52 46 55 49 58 56 57 56 57 52 48 56 62 57 54 61 64 64 63 63 60 59 56 56 59 56 58 59 67 71 62 61
53 53 53 53 53 53 53 53 53 53 52 52 48 48 52 59 56 49 46 46 48 46 51 53 53 50 61 52 52 54 49 50 43 50 51 50 51 58 65 65 65 63 61 61 59 58 58 60 61 62 64 68 65 61
52 53 53 53 53 53 53 53 53 53 54 51 50 54 53 50 47 44 44 49 48 46 56 54 56 57 58 59 54 50 47 48 41 52 48 46 51 54 54 56 58 59 58 58 59 59 59 59 67 66 66 65 63 61
52 52 52 52 53 53 53 53 52 55 54 55 51 48 45 45 36 40 41 46 47 55 55 56 51 56 59 59 52 49 45 43 49 44 44 45 49 52 51 54 57 59 59 58 57 57 59 65 66 65 63 65 64 60
52 52 52 52 52 53 53 53 53 53 50 43 43 33 39 40 46 49 48 48 54 53 52 53 51 50 54 50 50 46 51 48 41 38 40 47 51 53 53 55 54 54 55 59 59 58 64 63 61 62 59 61 60 58
52 52 52 52 52 52 52 53 53 55 48 41 44 36 45 53 56 52 48 48 52 49 47 50 51 51 49 48 49 49 45 42 43 44 48 50 54 54 57 58 58 59 58 59 63 62 61 60 58 58 58 58 58 59
52 52 51 53 53 53 52 53 53 53 48 46 46 43 51 51 50 51 52 50 53 52 53 52 50 47 47 48 47 47 45 41 46 50 53 53 54 56 56 58 58 59 60 59 59 60 59 57 57 57 58 58 57 57
52 49 53 53 53 52 53 54 52 47 45 47 48 54 52 53 52 52 54 52 54 51 48 49 46 47 50 47 47 48 44 46 50 54 55 56 56 54 56 57 60 59 59 57 58 59 58 58 59 58 55 55 56 56
50 54 53 52 54 53 53 51 49 49 44 50 49 52 52 53 53 54 55 55 53 51 50 48 50 45 39 40 46 45 47 54 55 54 53 54 56 56 56 57 59 59 59 59 59 59 59 57 57 55 57 56 57 57
54 55 53 53 55 52 48 48 49 43 47 51 52 53 52 52 55 56 57 57 56 55 52 48 46 47 48 49 51 54 54 54 53 54 54 56 57 56 58 59 59 59 58 58 58 57 57 58 57 58 56 56 53 53
53 53 53 54 54 47 44 44 50 45 42 45 46 45 47 50 55 55 54 54 54 52 49 47 48 51 51 53 56 56 56 57 55 53 52 54 55 56 57 58 57 59 58 59 59 58 59 59 59 58 58 57 54 54
54 54 54 54 49 47 45 45 44 45 45 44 47 47 47 52 50 52 52 56 54 51 47 51 51 53 58 58 59 58 57 57 55 56 54 55 58 57 57 59 61 59 57 57 58 57 57 57 60 61 61 61 61 61
52 54 54 53 45 46 45 47 45 48 45 46 46 48 47 47 49 50 55 51 52 50 52 51 52 55 56 57 57 59 59 60 60 60 55 60 59 58 59 61 62 61 62 62 62 62 61 63 63 63 62 62 61 61
53 55 51 48 43 43 42 49 44 46 42 45 47 46 47 48 52 54 50 54 53 56 57 55 57 59 58 61 62 62 64 63 62 62 60 63 63 62 63 64 65 63 62 63 64 64 63 56 61 63 63 62 61 60
54 47 44 42 43 39 45 43 46 45 45 45 46 45 47 49 53 50 48 50 54 55 56 57 57 57 58 59 60 59 61 63 62 63 65 65 64 62 64 66 66 66 65 66 65 63 63 63 59 64 63 63 62 61
40 39 39 35 43 41 42 46 50 50 47 48 50 50 53 56 53 48 46 48 52 54 55 55 57 56 55 57 61 62 65 66 64 63 66 68 66 66 65 66 65 66 68 65 63 64 63 64 62 62 61 60 59 61
32 41 38 43 46 43 49 49 51 53 55 55 56 59 61 55 51 46 48 50 52 54 56 56 55 56 55 59 59 59 61 64 66 65 67 70 69 67 65 64 63 63 68 67 65 65 64 64 64 62 60 59 51 60
39 43 45 50 53 57 56 56 63 58 55 54 54 56 56 49 48 51 57 55 54 57 63 63 61 61 61 63 65 66 67 68 67 66 68 70 71 69 66 62 60 61 66 67 67 65 64 64 64 64 64 64 62 63
52 57 52 58 57 62 58 58 57 55 55 61 60 53 50 50 50 57 62 66 68 68 68 71 70 71 70 70 72 72 71 71 71 70 70 72 70 69 67 67 64 54 61 63 65 64 63 63 62 63 64 62 61 63
52 56 58 56 59 59 57 56 57 58 61 61 56 55 55 60 64 65 67 69 72 72 69 70 71 72 72 71 70 73 72 70 67 64 65 62 65 66 69 67 65 66 65 62 50 57 63 62 62 61 63 62 63 63
56 61 57 59 56 53 58 59 60 66 68 66 66 65 63 64 68 72 72 72 72 72 72 72 72 72 70 70 68 68 70 69 67 64 61 62 64 68 68 68 68 69 67 66 64 62 48 55 57 59 60 60 61 59
63 65 62 61 55 58 66 69 70 69 69 68 70 66 65 67 71 74 73 73 73 75 72 71 71 71 69 68 66 65 64 67 67 66 64 68 69 66 66 66 68 67 66 66 66 65 64 63 63 63 63 62 61 58
65 59 57 57 60 67 69 67 66 65 66 65 64 67 68 66 61 68 73 73 70 70 62 69 70 68 71 71 69 66 59 66 64 65 64 64 64 64 65 68 68 67 67 67 67 66 66 64 63 63 62 62 61 61
64 65 63 61 61 63 67 67 66 65 67 65 64 67 67 65 61 69 76 75 72 72 72 72 73 71 69 70 70 66 62 68 59 49 47 46 47 50 59 66 65 66 66 65 66 66 66 66 63 63 62 62 61 60